[[{"header":{"parameterUnit":"m.s-1","parameterCategory":1,"la1":30.6,"la2":29.2853,"lo1":-89.7004,"lo2":-87.6739,"dy":0.0162,"dx":0.0183,"nx":112,"ny":82,"refTime":"2023-09-09T12:00:00:Z","depth":0,"parameterNumber":2,"parameterNumberName":"U-component_of_WINDS"},"data":[0.0,0.0,0.0,0.0,0.0,0.0,0.0,0.0,0.0,0.0,0.0,0.0,0.0,0.0,0.0,0.0,0.0,0.0,0.0,0.0,0.0,0.0,0.0,0.0,0.0,0.0,0.0,0.0,0.0,0.0,0.0,0.0,0.0,0.0,0.0,0.0,0.0,0.0,0.0,0.0,0.0,0.0,0.0,0.0,0.0,0.0,0.0,0.0,0.0,0.0,0.0,0.0,0.0,0.0,0.0,0.0,0.0,0.0,0.0,0.0,0.0,0.0,0.0,0.0,0.0,0.0,0.0,0.0,0.0,0.0,0.0,0.0,0.0,0.0,0.0,0.0,0.0,0.0,0.0,0.0,0.0,0.0,0.0,0.0,0.0,0.0,0.0,0.0,0.0,0.0,2.8711,2.9572,3.0115,3.0366,3.0204,2.9569,2.9286,2.9562,0.0,0.0,0.0,0.0,0.0,0.0,0.0,0.0,0.0,0.0,0.0,0.0,0.0,0.0,0.0,0.0,0.0,0.0,0.0,0.0,0.0,0.0,0.0,0.0,0.0,0.0,0.0,0.0,0.0,0.0,0.0,0.0,0.0,0.0,0.0,0.0,0.0,0.0,0.0,0.0,0.0,0.0,0.0,0.0,0.0,0.0,0.0,0.0,0.0,0.0,0.0,0.0,0.0,0.0,0.0,0.0,0.0,0.0,0.0,0.0,0.0,0.0,0.0,0.0,0.0,0.0,0.0,0.0,0.0,0.0,0.0,0.0,0.0,0.0,0.0,0.0,0.0,0.0,0.0,0.0,0.0,0.0,0.0,0.0,0.0,0.0,0.0,0.0,0.0,0.0,0.0,0.0,0.0,0.0,0.0,0.0,0.0,0.0,0.0,0.0,0.0,0.0,0.0,0.0,2.9971,3.1118,3.2242,3.2491,3.1513,3.1062,3.0841,3.0841,0.0,0.0,0.0,0.0,0.0,0.0,0.0,0.0,0.0,0.0,0.0,0.0,0.0,0.0,0.0,0.0,0.0,0.0,0.0,0.0,0.0,0.0,0.0,0.0,0.0,0.0,0.0,0.0,0.0,0.0,0.0,0.0,0.0,0.0,0.0,0.0,0.0,0.0,0.0,0.0,0.0,0.0,0.0,0.0,0.0,0.0,0.0,0.0,0.0,0.0,0.0,0.0,0.0,0.0,0.0,0.0,0.0,0.0,0.0,0.0,0.0,0.0,0.0,0.0,0.0,0.0,0.0,0.0,0.0,0.0,0.0,0.0,0.0,0.0,0.0,0.0,0.0,0.0,0.0,0.0,0.0,0.0,0.0,0.0,0.0,0.0,0.0,0.0,0.0,0.0,0.0,0.0,0.0,0.0,0.0,0.0,0.0,0.0,0.0,0.0,0.0,0.0,0.0,3.0032,3.0921,3.1345,3.224,3.2586,3.2074,3.1342,3.1024,3.1352,2.9968,0.0,0.0,0.0,0.0,0.0,0.0,0.0,0.0,0.0,0.0,0.0,0.0,0.0,0.0,0.0,0.0,0.0,0.0,0.0,0.0,0.0,0.0,0.0,0.0,0.0,0.0,0.0,0.0,0.0,0.0,0.0,0.0,0.0,0.0,0.0,0.0,0.0,0.0,0.0,0.0,0.0,0.0,0.0,0.0,0.0,0.0,0.0,0.0,0.0,0.0,0.0,0.0,0.0,0.0,0.0,0.0,0.0,0.0,0.0,0.0,0.0,0.0,0.0,0.0,0.0,0.0,0.0,0.0,0.0,0.0,0.0,0.0,0.0,0.0,0.0,0.0,0.0,0.0,0.0,0.0,0.0,0.0,0.0,0.0,0.0,0.0,0.0,0.0,0.0,0.0,0.0,0.0,0.0,0.0,0.0,0.0,0.0,0.0,0.0,0.0,0.0,0.0,3.1004,3.1706,3.1585,3.2183,3.2453,3.2179,3.1464,3.1201,3.1728,3.0797,0.0,0.0,0.0,0.0,0.0,0.0,0.0,0.0,0.0,0.0,0.0,0.0,0.0,0.0,0.0,0.0,0.0,0.0,0.0,0.0,0.0,0.0,0.0,0.0,0.0,0.0,0.0,0.0,0.0,0.0,0.0,0.0,0.0,0.0,0.0,0.0,0.0,0.0,0.0,0.0,0.0,0.0,0.0,0.0,0.0,0.0,0.0,0.0,0.0,0.0,0.0,0.0,0.0,0.0,0.0,0.0,0.0,0.0,0.0,0.0,0.0,0.0,0.0,0.0,0.0,0.0,0.0,0.0,0.0,0.0,0.0,0.0,0.0,0.0,0.0,0.0,0.0,0.0,0.0,0.0,0.0,0.0,0.0,0.0,0.0,0.0,0.0,0.0,0.0,0.0,0.0,0.0,0.0,0.0,0.0,0.0,0.0,0.0,0.0,0.0,0.0,0.0,3.2097,3.2306,3.2652,3.3081,3.2912,3.1823,3.2022,3.2195,3.2263,3.1493,0.0,0.0,0.0,0.0,0.0,0.0,0.0,0.0,0.0,0.0,0.0,0.0,0.0,0.0,0.0,0.0,0.0,0.0,0.0,0.0,0.0,0.0,0.0,0.0,0.0,0.0,0.0,0.0,0.0,0.0,0.0,0.0,0.0,0.0,0.0,0.0,0.0,0.0,0.0,0.0,0.0,0.0,0.0,0.0,0.0,0.0,0.0,0.0,0.0,0.0,0.0,0.0,0.0,0.0,0.0,0.0,0.0,0.0,0.0,0.0,0.0,0.0,0.0,0.0,0.0,0.0,0.0,0.0,0.0,0.0,0.0,0.0,0.0,0.0,0.0,0.0,0.0,0.0,0.0,0.0,0.0,0.0,0.0,0.0,0.0,0.0,0.0,0.0,0.0,0.0,0.0,0.0,0.0,0.0,0.0,0.0,0.0,0.0,0.0,0.0,0.0,0.0,3.248,3.2913,0.0,3.2957,3.2844,3.2417,3.2092,3.2127,3.2568,0.0,0.0,0.0,0.0,0.0,0.0,0.0,0.0,0.0,0.0,0.0,0.0,0.0,0.0,0.0,0.0,0.0,0.0,0.0,0.0,0.0,0.0,0.0,0.0,0.0,0.0,0.0,0.0,0.0,0.0,0.0,0.0,0.0,0.0,0.0,0.0,0.0,0.0,0.0,0.0,0.0,0.0,0.0,0.0,0.0,0.0,0.0,0.0,0.0,0.0,0.0,0.0,0.0,0.0,0.0,0.0,0.0,0.0,0.0,0.0,0.0,0.0,0.0,0.0,0.0,0.0,0.0,0.0,0.0,0.0,0.0,0.0,0.0,0.0,0.0,0.0,0.0,0.0,0.0,0.0,0.0,0.0,0.0,0.0,0.0,0.0,0.0,0.0,0.0,0.0,0.0,0.0,0.0,0.0,0.0,0.0,0.0,0.0,0.0,0.0,0.0,0.0,3.2145,3.2787,3.3099,0.0,3.2908,3.2894,3.2666,3.2196,3.2162,3.2763,0.0,0.0,0.0,0.0,0.0,0.0,0.0,0.0,0.0,0.0,0.0,0.0,0.0,0.0,0.0,0.0,0.0,0.0,0.0,0.0,0.0,0.0,0.0,0.0,0.0,0.0,0.0,0.0,0.0,0.0,0.0,0.0,0.0,0.0,0.0,0.0,0.0,0.0,0.0,0.0,0.0,0.0,0.0,0.0,0.0,0.0,0.0,0.0,0.0,0.0,0.0,0.0,0.0,0.0,0.0,0.0,0.0,0.0,0.0,0.0,0.0,0.0,0.0,0.0,0.0,0.0,0.0,0.0,0.0,0.0,0.0,0.0,0.0,0.0,0.0,0.0,0.0,0.0,0.0,0.0,0.0,0.0,0.0,0.0,0.0,0.0,0.0,0.0,0.0,0.0,0.0,0.0,0.0,0.0,0.0,0.0,0.0,0.0,0.0,0.0,0.0,0.0,3.3225,3.3068,3.2813,3.2813,3.3165,3.3104,3.2403,3.2335,3.2453,0.0,0.0,0.0,0.0,0.0,0.0,0.0,0.0,0.0,0.0,0.0,0.0,0.0,0.0,0.0,0.0,0.0,0.0,0.0,0.0,0.0,0.0,0.0,0.0,0.0,0.0,0.0,0.0,0.0,0.0,0.0,0.0,0.0,0.0,0.0,0.0,0.0,0.0,0.0,0.0,0.0,0.0,0.0,0.0,0.0,0.0,0.0,0.0,0.0,0.0,0.0,0.0,0.0,0.0,0.0,0.0,0.0,0.0,0.0,0.0,0.0,0.0,0.0,0.0,0.0,0.0,0.0,0.0,0.0,0.0,0.0,0.0,0.0,0.0,0.0,0.0,0.0,0.0,0.0,0.0,0.0,0.0,0.0,0.0,0.0,0.0,0.0,0.0,0.0,0.0,0.0,0.0,0.0,0.0,0.0,0.0,0.0,0.0,0.0,0.0,0.0,0.0,0.0,3.2952,3.3633,3.3944,3.3684,3.425,3.4357,3.3555,3.3264,3.3035,3.2798,0.0,0.0,0.0,0.0,0.0,0.0,0.0,0.0,0.0,0.0,0.0,0.0,0.0,0.0,0.0,0.0,0.0,0.0,0.0,0.0,0.0,0.0,0.0,0.0,0.0,0.0,0.0,0.0,0.0,0.0,0.0,0.0,0.0,0.0,0.0,0.0,0.0,0.0,0.0,0.0,0.0,0.0,0.0,0.0,0.0,0.0,0.0,0.0,0.0,0.0,0.0,0.0,0.0,0.0,0.0,0.0,0.0,0.0,0.0,0.0,0.0,0.0,0.0,0.0,0.0,0.0,0.0,0.0,0.0,0.0,0.0,0.0,0.0,0.0,0.0,0.0,0.0,0.0,0.0,0.0,0.0,0.0,0.0,0.0,0.0,0.0,0.0,0.0,0.0,0.0,0.0,0.0,0.0,0.0,0.0,0.0,0.0,0.0,0.0,0.0,0.0,0.0,3.3499,3.3997,3.4461,3.4702,3.5169,3.5175,3.449,3.3863,3.3389,3.3064,0.0,0.0,0.0,0.0,0.0,0.0,0.0,0.0,0.0,0.0,0.0,0.0,0.0,0.0,0.0,0.0,0.0,0.0,0.0,0.0,0.0,0.0,0.0,0.0,0.0,0.0,0.0,0.0,0.0,0.0,0.0,0.0,0.0,0.0,0.0,0.0,0.0,0.0,0.0,0.0,0.0,0.0,0.0,0.0,0.0,0.0,0.0,0.0,0.0,0.0,0.0,0.0,0.0,0.0,0.0,0.0,0.0,0.0,0.0,0.0,0.0,0.0,0.0,0.0,0.0,0.0,0.0,0.0,0.0,0.0,0.0,0.0,0.0,0.0,0.0,0.0,0.0,0.0,0.0,0.0,0.0,0.0,0.0,0.0,0.0,0.0,0.0,0.0,0.0,0.0,0.0,0.0,0.0,0.0,0.0,0.0,0.0,0.0,0.0,0.0,0.0,0.0,3.4467,3.4411,3.4706,3.5806,3.5983,3.5836,3.5325,3.4358,3.3706,3.3477,0.0,0.0,0.0,0.0,0.0,0.0,0.0,0.0,0.0,0.0,0.0,0.0,0.0,0.0,0.0,0.0,0.0,0.0,0.0,0.0,0.0,0.0,0.0,0.0,0.0,0.0,0.0,0.0,0.0,0.0,0.0,0.0,0.0,0.0,0.0,0.0,0.0,0.0,0.0,0.0,0.0,0.0,0.0,0.0,0.0,0.0,0.0,0.0,0.0,0.0,0.0,0.0,0.0,0.0,0.0,0.0,0.0,0.0,0.0,0.0,2.7108,0.0,0.0,0.0,0.0,0.0,0.0,0.0,0.0,0.0,0.0,0.0,0.0,0.0,0.0,0.0,0.0,0.0,0.0,0.0,0.0,0.0,0.0,0.0,0.0,0.0,0.0,0.0,0.0,0.0,0.0,0.0,0.0,0.0,0.0,0.0,0.0,0.0,0.0,0.0,0.0,0.0,3.4588,3.563,3.6461,3.6707,3.7305,3.738,3.6663,3.6381,3.5582,3.3962,3.3713,0.0,0.0,0.0,0.0,0.0,0.0,0.0,0.0,0.0,0.0,0.0,0.0,0.0,0.0,0.0,0.0,0.0,0.0,0.0,0.0,0.0,0.0,0.0,0.0,0.0,0.0,0.0,0.0,0.0,0.0,0.0,0.0,0.0,0.0,0.0,0.0,0.0,0.0,0.0,0.0,0.0,0.0,0.0,0.0,0.0,0.0,0.0,0.0,0.0,0.0,0.0,0.0,0.0,0.0,0.0,0.0,0.0,0.0,0.0,0.0,2.7394,0.0,0.0,0.0,0.0,0.0,0.0,0.0,0.0,0.0,0.0,0.0,0.0,0.0,0.0,0.0,0.0,0.0,0.0,0.0,0.0,0.0,0.0,0.0,0.0,0.0,0.0,0.0,0.0,0.0,0.0,0.0,0.0,0.0,0.0,0.0,0.0,0.0,0.0,0.0,0.0,3.5693,3.6472,3.7174,3.7522,3.7938,3.7925,3.7286,3.6926,3.6163,3.4925,3.4482,0.0,0.0,0.0,0.0,0.0,0.0,0.0,0.0,0.0,0.0,0.0,0.0,0.0,0.0,0.0,0.0,0.0,0.0,0.0,0.0,0.0,0.0,0.0,0.0,0.0,0.0,0.0,0.0,0.0,0.0,0.0,0.0,0.0,0.0,0.0,0.0,0.0,0.0,0.0,0.0,0.0,0.0,0.0,0.0,0.0,0.0,0.0,0.0,0.0,0.0,0.0,0.0,0.0,3.0567,3.0728,3.0433,3.0859,3.0843,3.0368,2.9757,2.9137,2.8594,2.8616,0.0,0.0,0.0,0.0,0.0,0.0,0.0,0.0,0.0,0.0,0.0,0.0,0.0,0.0,0.0,0.0,0.0,0.0,0.0,0.0,0.0,0.0,0.0,0.0,3.2555,3.2406,3.0838,0.0,0.0,0.0,0.0,0.0,0.0,0.0,0.0,0.0,0.0,0.0,3.6888,3.7232,3.7649,3.8337,3.8391,3.8271,3.7882,3.7131,3.6471,3.5927,3.5273,3.4712,0.0,0.0,0.0,0.0,0.0,0.0,0.0,0.0,0.0,0.0,0.0,0.0,0.0,0.0,0.0,0.0,0.0,0.0,0.0,0.0,0.0,0.0,0.0,0.0,0.0,0.0,0.0,0.0,0.0,0.0,0.0,0.0,2.7697,2.7697,0.0,0.0,0.0,0.0,0.0,0.0,0.0,0.0,0.0,0.0,0.0,0.0,0.0,2.9721,2.9721,3.0953,3.1556,3.1572,3.2126,3.2685,3.3251,3.3313,3.3313,3.3251,3.316,0.0,2.9284,2.9284,0.0,0.0,0.0,0.0,0.0,0.0,0.0,0.0,0.0,0.0,0.0,0.0,0.0,0.0,0.0,0.0,0.0,0.0,0.0,0.0,0.0,0.0,3.2833,3.2789,3.306,3.3211,0.0,3.336,3.3945,3.4108,3.4196,0.0,0.0,0.0,0.0,0.0,0.0,0.0,3.6979,3.821,3.9115,3.9224,3.9224,3.9224,3.9137,3.8413,3.7482,3.6399,3.6221,3.5811,3.5077,3.4973,0.0,0.0,0.0,0.0,0.0,0.0,0.0,0.0,0.0,0.0,0.0,0.0,0.0,0.0,0.0,0.0,0.0,0.0,0.0,0.0,0.0,0.0,0.0,0.0,0.0,0.0,0.0,0.0,0.0,2.9387,2.9247,2.9247,2.9247,2.9346,0.0,0.0,0.0,0.0,0.0,0.0,0.0,0.0,0.0,3.0209,3.0791,3.1244,3.1636,3.2653,3.3312,3.3693,3.4354,3.4638,3.4657,3.5364,3.5256,3.4662,3.5383,3.4684,3.3011,3.1769,3.1073,3.0833,0.0,0.0,0.0,0.0,3.0212,2.9923,3.0,3.0,0.0,3.0176,0.0,0.0,0.0,0.0,0.0,0.0,0.0,0.0,0.0,0.0,3.4742,3.4913,3.5333,3.5681,3.5744,3.5876,3.5659,0.0,3.4321,3.4602,3.5011,0.0,0.0,0.0,0.0,3.8395,3.8546,3.9174,3.9733,3.9986,3.977,3.9733,3.9986,3.9315,3.863,3.8113,3.7417,3.6773,3.6206,3.5984,3.5803,0.0,0.0,0.0,0.0,0.0,0.0,0.0,0.0,0.0,0.0,0.0,0.0,0.0,0.0,0.0,0.0,0.0,0.0,0.0,0.0,0.0,0.0,0.0,0.0,0.0,0.0,0.0,0.0,3.0342,3.0408,3.0589,3.0478,3.05,0.0,0.0,0.0,0.0,0.0,0.0,3.1095,3.1388,3.1774,3.2113,3.2299,3.2625,3.3137,3.3817,3.4373,3.4888,3.5593,3.588,3.5801,3.6725,3.6731,3.6069,3.699,3.697,3.6141,3.4286,3.3425,3.3226,3.3044,3.2735,3.2357,3.2097,3.1724,3.1341,3.1233,3.1191,3.1191,3.1191,3.1666,3.2295,3.2615,0.0,0.0,0.0,0.0,3.4692,3.5026,3.5694,3.6407,3.6609,3.7082,3.7501,3.7599,3.7582,3.7054,0.0,3.5098,3.5409,3.5892,0.0,0.0,0.0,0.0,3.9387,3.9597,3.9925,4.0224,4.0599,4.0318,4.0318,4.0782,4.0005,3.9463,3.9405,3.851,3.7791,3.7323,3.6946,3.6676,3.6435,0.0,0.0,0.0,0.0,0.0,0.0,0.0,0.0,0.0,0.0,0.0,0.0,0.0,0.0,0.0,0.0,0.0,0.0,0.0,0.0,0.0,0.0,0.0,0.0,0.0,0.0,0.0,0.0,0.0,3.0794,3.0352,0.0,0.0,0.0,0.0,3.0982,3.1577,3.1763,3.132,3.2511,3.2962,3.2466,3.3081,3.3411,3.3441,3.4012,3.4321,3.4352,3.4992,3.592,3.7077,3.7187,3.753,3.8041,3.811,3.7748,3.6986,3.6174,3.5413,3.4717,3.4005,3.3786,3.3777,3.2956,3.2719,3.2763,3.2625,3.2625,3.2625,3.2625,3.2914,3.3303,3.3345,3.3989,0.0,0.0,3.5363,3.6085,3.6135,3.6702,3.722,3.7103,3.7286,3.7468,3.7369,3.7838,3.8082,0.0,3.7509,3.7682,3.8229,0.0,3.852,3.8951,3.907,3.9105,3.914,4.0205,4.0967,4.0967,4.0949,4.1124,4.1614,4.0484,3.9693,3.9407,3.9351,3.8952,3.8156,3.8119,3.8101,3.8065,3.7323,0.0,0.0,0.0,0.0,0.0,0.0,0.0,0.0,0.0,0.0,0.0,0.0,0.0,0.0,0.0,0.0,0.0,0.0,0.0,0.0,0.0,0.0,0.0,0.0,0.0,0.0,0.0,0.0,3.1477,3.1758,0.0,3.1976,3.2279,3.2485,3.2485,3.2782,3.2877,3.2717,3.3185,3.3517,3.3769,3.4008,3.4337,3.4786,3.4946,3.5284,3.5706,3.5946,3.6257,3.6738,3.7141,3.7492,3.7713,3.8121,3.8372,3.8477,3.8212,3.74,3.629,3.6025,3.5926,3.5958,3.5644,3.5545,3.5593,3.5545,3.5528,3.5528,3.5528,3.5656,3.5783,3.5783,3.6031,3.6231,3.6231,3.6487,3.6871,3.7352,3.7769,3.8136,3.855,3.8753,3.8907,3.8856,3.9026,3.9159,3.911,3.8546,3.8196,3.847,3.8408,3.8608,3.9316,3.9678,3.9957,4.0197,4.0565,4.1007,4.1294,4.1336,4.1505,4.1966,4.1405,4.096,4.0908,4.0401,3.9767,3.8989,3.8952,3.8717,3.8192,3.7902,3.7757,0.0,0.0,0.0,0.0,0.0,0.0,0.0,0.0,0.0,0.0,0.0,0.0,0.0,0.0,0.0,0.0,0.0,0.0,0.0,0.0,0.0,0.0,0.0,0.0,0.0,0.0,3.1943,3.253,3.2878,3.2977,3.281,3.3157,3.3376,3.3376,3.3638,3.3829,3.3829,3.4038,3.4382,3.4801,3.4816,3.504,3.5504,3.5504,3.5729,3.6148,3.6148,3.628,3.6511,3.7092,3.7494,3.7764,3.8367,3.8898,3.9272,3.9272,3.8709,3.7814,3.7582,3.7483,3.745,3.7201,3.7102,3.7102,3.7102,3.7102,3.7102,3.7102,3.7102,3.7102,3.7102,3.7284,3.7483,3.7483,3.7649,3.7947,3.8444,3.8612,3.8833,3.9332,3.9484,3.959,3.959,3.9625,3.9729,3.9849,3.9308,3.8901,3.9012,3.8948,3.9149,3.9881,4.0135,4.0354,4.0733,4.0802,4.0926,4.123,4.1276,4.1543,4.2157,4.1855,4.1656,4.1704,4.1216,4.0564,3.9804,3.9767,3.9405,3.8608,3.8337,3.8192,3.8192,0.0,0.0,0.0,0.0,0.0,0.0,0.0,0.0,0.0,0.0,0.0,0.0,0.0,0.0,0.0,0.0,0.0,0.0,0.0,0.0,0.0,0.0,0.0,3.1775,3.1919,3.2606,3.3901,3.3654,3.3621,3.4263,3.3864,3.3559,3.3559,3.4143,3.4502,3.4502,3.5145,3.5504,3.5504,3.5504,3.5504,3.5504,3.5504,3.5504,3.5504,3.5504,3.5797,3.6368,3.7011,3.7648,3.8294,3.8969,3.9272,3.9272,3.9272,3.9272,3.9206,3.851,3.8245,3.8162,3.7433,3.7168,3.7168,3.7168,3.7168,3.7168,3.7168,3.7168,3.7168,3.7168,3.7682,3.8245,3.8245,3.8742,3.9272,3.9272,3.9272,3.9272,3.9272,3.9272,3.9325,3.9325,3.9537,3.9729,3.9729,3.9781,3.9935,4.0087,4.007,4.0254,4.0707,4.0402,0.0,4.0707,4.0802,4.0802,4.0802,4.0802,4.1202,4.2115,4.1803,4.1611,4.1722,4.1759,4.1397,4.0582,4.0546,4.0202,3.9441,3.8663,3.8264,3.8264,0.0,0.0,0.0,0.0,0.0,0.0,0.0,0.0,0.0,0.0,0.0,0.0,0.0,0.0,0.0,0.0,0.0,0.0,0.0,0.0,0.0,0.0,3.3777,3.3975,3.4104,3.435,3.4908,3.4836,3.4637,3.4468,3.4778,3.4951,3.4951,3.5115,3.522,3.522,3.54,3.5504,3.5504,3.5504,3.5504,3.5504,3.5504,3.5504,3.5504,3.5504,3.5554,3.5733,3.591,3.6368,3.6951,3.7605,3.8181,3.859,3.9094,3.9272,3.9255,3.9056,3.899,3.8957,3.8758,3.8676,3.8676,3.8676,3.8676,3.8676,3.8676,3.8676,3.8676,3.8676,3.8825,3.899,3.899,3.9123,3.9272,3.9272,3.9272,3.9272,3.9272,3.9379,3.9448,3.9448,3.9642,3.9849,3.9849,3.9935,4.0037,4.007,4.007,4.0121,4.0254,4.0171,0.0,4.0271,4.0303,4.0434,4.0754,4.1094,4.1543,4.2157,4.24,4.2526,4.2574,4.2574,4.2212,4.1415,4.1379,4.1017,4.022,3.9985,3.9876,0.0,0.0,0.0,0.0,0.0,0.0,0.0,0.0,0.0,0.0,0.0,0.0,0.0,0.0,0.0,0.0,0.0,0.0,0.0,0.0,0.0,0.0,3.5087,3.5462,3.5791,3.5455,3.5196,3.5263,3.5369,3.5256,3.497,3.5265,3.5504,3.5504,3.5504,3.5504,3.5504,3.5504,3.5504,3.5504,3.5504,3.5639,3.5908,3.5923,3.6043,3.6312,3.6312,3.6312,3.6312,3.6627,3.6923,3.7277,3.7933,3.8583,3.9169,3.925,3.9484,0.0,0.0,0.0,0.0,0.0,3.9272,3.9272,3.9272,3.9272,3.9272,3.9272,3.9272,3.9272,3.9272,3.9272,3.9272,3.9272,3.9272,3.9272,3.9272,3.9272,3.9272,3.9272,3.9379,3.9448,3.9448,3.9642,3.9849,3.9849,3.9986,0.0,4.007,4.007,4.0171,4.0353,4.0221,4.0171,4.0353,4.0221,4.0254,4.0754,4.1065,4.1499,4.2157,4.2458,0.0,0.0,0.0,4.2683,4.223,4.1886,0.0,0.0,0.0,4.051,4.051,4.051,0.0,0.0,3.8952,3.8966,0.0,0.0,0.0,0.0,0.0,0.0,0.0,0.0,0.0,0.0,0.0,0.0,0.0,0.0,0.0,0.0,3.6737,3.7157,3.7332,3.6432,3.5675,3.5569,3.5664,3.5714,3.5714,3.5714,3.5714,3.5714,3.5714,3.5714,3.5714,0.0,0.0,0.0,0.0,3.5998,3.6596,3.6596,3.6866,3.7404,3.7404,3.7404,3.7404,3.7998,3.8315,3.8315,3.8982,3.9672,4.0248,3.9752,3.9927,4.0415,3.9587,3.9272,3.9272,3.9272,3.9272,3.9272,3.9272,0.0,0.0,3.9272,3.9272,3.9272,3.9272,3.9272,3.9272,3.9272,3.9272,3.9272,3.9272,3.9272,3.9272,3.9272,3.9272,3.9272,3.9272,3.9484,3.9677,3.9677,3.9884,4.0087,4.0087,4.007,4.0271,4.0676,4.0353,4.0254,4.0676,4.0385,4.0353,4.0849,0.0,0.0,4.2198,4.2297,4.2458,4.2882,4.2882,4.2882,4.2882,4.2212,4.185,4.185,4.1144,4.0782,4.0782,4.0782,4.0782,4.0782,4.06,4.051,0.0,0.0,0.0,0.0,0.0,0.0,0.0,0.0,0.0,0.0,0.0,0.0,0.0,0.0,0.0,3.7529,3.7429,3.739,3.8098,3.7973,3.7607,3.7046,3.701,3.7045,3.7045,3.7045,3.7045,3.7045,3.7045,3.7045,3.7045,3.7045,3.7045,3.7045,3.7045,3.7105,3.7225,3.724,3.7285,3.7404,0.0,0.0,3.7404,3.7541,3.7609,3.7662,3.8869,3.9439,3.9672,4.0596,4.1097,4.1077,3.9785,3.9272,3.9272,3.9272,3.9272,3.9272,3.9272,3.9272,3.9272,3.9272,3.9272,3.9272,3.9272,3.9272,0.0,3.9272,3.9272,3.9272,3.9272,3.9272,3.9272,3.9272,3.9272,3.9272,3.9272,3.9432,3.9537,3.9537,3.9746,3.9952,3.9952,4.0037,4.0121,4.0221,4.0171,4.0121,4.0204,4.0483,4.0832,4.1303,4.1717,4.2157,4.2711,4.275,4.2806,4.2882,4.2882,4.2882,4.2882,4.2737,4.2665,4.2665,4.252,4.2429,4.2429,4.2429,4.2429,4.2393,4.1107,4.051,0.0,0.0,0.0,0.0,0.0,0.0,0.0,0.0,0.0,0.0,0.0,3.6671,0.0,0.0,3.7597,3.9053,3.8985,3.8813,3.8914,3.9172,3.8888,3.7527,3.7398,3.7404,3.7404,3.7404,3.7404,3.7404,3.7404,3.7404,3.7404,3.7404,3.7404,3.7404,3.7404,3.7569,3.7898,3.7898,3.8078,3.8407,3.8407,3.8407,3.8407,3.8795,3.8933,3.9002,4.0028,4.0674,4.1036,4.1681,4.174,4.1342,4.063,4.0348,4.0299,3.9951,3.9835,3.9785,3.9404,3.9272,3.9272,3.9272,3.9272,3.9272,3.9272,3.9272,3.9272,3.9272,3.9272,3.9272,3.9272,3.9272,3.9272,3.9272,3.9272,3.9272,3.9272,3.9484,3.969,4.0074,4.0352,4.0661,4.1032,4.1135,4.0933,4.0189,4.007,4.007,4.007,4.0531,4.0972,4.1437,4.1931,4.2378,4.2844,4.2882,4.2882,4.2882,4.2882,4.2882,4.2882,4.2882,4.2882,4.2882,4.2882,4.2882,4.2882,4.2882,4.2882,4.2864,4.2067,4.1705,0.0,0.0,0.0,0.0,0.0,0.0,0.0,0.0,3.5661,3.6854,3.7218,3.7549,3.8278,3.8421,3.8879,4.0365,4.0397,4.0024,3.9659,3.9927,3.961,3.7976,3.7793,3.7793,3.7793,3.7793,3.7793,3.7793,3.7793,3.7793,3.7793,3.7793,3.7793,3.7793,3.7793,3.8063,3.8586,3.8586,3.8871,3.9424,3.9424,3.9496,3.961,4.0216,4.0547,4.0737,4.1393,4.211,4.2802,4.273,4.2386,4.1839,4.1839,4.1839,4.174,4.0895,4.058,4.0498,3.9885,3.9686,3.9669,3.9537,3.9487,3.9471,3.9322,3.9272,3.9305,3.9454,3.9487,3.952,3.9653,3.9686,3.9686,3.9686,3.9686,3.9686,3.9686,3.9901,4.0227,4.0775,4.116,4.1504,4.2148,4.225,4.188,4.0696,4.051,4.046,4.0307,4.0786,4.1221,4.1455,4.2015,4.2498,4.2882,4.2882,4.2882,4.2882,4.2882,4.2882,4.2882,4.2882,4.2882,4.2882,4.2882,4.2882,4.2882,4.2882,4.2882,4.2882,4.2882,4.2882,3.0526,3.1007,3.1835,3.321,3.4054,3.4767,0.0,0.0,3.6903,3.7069,3.7632,3.8311,3.9023,3.9253,3.9699,4.1047,4.0318,3.9691,4.0197,3.985,3.9458,3.9197,3.92,3.92,3.92,3.92,3.92,3.92,3.92,3.92,3.92,3.92,3.92,3.92,3.92,3.923,3.9305,3.9305,3.9349,3.9424,3.9424,3.9753,4.0409,4.0478,4.0805,4.1459,4.219,4.2834,4.3492,4.3469,4.3446,4.338,4.338,4.338,4.3214,4.1806,4.1293,4.1293,4.1193,4.1177,4.1077,4.0464,4.0266,4.0133,3.9471,3.9272,3.9421,4.0067,4.0266,4.0398,4.1011,4.1177,4.1177,4.1177,4.1177,4.1177,4.1177,4.1177,4.1249,4.1332,4.1588,4.1875,4.1942,4.2142,4.2236,4.2066,4.2033,4.1813,4.117,4.185,4.2163,4.1552,4.2279,4.2844,4.29,4.2882,4.2882,4.2882,4.2882,4.2882,4.2882,4.2882,4.2882,4.2882,4.2882,4.2882,4.2882,4.2882,4.2882,4.2882,4.2882,4.2882,3.2199,3.2646,3.3342,3.5247,3.5628,3.5959,3.7549,3.7831,3.7864,3.8278,3.8957,3.957,3.9868,4.0298,4.0893,0.0,4.1557,4.1184,4.1053,4.0821,4.0344,3.9523,3.9424,3.9424,3.9424,3.9424,3.9424,3.9424,3.9424,3.9424,3.9424,3.9424,3.9424,3.9424,3.9424,3.9625,4.0021,3.961,3.9809,4.06,4.0216,4.0409,4.1075,4.1525,4.2126,4.2772,4.3035,4.3355,4.3628,4.3628,4.3628,4.3628,4.3628,4.3628,4.3495,4.2452,4.2054,4.2005,4.1558,4.1409,4.1359,4.1077,4.0978,4.0928,4.0613,4.0514,4.058,4.0895,4.0978,4.1044,4.1342,4.1409,4.1409,4.1409,4.1409,4.1409,4.1409,4.1498,4.1687,4.2119,4.2355,4.273,4.3205,4.3384,4.3495,4.3623,4.2861,4.2185,4.188,4.2446,4.2969,4.3227,4.3468,4.3588,4.3588,4.3154,4.2882,4.2882,4.2882,4.2882,4.2882,4.2882,4.2882,4.2882,4.2882,4.2882,4.2882,4.2882,4.2882,4.2882,4.2882,4.2882,3.3756,3.4237,0.0,3.6903,3.7003,3.7135,3.9123,3.9189,3.9007,3.9719,4.0282,4.0729,4.0928,4.1375,4.1955,4.27,4.264,4.237,4.1853,4.1459,4.0873,3.9809,3.9553,3.9424,3.9424,3.9424,3.9424,3.9424,3.9625,3.9681,3.9681,3.9681,3.9824,3.9935,3.961,3.9809,4.0737,4.0076,4.027,4.1525,4.1008,4.1142,4.1852,4.2585,4.3174,4.3628,4.3628,4.3628,4.3628,4.3628,4.3628,4.3628,4.3628,4.3628,4.3562,4.3015,4.2816,4.275,4.2204,4.2021,4.1988,4.1789,4.1707,4.169,4.1475,4.1409,4.1458,4.1674,4.1707,4.1756,4.1972,4.2021,4.2021,4.2021,4.2021,4.2021,4.2021,4.2112,4.2409,4.2924,4.318,4.3518,4.4169,4.431,4.444,4.457,4.3639,4.2844,4.2625,4.2946,4.3563,4.4405,4.4448,4.4421,4.4421,4.3896,4.3552,4.3552,4.3552,4.3444,4.3226,4.3226,4.3118,4.2882,4.2882,4.2882,4.2882,4.2882,4.2882,4.2882,4.2882,4.2882,3.4651,3.5396,3.629,3.7798,3.8162,3.8543,4.0017,4.0332,4.0514,4.121,4.1359,4.1607,4.2319,4.2469,4.2734,4.3479,4.3003,4.2553,4.2585,4.1393,4.0478,4.0478,3.9824,3.9424,0.0,3.9424,3.9424,3.9424,4.0091,4.0478,4.0478,4.0478,4.0737,4.1393,4.0076,4.0076,4.1459,4.0805,4.0805,4.1525,4.1459,4.1852,4.2585,4.3235,4.3568,4.3628,4.3628,4.3628,4.3628,4.3628,4.3628,4.3628,4.3628,4.3628,4.3628,4.3595,4.3595,4.3595,4.3562,4.3562,4.3446,4.2717,4.2485,4.2353,4.164,4.1409,4.1558,4.2286,4.2485,4.2651,4.338,4.3562,4.3562,4.3562,4.3562,4.3562,4.3562,4.3562,4.3562,4.3578,4.3831,4.408,4.4097,4.44,4.457,4.4587,4.4536,4.4231,4.3487,4.361,4.3937,4.4448,4.4952,4.5254,4.5254,4.5236,4.5236,4.5236,4.5236,4.4874,4.4095,4.4059,4.3697,4.29,4.2882,4.2882,4.2882,4.2882,4.2882,4.2882,4.2882,4.2882,3.6771,3.7615,3.8411,3.9404,3.9653,3.9901,4.0845,4.0713,4.0448,4.068,4.0729,4.0868,4.1172,4.1929,4.2601,4.2949,4.3162,4.3113,4.2648,4.219,4.1699,4.1187,4.053,0.0,0.0,0.0,0.0,3.9424,4.0076,4.0478,4.0478,4.094,4.126,4.1525,4.106,4.126,4.2253,4.1525,4.1722,4.2896,4.2896,4.3035,4.3295,4.3492,4.3628,4.3628,4.3628,4.3628,4.3628,4.3628,4.3628,4.3628,4.3628,4.3628,4.3628,4.3628,4.3628,4.3628,4.3628,4.3628,4.3578,4.333,4.3247,4.3197,4.2949,4.2883,4.2932,4.3181,4.3247,4.3313,4.3562,4.3628,4.3628,4.3628,4.3628,4.3628,4.3628,4.3628,4.3628,4.3628,4.3687,4.3864,4.4039,4.4212,4.4344,4.457,4.4587,4.4485,4.4215,4.4888,4.5391,4.5564,4.5878,4.6106,4.6106,4.5617,4.5291,4.5291,4.5291,4.5182,4.491,4.4892,4.4765,4.4494,4.4476,4.4476,4.4476,4.4476,4.4476,4.4476,4.4476,4.4476,3.8261,3.8924,3.9508,4.0199,4.0183,4.0233,4.1193,4.0878,4.0519,4.0785,4.089,4.089,4.1055,4.1693,4.2335,4.2625,4.3032,4.3254,4.3003,4.3,4.2848,4.2286,4.1903,4.1828,0.0,0.0,0.0,4.0567,4.1464,4.2014,4.2014,4.2417,4.2685,4.2623,4.2153,4.2237,4.2974,4.2253,4.2443,4.3628,4.3628,4.3628,4.3628,4.3628,4.3628,4.3628,4.3628,4.3628,4.3628,4.3628,4.3628,4.3628,4.3628,4.3628,4.3628,4.3628,4.3628,4.3628,4.3628,4.3628,4.3628,4.3628,4.3628,4.3628,4.3628,4.3628,4.3628,4.3628,4.3628,4.3628,4.3628,4.3628,4.3628,4.3628,4.3628,4.3628,4.3628,4.3628,4.3628,4.3628,4.3628,4.3822,4.4039,4.4212,4.4344,4.457,4.4587,4.4587,4.4587,4.5284,4.58,4.58,4.6308,4.6632,4.6632,4.6349,4.616,4.616,4.616,4.6033,4.5743,4.5725,4.5599,4.5309,4.5291,4.5291,4.5291,4.5291,4.5291,4.5291,4.5291,4.5291,3.9139,3.9338,3.9487,4.0166,3.9835,3.9686,4.1044,4.0862,4.0636,4.1461,4.1633,4.1655,0.0,0.0,4.1866,4.2499,4.2715,4.2957,4.3479,4.3748,4.3893,0.0,0.0,0.0,0.0,0.0,0.0,4.2897,0.0,4.4805,4.4805,4.4805,4.482,4.4771,4.346,4.3073,4.3684,4.3088,4.3088,4.3727,4.3727,4.3727,4.3727,4.3727,4.3727,4.3727,4.3694,4.3678,4.3678,4.3645,4.3628,4.3628,4.3628,4.3628,4.3628,4.3628,4.3628,4.3628,4.3628,4.3628,4.3628,4.3628,4.3628,4.3628,4.3628,4.3628,4.3628,4.3628,4.3628,4.3628,4.3628,4.3628,4.3628,4.3628,4.3628,4.3628,4.3628,4.3628,4.3628,4.3628,4.3763,4.3956,4.4097,4.44,4.4587,4.4587,4.4587,4.4587,4.4587,4.4981,4.5303,4.5303,4.6262,4.6908,4.6908,4.7407,4.7717,4.7717,4.7717,4.7373,4.6595,4.6558,4.6196,4.5436,4.5417,4.5417,4.5417,4.5417,4.5417,4.5417,4.5417,4.5417,3.9901,4.01,4.0017,3.9653,3.9835,4.0183,4.0564,4.0514,4.0486,4.0795,4.045,4.0104,4.0369,0.0,0.0,4.1264,4.1976,0.0,4.2767,4.3756,0.0,4.4399,0.0,4.4718,4.5134,4.5266,0.0,0.0,4.5196,4.4805,4.4805,4.5259,4.5511,4.5516,4.517,4.5072,4.5235,4.5049,4.5049,4.5235,4.5235,4.5235,4.5235,4.5235,4.5235,4.5202,4.4655,4.4423,4.4373,4.3843,4.3628,4.3628,4.3628,4.3628,4.3628,4.3628,4.3628,4.3628,4.3628,4.3628,4.3628,4.3628,4.3628,4.3628,4.3628,4.3628,4.3628,4.3628,4.3628,4.3628,4.3628,4.3628,4.3628,4.3628,4.3628,4.3628,4.3628,4.3628,4.3628,4.3763,4.4039,4.4196,4.4253,4.444,4.4587,4.4587,4.4587,4.4587,4.4587,4.4981,4.5303,4.5303,4.6262,4.6908,4.6908,4.7407,4.7717,4.7717,4.7717,4.7627,4.7409,4.7391,4.7301,4.7102,4.7102,4.7102,4.7102,4.7102,4.7102,4.7102,4.7102,4.7102,4.0266,4.0133,3.9885,3.9785,3.9835,3.9984,4.0299,4.0188,4.0064,4.0154,3.9943,3.9746,3.9935,4.0134,4.0431,0.0,0.0,0.0,4.2601,4.4238,4.5363,0.0,4.5864,0.0,4.6683,4.6732,4.6947,0.0,4.6667,4.6225,4.6225,4.6566,4.6609,4.6278,4.6278,4.6129,4.5798,4.5798,4.5798,4.5798,4.5798,4.5798,4.5798,4.5798,4.5798,4.5765,0.0,4.4986,4.4655,4.4257,4.391,4.3628,4.3628,4.3628,4.3628,4.3628,4.3628,4.3628,4.3628,4.3628,4.3628,4.3628,4.3628,4.3628,4.3628,4.3628,4.3628,4.3628,4.3628,4.3628,4.3628,4.3628,4.3628,4.3628,4.3628,4.3628,4.3628,4.3628,4.3628,4.3839,4.4039,4.4253,4.431,4.444,4.4587,4.4587,4.4587,4.4587,4.4587,4.4852,4.4981,4.4981,4.5918,4.6548,4.6548,4.7258,4.7717,4.7717,4.7717,4.7717,4.7717,4.7717,4.7717,4.7717,4.7717,4.7717,4.7717,4.7717,4.7717,4.7717,4.7717,4.7717,4.0382,3.9835,3.9421,4.0067,3.9752,3.9491,4.0138,3.986,3.952,3.956,3.9698,3.98,3.9935,3.9834,3.995,4.0584,0.0,4.1966,4.2589,4.4624,4.6012,4.6057,4.7228,4.8063,4.8049,4.8001,4.8001,4.8001,4.8001,4.8001,4.8001,4.8001,4.7703,4.7073,4.704,4.6742,4.6096,4.6079,4.6079,4.6079,4.6079,4.6079,4.6079,4.6079,4.6079,4.6079,4.598,4.5566,4.497,4.4771,4.4324,4.3761,4.3661,4.3628,4.3628,4.3628,4.3628,4.3628,4.3628,4.3628,4.3628,4.3628,4.3628,4.3628,4.3628,4.3628,4.3628,4.3628,4.3628,4.3628,4.3628,4.3628,4.3628,4.3628,4.3628,4.3628,4.3628,4.3628,4.3704,4.3898,4.4056,4.4155,4.431,4.4497,4.4587,4.4587,4.4587,4.4587,4.4587,4.4587,4.4587,4.4587,4.5442,4.6,4.6098,4.7017,4.7615,4.7717,4.7717,4.7717,4.7717,4.7717,4.7717,4.7717,4.7717,4.7717,4.7717,4.7717,4.7717,4.7717,4.7717,4.7717,4.0382,3.9835,3.9305,3.9437,3.9371,3.9358,3.9598,3.9584,0.0,3.9026,3.8959,3.9042,3.9191,3.9092,3.9244,3.9917,4.0551,4.1251,4.1949,4.3478,4.4934,0.0,4.6858,4.7545,4.8113,4.8179,0.0,0.0,4.8179,4.8115,4.8001,4.8001,4.7934,4.7819,4.7819,4.7752,4.762,4.762,4.762,4.762,4.762,4.762,4.762,4.762,4.762,4.7587,4.6974,0.0,4.6411,4.5185,4.4605,4.444,4.386,4.3628,4.3628,4.3628,4.3628,4.3628,4.3628,4.3628,4.3628,4.3628,4.3628,4.3628,4.3628,4.3628,4.3628,4.3628,4.3628,4.3628,4.3628,4.3628,4.3628,4.3628,4.3628,4.3628,4.3628,4.3704,4.3881,4.4056,4.4138,4.431,4.4514,4.457,4.4587,4.4587,4.4587,4.4587,4.4587,4.4587,4.4587,4.4587,4.5089,4.5597,4.6049,4.666,4.7214,4.7657,4.7717,4.7717,4.7717,4.7717,4.7717,4.7717,4.7717,4.7717,4.7717,4.7717,4.7717,4.7717,4.7717,4.7717,4.0481,4.0382,4.0299,3.9934,3.9852,3.9906,4.0014,0.0,0.0,3.8841,3.8553,3.8333,3.843,3.8702,3.9024,3.9278,4.0219,4.1157,4.1896,4.3272,4.4615,4.5706,4.6753,4.745,4.7771,4.8139,4.8356,4.8356,4.8356,4.8292,4.8115,4.8431,4.858,4.858,4.8945,4.9144,4.9144,4.9144,4.9144,4.9144,4.9144,4.9144,4.9144,4.9144,4.8945,4.8547,4.8199,4.7388,4.6262,4.5549,4.4821,4.4092,4.3761,4.3628,4.3628,4.3628,4.3628,4.3628,4.3628,4.3628,4.3628,4.3628,4.3628,4.3628,4.3628,4.3628,4.3628,4.3628,4.3628,4.3628,4.3628,4.3628,4.3727,4.4092,4.4473,4.4754,4.4754,4.4893,4.4973,4.4708,4.4783,4.4956,4.5162,4.5162,4.5297,4.5669,4.572,4.572,4.572,4.572,4.5432,4.4654,4.5284,4.58,4.6049,4.6863,4.7425,4.7657,4.7717,4.7717,4.7717,4.7717,4.7717,4.7717,4.7717,4.7717,4.7717,4.7717,4.7717,4.7717,4.7717,4.7717,4.0629,4.0812,4.0973,4.0519,4.015,4.001,4.0207,3.9344,0.0,3.85,3.8136,3.7776,3.7776,3.8357,3.8819,0.0,4.0003,4.1081,4.1805,4.3052,4.4215,0.0,4.6481,0.0,4.744,4.8128,0.0,4.8547,4.8547,4.8567,4.8525,4.8895,4.9227,4.9393,4.9906,5.022,5.022,5.022,5.022,5.022,5.022,5.022,5.022,5.022,4.9889,4.9342,4.9177,4.8117,4.6477,4.6162,4.5268,4.4075,4.391,4.3761,4.3628,4.3628,4.3628,4.3628,4.3628,4.3628,4.3628,4.3628,4.3628,4.3628,4.3628,4.3628,4.3628,4.3628,4.3628,4.3628,4.3628,4.3744,4.4026,4.4754,4.5367,4.5798,4.5798,4.5922,4.5896,4.5494,4.5496,4.5673,4.5882,4.594,4.6126,4.6701,4.6786,4.6786,4.6786,4.6786,4.6346,4.5179,4.5873,4.6458,4.659,4.7311,4.7825,4.7971,4.7808,4.7717,4.7717,4.7717,4.7717,4.7717,4.7717,4.7717,4.7717,4.7717,4.7717,4.7717,4.7717,4.7717,4.0793,4.0419,4.0098,4.0342,3.9388,3.8534,3.9172,0.0,3.8013,3.7617,3.7472,3.7438,3.7438,3.7729,3.8353,0.0,0.0,4.0443,4.1204,4.1999,4.3047,4.4502,0.0,0.0,4.7497,4.8315,4.8769,4.8769,4.8769,4.8992,4.9454,4.9342,4.961,5.0292,5.0222,5.022,5.022,5.022,5.022,5.022,5.022,5.022,5.022,5.022,5.0171,5.0071,4.9409,4.8995,0.0,4.7355,4.6311,4.5533,4.4854,4.4191,4.3628,4.3628,4.3628,4.3628,4.3628,4.3628,4.3628,4.3628,4.3628,4.3628,4.3628,4.3628,4.3628,4.3628,4.3628,4.3628,4.3628,4.4108,4.4771,4.5516,4.5748,4.5798,4.5798,4.5798,4.5906,4.6146,4.619,4.631,4.6625,4.6684,4.6718,4.6786,4.6786,4.6786,4.6786,4.6786,4.6735,4.6599,4.7129,4.7663,4.8136,4.8116,4.829,4.8761,4.8116,4.7717,4.7717,4.7717,4.7717,4.7717,4.7717,4.7717,4.7717,4.7717,4.7717,4.7717,4.7717,4.7717,4.059,4.0458,4.0222,4.066,3.9846,3.9098,3.9566,0.0,3.717,3.7061,3.6667,3.6313,3.6042,3.7085,3.8182,0.0,0.0,0.0,4.1895,4.2429,4.3117,4.4177,4.5348,0.0,0.0,0.0,4.8422,4.8923,4.8894,4.94,5.0517,5.0175,5.0242,5.0938,5.135,5.1512,5.1512,5.1512,5.1512,5.1512,5.1512,5.1512,5.1496,5.1048,5.0618,5.0171,4.9425,4.8597,0.0,4.7139,4.646,4.5765,4.5467,4.4903,4.4257,4.4257,4.3992,4.3628,4.3628,4.3628,4.3628,4.3628,4.3628,4.3628,4.3628,4.3628,4.3628,4.3628,4.3628,4.3628,4.3628,4.4489,4.5433,4.5715,4.6477,4.7123,4.7123,4.7187,4.7165,4.6982,4.7021,4.7127,4.7402,4.7462,4.7614,4.8054,4.8122,4.8122,4.8122,4.8122,4.8122,4.8122,4.8075,4.819,4.8398,4.896,4.9406,4.9619,4.8876,4.8442,4.8442,4.7971,4.7717,4.7717,4.7717,4.7717,4.7717,4.7717,4.7717,4.7717,4.7717,4.7971,4.0002,4.0158,4.0134,4.0522,3.9628,3.8684,0.0,0.0,3.6159,3.6274,3.5872,3.5498,3.5475,3.6654,3.7942,0.0,0.0,4.0771,4.2068,4.2601,4.3091,4.37,0.0,4.6045,0.0,4.7665,4.8443,4.8968,4.9168,4.9773,5.0968,5.1095,5.1327,5.1772,5.2233,5.2445,5.2373,5.2373,5.2274,5.2042,5.2042,5.1943,5.1711,5.1197,5.0684,5.0171,4.9425,4.8514,0.0,4.7322,4.6792,4.6129,4.6129,4.5665,4.5019,4.5019,4.4556,4.3943,4.3943,4.3794,4.3628,4.3628,4.3628,4.3628,4.3628,4.3628,4.3628,4.3628,4.3628,4.3678,4.3893,4.487,4.5847,4.6063,4.709,4.8001,4.8001,4.8115,4.8077,4.7768,4.7855,4.804,4.8179,4.824,4.8409,4.8934,4.9001,4.9001,4.9001,4.9001,4.9001,4.9001,4.8907,4.8925,4.9082,4.9937,5.0434,5.0434,4.9691,4.9257,4.9257,4.8496,4.8061,4.8061,4.7826,4.7717,4.7717,4.7717,4.7826,4.8061,4.8061,4.8496,3.8936,3.9258,3.9392,3.971,3.8122,3.6568,0.0,3.6095,3.503,3.5081,3.5116,3.5348,3.6132,3.6564,3.7488,3.9459,0.0,0.0,4.1394,4.2121,4.2725,0.0,0.0,4.6239,4.675,4.8122,4.9001,4.9001,4.9555,0.0,5.0704,5.2021,5.2787,5.2905,5.2694,5.2499,5.2373,5.2373,5.2009,5.128,5.128,5.0916,5.0237,5.022,5.022,5.0171,4.9425,4.9094,0.0,4.8299,4.7554,4.6891,4.6891,4.6444,4.5781,4.5781,4.5317,4.4671,4.4671,4.4208,4.3628,4.3628,4.3628,4.3628,4.3628,4.3628,4.3628,4.3628,4.3628,4.3794,4.4489,4.5235,4.598,4.6709,4.7454,4.8001,4.8001,4.8115,4.8292,4.8467,4.8627,4.8832,4.9001,4.8984,4.9001,4.9001,4.9001,4.9001,4.9001,4.9001,4.9001,4.9001,4.9538,5.0124,5.0608,5.1065,5.1285,5.1285,5.0524,5.0071,5.0071,4.9311,4.8894,4.8894,4.8116,4.7717,4.7717,4.7717,4.8116,4.8894,4.8894,4.9329,3.7095,3.7004,3.6736,3.7648,3.6827,3.5882,3.6193,3.5468,3.4731,3.4745,3.4745,3.4753,3.4722,3.5933,3.722,3.8076,3.9475,0.0,0.0,0.0,0.0,4.3923,4.5817,4.7133,0.0,0.0,4.9001,4.9001,4.9168,4.9778,5.0858,5.0794,5.1553,5.3307,5.3295,5.3186,5.2963,5.2405,5.1936,5.1539,5.1539,5.1355,5.1119,5.0659,5.0422,5.0371,4.9627,4.9289,4.9272,4.9035,4.863,4.8115,4.8115,4.7491,4.6543,4.6543,4.5765,4.4688,4.4688,4.4224,4.3628,4.3628,4.3628,4.3628,4.3628,4.3628,4.3628,4.3628,4.3628,4.3678,4.391,4.4489,4.5218,4.5963,4.6709,4.7388,4.7998,4.8163,4.8292,4.8644,4.8769,4.8832,4.8956,4.9001,4.9001,4.9001,4.9001,4.9001,4.9001,4.9001,4.9001,4.9001,4.9555,5.0142,5.0626,5.12,5.167,5.21,5.1357,5.0904,5.0904,5.0144,4.9709,4.9709,4.9456,4.9329,4.9329,4.9329,4.9456,4.9727,5.0271,5.0669,0.0,3.5377,3.5317,3.6372,3.591,0.0,0.0,3.4733,3.4154,3.4154,3.4154,3.4153,3.4221,3.5497,3.6805,3.763,3.9319,4.08,0.0,0.0,0.0,4.4641,0.0,0.0,0.0,4.883,4.933,4.9622,4.9539,4.986,5.0739,5.0521,5.1122,5.2677,5.2774,5.2681,5.246,5.2227,5.1899,5.1353,5.1353,5.1155,5.0741,5.0264,5.0059,5.0086,4.9607,4.9402,0.0,4.9402,4.9239,4.8934,4.8934,4.8478,4.7826,4.7826,4.6904,4.563,4.545,4.4723,4.3848,4.3687,4.3628,4.3628,4.3628,4.3628,4.3628,4.3628,4.3628,4.3628,4.3628,4.4158,4.4804,4.5268,4.5947,4.6739,4.7614,4.7828,4.8102,4.8656,4.8832,4.8894,4.9001,4.9001,4.9001,4.9001,4.9001,4.9001,4.9001,4.9001,4.9001,4.9001,4.9333,4.9756,5.0331,5.1122,5.1835,5.2452,5.2027,5.1737,5.1737,5.0977,5.0542,5.0542,5.0234,5.009,5.009,5.0397,5.0542,5.056,5.1375,5.1737,0.0,3.4173,3.4767,3.5572,3.5114,3.4443,0.0,0.0,0.0,3.3393,3.3393,3.3647,3.4461,3.5276,3.6345,3.7938,3.9496,4.08,0.0,4.2484,0.0,0.0,4.6422,0.0,4.8971,4.9288,4.9714,5.0487,5.0376,5.0285,5.0285,5.0764,5.1058,5.1122,5.1228,5.1298,5.1158,5.1859,5.1761,5.0863,5.0863,5.0359,4.9538,4.9538,4.9538,0.0,4.9538,4.9538,4.9538,4.9538,4.9462,4.9462,4.9462,4.9402,4.9402,4.9291,4.837,4.7084,4.6532,4.5471,4.4196,4.373,4.3628,4.3628,4.3628,4.3628,4.3628,4.3628,4.3628,4.3628,4.3628,4.4125,4.4622,4.4671,4.5202,4.5976,4.6945,4.722,4.7608,4.8551,4.881,4.8951,4.9001,4.9001,4.9001,4.9001,4.9001,4.9001,4.9001,4.9001,4.9001,4.9001,4.9001,4.9212,4.9832,5.0911,5.1768,5.2387,5.2498,5.2498,5.2498,5.1774,5.1375,5.1375,5.0633,5.0253,5.0253,5.1013,5.1375,5.1393,5.2136,5.2498,3.1267,0.0,3.2316,3.2399,3.2711,3.2958,0.0,0.0,0.0,0.0,0.0,3.3647,3.4461,3.5276,3.6345,3.7938,3.9496,4.08,4.1615,0.0,0.0,4.4749,4.6577,4.7933,4.8253,4.8511,4.875,4.8942,4.8889,4.9038,4.9465,4.9037,4.8982,4.9474,4.9469,4.999,5.0976,5.0535,5.0335,5.0295,5.0295,5.038,5.0582,5.0582,5.0582,5.0582,5.0582,5.0582,5.0582,5.0582,5.0324,4.993,4.993,4.9698,4.9274,4.8352,4.7436,4.6515,4.5484,4.4537,4.3747,4.3628,4.3628,4.3628,4.3628,4.3628,4.3628,4.3628,4.3628,4.3628,4.3628,4.3744,4.4009,4.4556,4.4821,4.5275,4.6269,4.6558,4.6837,4.7916,4.8112,4.8359,4.89,4.9001,4.9001,4.9001,4.9001,4.9001,4.9001,4.9001,4.9001,4.9001,4.9001,4.9212,4.9832,5.0497,5.1157,5.1768,5.2209,5.2498,5.2498,5.2317,5.2208,5.2208,5.2027,5.1937,5.1937,5.2118,5.2208,5.2208,5.2408,5.2498,3.0227,3.0721,3.1145,3.1463,3.1789,3.2085,0.0,0.0,0.0,0.0,0.0,3.3647,3.4461,3.5276,3.6345,3.7938,3.9496,0.0,0.0,0.0,4.521,4.4946,4.6665,4.803,0.0,4.8543,4.8793,4.915,4.8847,4.8746,4.9026,4.8317,4.7993,4.8369,4.8369,4.8862,4.9956,4.9929,4.9909,4.9911,4.9763,4.9794,4.9978,5.0224,5.0329,5.0364,5.0733,5.0891,5.0891,5.0891,5.0747,5.0401,5.009,4.9768,4.9383,4.8397,4.7584,4.6807,4.5949,4.4882,4.3906,4.3687,4.3628,4.3628,4.3628,4.3628,4.3628,4.3628,4.3628,4.3628,4.3628,4.3628,4.3727,4.4108,4.4208,4.4467,4.5517,4.5728,4.6066,4.7046,4.7622,4.8054,4.8443,4.8781,4.9001,4.9001,4.9001,4.9001,4.9001,4.9001,4.9001,4.9001,4.9001,4.9107,4.9436,5.022,5.0982,5.1551,5.2162,5.2498,5.2498,5.2498,5.2498,5.2498,5.2498,5.2498,5.2498,5.2498,5.2498,5.2498,5.2498,5.2498,2.9738,3.0055,3.0583,3.1272,3.1496,3.1697,3.2239,0.0,0.0,0.0,0.0,0.0,0.0,3.5439,0.0,0.0,0.0,0.0,4.2701,4.4277,4.5291,4.5291,4.6721,0.0,4.8659,4.8731,4.9003,4.9673,4.9112,4.8731,4.8731,4.8079,4.7717,4.7717,4.7717,4.8043,4.8731,4.9383,4.9649,4.9531,4.9299,4.9066,4.8912,4.9361,4.9556,4.9556,0.0,0.0,5.0522,5.0522,5.0522,5.0469,4.9767,4.9504,4.9416,4.8557,4.7821,4.721,4.6621,4.5511,4.4236,4.3848,4.3687,4.3628,4.3628,4.3628,4.3628,4.3628,4.3628,4.3628,4.3628,4.3628,4.3628,4.3628,4.3628,4.3853,4.4664,4.4959,4.5295,4.6195,4.7005,4.7648,4.7885,4.8426,4.8883,4.8984,4.9001,4.9001,4.9001,4.9001,4.9001,4.9001,4.9001,4.9001,4.9001,5.005,5.0929,5.1432,5.2114,5.2498,5.2498,5.2498,5.2498,5.2498,5.2498,5.2498,5.2498,5.2498,5.2498,5.2498,5.2498,5.2498,2.9738,2.9683,2.9681,2.9749,3.0767,3.1741,3.1721,0.0,0.0,0.0,0.0,0.0,0.0,3.6272,3.754,0.0,0.0,4.2611,0.0,0.0,4.5291,4.5291,0.0,4.7753,4.788,4.7898,4.7953,4.8061,4.7953,4.7898,4.7898,4.7772,4.7717,4.7717,4.7717,4.7772,4.7898,4.8025,4.8276,4.8677,4.8631,4.874,4.8894,4.8968,4.8937,4.8784,0.0,4.8924,4.8889,4.8889,4.8889,4.8872,4.8749,4.8696,4.8557,4.7387,4.6899,4.6655,4.5574,4.481,4.431,4.4253,4.3906,4.3628,4.3628,4.3628,4.3628,4.3628,4.3628,4.3628,4.3628,4.3628,4.3628,4.3628,4.3628,4.3721,4.4131,4.4265,4.4598,4.5604,4.5957,4.6447,4.7699,4.8003,4.8291,4.8917,4.9001,4.9001,4.9001,4.9001,4.9001,4.9001,4.9001,4.9001,4.9001,5.005,5.0751,5.0805,5.1866,5.2498,5.2498,5.2498,5.2498,5.2498,5.2498,5.2498,5.2498,5.2498,5.2498,5.2498,5.2498,5.2498,2.9841,2.977,2.9775,3.0036,3.0544,3.1076,3.1385,0.0,0.0,0.0,0.0,0.0,0.0,0.0,3.8409,4.0782,0.0,4.2882,4.2882,4.4277,4.5291,0.0,0.0,4.7717,4.7717,4.7717,4.7717,4.7717,4.7717,4.7717,4.7717,4.7717,4.7717,4.7717,4.7717,4.7717,4.7717,4.7717,4.7813,4.8089,4.7921,4.7831,4.7879,4.8179,4.8194,4.7977,0.0,4.8573,4.8521,4.8521,4.8521,4.8486,4.8064,4.7906,4.7768,4.6809,4.6428,4.6307,4.5528,4.5142,4.4944,4.4708,4.4333,4.3964,4.3964,4.3964,4.3906,4.3687,4.3628,4.3628,4.3628,4.3628,4.3628,4.3628,4.3628,4.3687,4.3939,4.4056,4.4255,4.4822,4.5358,4.5923,4.6599,4.7394,4.8037,4.8359,4.8748,4.9001,4.9001,4.9001,4.9001,4.9001,4.9273,4.9513,4.9513,5.0515,5.1312,5.1651,5.2209,5.2498,5.2498,5.2498,5.2498,5.2498,5.2498,5.2498,5.2498,5.2498,5.2498,5.2498,5.2498,5.2498,2.9937,2.9872,2.9993,3.0603,0.0,3.0868,3.1513,0.0,0.0,0.0,0.0,0.0,0.0,3.831,0.0,4.1506,4.2412,4.2882,4.2882,4.4114,4.5091,4.5273,4.6558,4.75,4.7681,4.7717,4.7717,4.7717,4.7717,4.7717,4.7717,4.7717,4.7717,4.7717,4.7717,4.7717,4.7717,4.7717,4.7717,4.7717,4.7511,4.7276,4.7088,4.7482,4.7558,4.735,4.7867,4.8113,4.8078,4.7977,4.7977,4.7924,4.7345,4.7116,4.7046,4.6449,4.6172,4.6172,4.5854,4.5701,4.5529,4.5178,4.4763,4.4446,4.4446,4.435,4.4236,4.4006,4.3848,4.373,4.3628,4.3628,4.3628,4.3628,4.3628,4.3645,4.3839,4.3998,4.4155,4.4253,4.4913,4.55,4.5669,4.665,4.7462,4.7631,4.8274,4.8748,4.8748,4.89,4.9001,4.9001,4.9555,5.0005,5.0272,5.1122,5.1835,5.2452,5.2498,5.2498,5.2498,5.2498,5.2498,5.2498,5.2498,5.2498,5.2498,5.2498,5.2498,5.2498,5.2498,5.2498,2.9937,2.9805,2.9906,3.0678,0.0,0.0,3.2563,3.3891,0.0,0.0,0.0,0.0,0.0,4.0302,4.1876,4.2059,4.2541,4.2882,4.2882,0.0,4.4458,4.52,4.6069,4.6884,4.7645,4.7717,4.7717,4.7717,4.7717,4.7717,4.7717,4.7717,4.7717,4.7717,4.7717,4.7717,4.7717,4.7717,4.7717,4.7717,4.7657,4.7511,4.7276,4.733,4.7232,4.7023,4.6844,4.6749,4.6719,4.6477,4.6347,4.633,4.6277,4.6259,4.6309,4.6189,4.6172,4.6189,4.6172,4.5905,4.558,4.558,4.5249,4.4855,4.4855,4.4614,4.435,4.4691,4.4558,4.4138,4.373,4.3628,4.3628,4.3628,4.3628,4.3645,4.3839,4.3998,4.4155,4.4253,4.4491,4.4891,4.5585,4.5788,4.6092,4.6769,4.7513,4.8003,4.8003,4.8595,4.9001,4.9001,4.9555,5.0328,5.1398,5.1551,5.1835,5.2452,5.2498,5.2498,5.2498,5.2498,5.2498,5.2498,5.2498,5.2498,5.2498,5.2498,5.2498,5.2498,5.2498,5.2498,3.0113,3.0352,3.0804,3.1543,0.0,0.0,0.0,0.0,0.0,0.0,0.0,0.0,0.0,0.0,4.2463,4.2789,4.3031,4.3105,4.292,4.3588,4.4204,4.4512,4.5254,4.6069,4.6884,4.6957,4.7174,4.7663,4.7717,4.7717,4.7717,4.7717,4.7717,4.7717,4.7717,4.7717,4.7717,4.7717,4.7717,4.7717,4.7717,4.7554,4.7302,4.7302,4.7187,4.698,4.6888,4.6842,4.6842,4.6542,4.6447,4.6447,4.627,4.6172,4.6172,4.6172,4.6172,4.6172,4.6172,4.6122,4.5955,4.5955,4.5684,4.5354,4.5354,4.5213,4.5106,4.4964,4.4981,4.4944,4.4236,4.4023,4.3964,4.3687,4.3628,4.3645,4.3839,4.3998,4.4155,4.4253,4.444,4.4671,4.4959,4.5399,4.5788,4.6075,4.6735,4.7394,4.7851,4.8156,4.8494,4.8951,4.9855,5.0682,5.1365,5.1874,5.2275,5.2498,5.2498,5.2498,5.2498,5.2498,5.2498,5.2498,5.2498,5.2498,5.2498,5.2498,5.2498,5.2498,5.2498,5.2498,3.0176,3.0646,3.1312,0.0,0.0,0.0,0.0,0.0,0.0,0.0,3.8903,0.0,0.0,0.0,0.0,0.0,4.3477,4.3373,4.316,4.3541,4.394,4.4213,4.4663,4.5236,4.6051,4.6124,4.6359,4.6902,4.6939,4.6939,4.6939,4.6939,4.6939,4.6939,4.6939,4.6939,4.6939,4.6939,4.6939,4.6939,4.6939,4.7108,4.7425,4.7425,4.7338,4.7223,4.7116,4.7116,4.707,4.6842,4.6749,4.6684,4.6416,4.6319,4.6319,4.6221,4.6172,4.6172,4.6172,4.6172,4.6172,4.6172,4.6005,4.5803,4.5803,4.5701,4.558,4.5354,4.5459,4.5477,4.4889,4.4614,4.4446,4.4202,4.4006,4.3964,4.4196,4.4196,4.4196,4.431,4.444,4.4587,4.4587,4.501,4.5388,4.5524,4.6226,4.6907,4.7418,4.7631,4.8014,4.8507,4.9396,5.0289,5.0991,5.1682,5.2226,5.248,5.2498,5.2498,5.2498,5.2498,5.2498,5.2498,5.2498,5.2498,5.2498,5.2498,5.2498,5.2498,5.2498,5.2498,3.0102,3.0549,0.0,0.0,0.0,0.0,0.0,0.0,0.0,0.0,0.0,4.2996,4.3267,0.0,0.0,4.4091,4.3873,4.3712,4.3712,4.3477,4.3595,4.4419,4.4269,4.4403,4.5218,4.5291,4.5291,4.5291,4.5291,4.5291,4.5291,4.5291,4.5291,4.5291,4.5291,4.5291,4.5291,4.5291,4.5291,4.5291,4.5291,4.6142,4.7681,4.7681,4.7681,4.7639,4.7389,4.7284,4.7284,4.7035,4.6962,4.6962,4.6666,4.6572,4.6572,4.6301,4.6204,4.6154,4.6154,4.6154,4.6221,4.6221,4.6172,4.6172,4.6172,4.5905,4.5701,4.6073,4.5905,4.558,4.558,4.5249,4.4964,4.525,4.491,4.4614,4.4855,4.4614,4.4293,4.4293,4.444,4.4643,4.4587,4.4587,4.4759,4.5214,4.5992,4.6473,4.6473,4.7128,4.7614,4.76,4.8085,4.897,5.0334,5.1002,5.1629,5.2426,5.248,5.248,5.2498,5.2498,5.2498,5.2498,5.2498,5.2498,5.2498,5.2498,5.2498,5.2498,5.2498,5.2498,3.0176,3.1048,0.0,3.2439,0.0,0.0,0.0,0.0,0.0,0.0,0.0,4.339,4.4018,0.0,0.0,4.414,4.403,4.3905,4.3712,4.3612,4.3671,4.391,4.3879,4.4121,4.4965,4.4839,4.4965,4.5548,4.5409,4.5291,4.5291,4.5291,4.5291,4.5291,4.5291,4.5291,4.5291,4.5291,4.5291,4.5291,4.5291,4.5544,4.6015,4.6015,4.6015,4.6015,4.5915,4.5915,4.5874,4.5648,4.5434,4.532,4.5214,4.5098,4.4997,4.4905,4.4747,4.4589,4.4589,4.4957,4.5431,4.5431,4.58,4.6172,4.6172,4.6122,4.6073,4.6172,4.6122,4.6023,4.6023,4.5905,4.5735,4.5372,4.5161,4.5161,4.5407,4.5459,4.5303,4.4964,4.4964,4.4998,4.4682,4.4587,4.4759,4.5214,4.524,4.5358,4.5903,4.6601,4.6954,4.6835,4.7788,4.8479,4.8817,4.9802,5.0796,5.1611,5.1647,5.19,5.248,5.2498,5.2498,5.2498,5.2498,5.2498,5.2498,5.2498,5.2498,5.2498,5.2498,5.2498,3.0418,0.0,0.0,3.2807,3.4824,3.6849,3.7429,0.0,0.0,0.0,0.0,4.3933,4.4421,4.4515,0.0,4.4277,4.4277,4.4199,4.4048,4.3923,4.3873,4.3873,4.3744,4.3896,4.4395,4.4281,4.4378,4.4874,4.4766,4.4656,4.4656,4.4656,4.4637,4.4524,4.4524,4.4447,4.4349,4.4349,4.4349,4.4349,4.4349,4.4349,4.4367,4.5001,4.5291,4.5291,4.5291,4.5291,4.5309,4.5111,4.4988,4.4881,4.4778,4.4624,4.4423,4.4423,4.418,4.3904,4.3997,4.4314,4.4624,4.4624,4.4922,4.5361,4.5677,4.5782,4.5835,4.6102,4.6172,4.6172,4.6172,4.627,4.6253,4.5903,4.5734,4.5734,4.5968,4.6,4.59,4.5563,4.5407,4.5214,4.4944,4.472,4.4814,4.5511,4.558,4.5632,4.5831,4.6075,4.6178,4.6042,4.6882,4.7632,4.8057,4.9046,4.9963,5.076,5.0814,5.1031,5.152,5.2154,5.2498,5.2498,5.2498,5.2498,5.2498,5.2498,5.2498,5.2498,5.2498,5.2498,3.0788,0.0,0.0,3.3173,3.5063,0.0,3.8811,4.0261,4.1364,4.1873,0.0,4.4515,4.4515,4.4515,4.4515,4.4515,4.4515,4.4515,4.4515,4.4306,4.414,4.414,4.3905,4.3777,4.3777,4.3744,4.3744,4.3744,4.3712,4.3712,4.3712,4.3712,4.3579,4.3338,4.3338,4.3232,4.2995,4.2957,4.2957,4.2957,4.2957,4.2957,4.2974,4.4403,4.5073,4.5073,4.5073,4.5073,4.5073,4.5073,4.5073,4.5073,4.4795,4.4588,4.441,4.441,4.413,4.3786,4.4031,4.3994,4.3845,4.3845,4.3834,4.4044,4.4764,4.4992,4.515,4.5905,4.6084,4.6133,4.6154,4.6398,4.659,4.659,4.6447,4.6363,4.6519,4.6406,4.6213,4.6165,4.5749,4.5407,4.5303,4.4944,4.4961,4.5918,4.6501,4.666,4.6147,4.5648,4.5355,4.5355,4.585,4.6641,4.7879,4.8487,4.913,4.9927,4.9981,4.9999,5.009,5.1502,5.2317,5.2389,5.2389,5.2426,5.2498,5.2498,5.2498,5.2498,5.2498,5.2498,3.1045,3.1711,0.0,0.0,3.5113,3.7154,3.8811,3.9928,4.0878,4.1815,4.3351,4.4515,4.4515,4.4515,4.4515,4.4515,4.4515,4.4515,4.4515,4.444,4.4411,4.4411,4.4383,4.4306,4.4306,4.414,4.3999,4.3999,4.3809,4.3712,4.3712,4.3712,4.3679,4.3612,4.3612,4.3579,4.3545,4.3545,4.3545,4.3545,4.3545,4.3408,4.3214,4.3358,4.3407,4.3407,4.3407,4.3407,4.3407,4.3407,4.3407,4.3407,4.3351,4.3213,4.3032,4.3032,4.2869,4.2661,4.2703,4.2985,4.3262,4.3262,4.3532,4.3921,4.4097,4.415,4.4325,4.5115,4.5343,4.5484,4.6081,4.6398,4.659,4.659,4.6852,4.708,4.7107,4.7258,4.7214,4.6799,4.666,4.631,4.5459,4.5214,4.5214,4.5459,4.59,4.6213,4.6098,4.6,4.59,4.59,4.6406,4.6824,4.714,4.7659,4.8315,4.9112,4.9166,4.9438,5.0053,5.0416,5.0904,5.1538,5.1556,5.1864,5.2498,5.2498,5.2498,5.2498,5.2498,5.2498,0.0,0.0,0.0,3.4724,0.0,3.7403,3.9077,4.0121,4.0885,4.14,4.2795,4.4045,4.4439,4.4515,4.4515,4.4515,4.4515,4.4515,4.4515,4.4515,4.4515,4.4515,4.4515,4.4515,4.4515,4.4364,4.4306,4.4306,4.417,4.4079,4.4079,4.4079,4.4017,4.3905,4.3873,4.3841,4.3712,4.3712,4.3712,4.3712,4.3712,4.3545,4.3303,4.3032,4.2882,4.2882,4.2882,4.2882,4.2882,4.2882,4.2882,4.2882,4.2882,4.2786,4.2609,4.2709,4.257,4.2328,4.2409,4.2537,4.2725,4.2725,4.2819,4.3031,4.3419,4.3452,4.3535,4.4308,4.4518,4.4711,4.5484,4.5852,4.6112,4.6501,4.6944,4.7302,4.7302,4.7511,4.7615,4.7363,4.7062,4.6707,4.6165,4.6067,4.6067,4.6067,4.6501,4.6753,4.6519,4.6501,4.6501,4.6501,4.6753,4.6999,4.7258,4.7554,4.788,4.8315,4.8333,4.8514,4.8931,4.8949,4.951,5.0687,5.1086,5.1502,5.1919,5.2299,5.2498,5.2498,5.2498,5.2498,0.0,0.0,3.3002,3.6122,3.7099,0.0,3.9146,4.022,4.0908,4.1005,4.2128,4.3359,4.4158,4.4289,4.4346,4.4496,4.4515,4.4515,4.4515,4.4515,4.4515,4.4515,4.4515,4.4515,4.4515,4.4515,4.4515,4.4515,4.4515,4.4515,4.4515,4.4515,4.4411,4.417,4.417,4.406,4.3841,4.3841,4.3841,4.3841,4.3777,4.3646,4.3442,4.3124,4.2957,4.2882,4.2882,4.2882,4.2882,4.2882,4.2882,4.2882,4.2882,4.2786,4.267,4.2862,4.2709,4.245,4.2591,4.253,4.2369,4.2369,4.2187,4.2083,4.2739,4.2794,4.2791,4.3529,4.3757,4.3886,4.4741,4.5105,4.5414,4.6117,4.6624,4.7021,4.7248,4.7511,4.7717,4.7717,4.7258,4.6908,4.6908,4.6799,4.6799,4.6908,4.7258,4.7468,4.7107,4.7062,4.7062,4.7062,4.7062,4.7214,4.7657,4.7717,4.7717,4.7717,4.7717,4.7717,4.7717,4.7717,4.8333,4.9655,5.047,5.0941,5.1086,5.19,5.2281,5.2299,5.2426,5.2498,0.0,0.0,3.3747,0.0,3.6704,3.7546,0.0,0.0,4.0249,0.0,4.176,4.258,4.3321,4.3463,4.3688,4.4402,4.4515,4.4515,4.4515,4.4515,4.4515,4.4515,4.4515,4.4515,4.4515,4.4515,4.4515,4.4515,4.4515,4.4515,4.4515,4.4515,4.4487,4.444,4.444,4.444,4.4383,4.4383,4.4383,4.4383,4.417,4.403,4.3968,4.3458,4.3142,4.2882,4.2882,4.2882,4.2882,4.2882,4.2882,4.2882,4.2882,4.2882,4.2844,4.2882,4.2844,4.2806,4.2844,4.2747,4.257,4.257,4.2409,4.2264,4.2371,4.2221,4.221,4.2988,4.3057,4.3177,4.4135,4.4583,4.4785,4.5047,4.5335,4.5915,4.7057,4.7511,4.7717,4.7717,4.7258,4.6908,4.6908,4.6501,4.6358,4.6817,4.6954,4.7151,4.7554,4.7597,4.7597,4.7597,4.7597,4.7615,4.7699,4.7717,4.7717,4.7717,4.7717,4.7717,4.7717,4.7717,4.7808,4.8025,4.8822,4.9564,5.0253,5.1049,5.1448,5.1466,5.2172,5.2498,3.1074,3.2012,3.3202,0.0,3.5894,3.6944,3.8291,0.0,3.9502,4.0376,4.0808,4.1363,4.2467,4.2686,4.2923,4.3688,4.3839,4.3989,4.4458,4.4515,4.4515,4.4515,4.4515,4.4515,4.4515,4.4515,4.4515,4.4515,4.4515,4.4515,4.4515,4.4515,4.4515,4.4515,4.4515,4.4515,4.4515,4.4515,4.4515,4.4515,4.4383,4.4248,4.4091,4.3873,4.3526,4.3142,4.2957,4.2882,4.2882,4.2882,4.2882,4.2882,4.2882,4.2882,4.2882,4.2882,4.2882,4.2882,4.2882,4.2844,4.2786,4.2786,4.2631,4.249,4.249,4.2328,4.2174,4.2384,4.2361,4.2511,4.3395,4.3704,4.3924,4.4737,4.5011,4.5292,4.6013,4.662,4.7174,4.7627,4.7511,4.7363,4.7363,4.7151,4.7062,4.7302,4.7363,4.7407,4.7657,4.7717,4.7717,4.7717,4.7717,4.7717,4.7717,4.7717,4.7717,4.7717,4.7717,4.7717,4.7717,4.7717,4.7916,4.8369,4.9166,4.9745,5.009,5.1357,5.1973,5.1973,5.2335,5.2498,0.0,0.0,3.2411,3.3953,3.5051,3.6174,0.0,0.0,3.8766,0.0,3.9833,4.021,4.1453,4.1817,4.214,4.2904,4.3028,4.3208,4.3801,4.4064,4.4214,4.4214,4.4383,4.4515,4.4515,4.4515,4.4515,4.4515,4.4515,4.4515,4.4515,4.4515,4.4515,4.4515,4.4515,4.4515,4.4515,4.4515,4.4515,4.4515,4.4515,4.4411,4.4199,4.414,4.3873,4.3458,4.316,4.2995,4.2995,4.292,4.2882,4.2882,4.2882,4.2882,4.2882,4.2882,4.2882,4.2882,4.2882,4.2882,4.2882,4.2882,4.2786,4.2688,4.2688,4.253,4.2328,4.2145,4.2044,4.2143,4.2814,4.2974,4.3202,4.4191,4.4399,4.4566,4.516,4.578,4.6432,4.7246,4.7409,4.7464,4.7663,4.7717,4.7717,4.7717,4.7717,4.7717,4.7717,4.7717,4.7717,4.7717,4.7717,4.7717,4.7717,4.7717,4.7717,4.7717,4.7717,4.7717,4.7717,4.7916,4.8297,4.8912,4.989,5.0289,5.009,5.1502,5.219,5.219,5.2389,5.2498,0.0,3.1367,0.0,3.3204,0.0,0.0,0.0,0.0,3.7999,3.8878,3.905,3.9299,4.0078,4.0713,4.1396,4.2146,4.2272,4.2222,4.213,4.2844,4.3351,4.3351,4.4045,4.4515,4.4515,4.4515,4.4515,4.4515,4.4515,4.4515,4.4515,4.4515,4.4515,4.4515,4.4515,4.4515,4.4515,4.4515,4.4515,4.4515,4.4515,4.4487,4.4468,4.4199,4.4091,4.403,4.3511,4.3267,4.3267,4.2995,4.2882,4.2882,4.2882,4.2882,4.2882,4.2882,4.2882,4.2882,4.2882,4.2882,4.2882,4.2882,4.2882,4.2882,4.2882,4.2747,4.257,4.257,4.245,4.2328,4.2584,4.2624,4.2663,4.2915,4.3009,4.3425,4.4965,4.5327,4.5599,4.6413,4.6558,4.6812,4.7572,4.7717,4.7717,4.7717,4.7717,4.7717,4.7717,4.7717,4.7717,4.7717,4.7717,4.7717,4.7717,4.7717,4.7717,4.7717,4.7717,4.7717,4.7717,4.8442,4.8876,4.8912,5.0434,5.085,5.009,5.0941,5.1357,5.1375,5.2136,5.2498,0.0,0.0,0.0,3.1963,3.3142,3.4414,3.5305,3.6158,3.7069,3.7981,3.861,3.9069,3.9338,3.9983,4.0696,4.1377,4.1487,4.1628,4.2071,4.2385,4.2547,4.2468,4.2731,4.3125,4.3688,4.3726,4.3951,4.4477,4.4515,4.4515,4.4515,4.4515,4.4515,4.4515,4.4515,4.4515,4.4515,4.4515,4.4515,4.4515,4.4515,4.4515,4.4515,4.4411,4.4383,4.4335,4.3968,4.3612,4.3303,4.3214,4.3069,4.2882,4.2882,4.2882,4.2882,4.2882,4.2882,4.2882,4.2882,4.2882,4.2882,4.2882,4.2882,4.2882,4.2882,4.2844,4.2786,4.2649,4.257,4.253,4.257,4.2609,4.2631,4.2844,4.2882,4.3045,4.3625,4.4168,4.4765,4.5562,4.616,4.6595,4.6884,4.7373,4.7717,4.7717,4.7717,4.7717,4.7717,4.7717,4.7717,4.7717,4.7717,4.7717,4.7717,4.7717,4.7717,4.7717,4.7717,4.7717,4.7717,4.8478,4.9148,4.9655,5.0741,5.1158,5.085,5.1665,5.2063,5.2063,5.2371,5.2498,3.0411,0.0,0.0,0.0,0.0,3.327,3.4407,0.0,3.5867,3.7045,3.7769,3.8247,3.8514,3.8956,3.9603,4.0602,4.0751,4.0915,4.1297,4.1593,4.1732,4.1605,4.1822,4.2243,4.2806,4.2862,4.3088,4.3632,4.367,0.0,4.367,4.367,4.3801,4.4102,4.4364,4.4515,4.4515,4.4515,4.4515,4.4515,4.4515,4.4515,4.4515,4.4515,4.4515,4.4487,4.4306,4.3968,4.356,4.3477,4.3338,4.316,4.3069,4.3032,4.3032,4.292,4.2882,4.2882,4.2882,4.2882,4.2882,4.2882,4.2882,4.2882,4.2882,4.2882,4.2882,4.2747,4.2709,4.2709,4.2709,4.2709,4.2747,4.2844,4.2882,4.2882,4.2882,4.3317,4.3932,4.4729,4.5327,4.587,4.6413,4.6939,4.7391,4.7663,4.7717,4.7717,4.7717,4.7717,4.7717,4.7717,4.7717,4.7717,4.7717,4.7717,4.7717,4.7717,4.7717,4.7717,4.7717,4.8731,4.9546,5.0071,5.1158,5.1701,5.1701,5.2226,5.2498,5.2498,5.2498,5.2498,0.0,0.0,0.0,0.0,0.0,0.0,3.3394,0.0,3.4445,3.6088,3.647,3.6738,3.7521,3.7674,3.8211,3.9755,4.0059,3.9977,3.9739,4.0429,4.0909,4.0785,4.1454,4.1935,4.1954,4.1954,4.1954,4.1991,4.1991,4.1991,4.1991,4.1991,4.2393,4.3219,4.4026,4.4439,4.4439,4.4458,4.4477,4.4477,4.4496,4.4515,4.4515,4.4515,4.4515,4.4515,4.4477,4.4317,4.4072,4.3791,4.3712,4.3679,4.3408,4.3303,4.3267,4.3032,4.292,4.292,4.292,4.292,4.2882,4.2882,4.2882,4.2882,4.2882,4.2882,4.2882,4.2882,4.2882,4.2882,4.2882,4.2882,4.2882,4.2882,4.2882,4.2882,4.2882,4.2882,4.3118,4.3896,4.4077,4.4603,4.6196,4.6486,4.6776,4.7591,4.7717,4.7717,4.7717,4.7717,4.7717,4.7717,4.7717,4.7717,4.7717,4.7717,4.7717,4.7717,4.7717,4.7717,4.7717,4.922,5.0071,5.009,5.1647,5.248,5.2498,5.2498,5.2498,5.2498,5.2498,5.2498,3.0661,0.0,0.0,0.0,0.0,0.0,0.0,0.0,3.4174,3.4614,3.5668,3.6585,3.6795,3.7311,3.7829,3.8233,3.8784,3.9314,3.9772,3.9966,4.0024,3.994,4.0121,4.0478,4.1079,4.1135,4.1379,0.0,4.1991,4.1991,4.1991,4.1991,4.2104,4.2355,4.26,4.2712,4.2712,4.3332,4.3632,4.3632,4.4233,4.4515,4.4515,4.4515,4.4515,4.4477,4.3876,4.3605,4.354,4.3867,4.3873,4.3679,4.3612,4.3579,4.3579,4.3511,4.3373,4.3196,4.3196,4.305,4.2882,4.2882,4.2882,4.2882,4.2882,4.2882,4.2882,4.2882,4.2882,4.2882,4.2882,4.2882,4.2882,4.2882,4.2882,4.2882,4.2882,4.2882,4.2955,4.3172,4.3697,4.4421,4.5454,4.6106,4.6776,4.7591,4.7717,4.7717,4.7717,4.7717,4.7717,4.7717,4.7717,4.7717,4.7717,4.7717,4.7717,4.7717,4.7717,4.7717,4.7717,4.8695,4.951,5.0071,5.1104,5.1919,5.2498,5.2498,5.2498,5.2498,5.2498,5.2498,0.0,0.0,0.0,0.0,0.0,0.0,3.1527,3.2365,3.3125,0.0,3.4522,3.5458,3.5458,3.6107,3.6759,3.7088,3.7452,3.7962,3.8712,3.8738,3.8803,3.9038,3.9051,3.937,4.0215,4.029,4.0478,4.0966,4.1004,4.1004,4.1004,4.1323,4.1511,4.1511,4.183,4.1991,4.1991,4.2506,4.2769,4.2769,4.3238,4.3482,4.3482,4.3482,4.3482,4.3444,4.2956,4.2769,4.276,4.31,4.3144,4.3032,4.3274,4.336,4.3397,4.3634,4.3612,4.3442,4.3338,4.3196,4.3069,4.292,4.2882,4.2882,4.2882,4.2882,4.2882,4.2882,4.2882,4.2882,4.2882,4.2882,4.2882,4.2882,4.2882,4.2882,4.2882,4.2882,4.2882,4.2882,4.3262,4.3842,4.4657,4.5472,4.6269,4.7083,4.75,4.7717,4.7717,4.7717,4.7717,4.7717,4.7717,4.7717,4.7717,4.7717,4.7717,4.7717,4.7717,4.7717,4.7717,4.8478,4.913,4.9582,5.0705,5.1683,5.2498,5.2498,5.2498,5.248,5.2154,5.1991,0.0,0.0,0.0,0.0,0.0,0.0,3.1321,3.1546,3.1795,0.0,3.3276,3.3884,3.3884,3.4458,3.5203,3.5971,3.6006,3.6252,3.7192,3.73,3.7498,3.8117,3.8169,3.8469,3.9263,3.9339,3.9339,3.9339,3.9414,3.9483,3.9602,4.0272,4.0666,4.0666,4.136,4.1736,4.1736,4.183,4.186,4.186,4.1954,4.1991,4.1991,4.1991,4.1991,4.1991,4.1897,4.186,4.1867,4.1773,4.1822,4.2066,4.2576,4.2872,4.301,4.3484,4.3703,4.3712,4.3477,4.3373,4.3303,4.3032,4.2957,4.292,4.292,4.2882,4.2882,4.2882,4.2882,4.2882,4.2882,4.2882,4.2882,4.2882,4.2882,4.2882,4.2882,4.2882,4.2882,4.2882,4.2882,4.3154,4.3951,4.4693,4.5436,4.625,4.7065,4.7572,4.7572,4.7645,4.7717,4.7717,4.7717,4.7717,4.7717,4.7717,4.7717,4.7717,4.7717,4.7717,4.7717,4.8405,4.8822,4.8912,5.0397,5.1502,5.2226,5.2408,5.2444,5.2353,5.1629,5.1249,0.0,0.0,0.0,0.0,0.0,0.0,3.0644,3.1179,3.1703,0.0,3.2472,3.3062,3.3179,3.3308,3.3449,3.3517,3.3991,3.5069,3.7087,3.726,3.7201,3.7305,3.7324,3.7399,3.7549,3.7587,3.7587,3.7587,3.8188,3.8863,3.9564,3.9771,3.9821,3.9821,3.9971,4.0065,4.0065,4.0703,4.1041,4.1041,4.1698,4.1991,4.1991,4.1991,4.1991,4.1954,4.1323,4.1041,4.0985,4.0328,4.0835,4.201,4.2133,4.2594,4.3212,4.3334,4.3639,4.3999,4.3968,4.3809,4.3579,4.3303,4.3232,4.316,4.2957,4.2882,4.2882,4.2882,4.2882,4.2882,4.2882,4.2882,4.2882,4.2882,4.2882,4.2882,4.2882,4.2882,4.2882,4.2882,4.2882,4.3154,4.3951,4.4222,4.4603,4.5417,4.6214,4.6739,4.6739,4.7301,4.7717,4.7717,4.7717,4.7717,4.7717,4.7717,4.7717,4.7717,4.7717,4.7717,4.7717,4.7862,4.8242,4.8894,4.9836,5.0397,5.056,5.1864,5.2172,5.152,5.1357,5.0941,0.0,0.0,0.0,3.069,0.0,0.0,0.0,3.0849,3.1109,3.1022,3.1672,3.2281,3.2347,3.2713,3.2991,3.2916,3.3125,3.3716,3.4947,3.559,3.612,3.6597,3.6547,3.6671,3.7115,3.7126,3.7099,3.7099,3.7455,3.7887,3.8319,3.8732,3.8939,3.8939,3.9352,3.9602,3.9602,3.999,4.0196,4.0196,4.0609,4.0797,4.0797,4.0797,4.0797,4.0778,4.0384,4.0196,4.0159,3.9765,4.0065,4.0835,4.1248,4.168,4.2149,4.2994,4.3483,4.3735,4.399,4.3999,4.3841,4.3579,4.3511,4.3442,4.316,4.2995,4.2882,4.2882,4.2882,4.2882,4.2882,4.2882,4.2882,4.2882,4.2882,4.2882,4.2882,4.2882,4.2882,4.2882,4.2882,4.3009,4.3425,4.3824,4.424,4.4639,4.5399,4.5906,4.5906,4.6613,4.7102,4.7102,4.7464,4.7717,4.7717,4.7717,4.7717,4.7717,4.7717,4.7717,4.7717,4.7717,4.8098,4.8894,4.9311,4.9691,5.009,5.0904,5.1086,5.0687,5.0289,4.989,0.0,0.0,0.0,0.0,0.0,3.0676,0.0,0.0,0.0,3.0462,3.1002,3.1485,0.0,0.0,0.0,0.0,0.0,0.0,0.0,3.3557,0.0,3.5439,3.5337,3.5574,3.6453,3.6613,3.6712,3.6855,3.6878,3.6934,3.7103,3.7718,3.8075,3.8075,3.8901,3.9333,3.9333,3.9526,3.9602,3.9602,3.9602,3.9602,3.9602,3.9602,3.9602,3.9602,3.9602,3.9602,3.9602,3.9602,3.9602,3.9677,4.0309,4.0666,4.0966,4.2318,4.3013,4.3361,4.381,4.4039,4.414,4.3873,4.3744,4.3646,4.3442,4.3196,4.2995,4.2995,4.292,4.292,4.2957,4.292,4.292,4.2957,4.292,4.2882,4.2882,4.2882,4.2882,4.2882,4.2882,4.2882,4.2882,4.3425,4.386,4.386,4.4548,4.5073,4.5073,4.578,4.6341,4.6486,4.7083,4.7536,4.7699,4.7717,4.7717,4.7717,4.7717,4.7717,4.7717,4.7717,4.8025,4.8677,4.8677,4.9003,4.9637,4.9637,4.9709,4.9836,4.9202,4.884,0.0,0.0,0.0,0.0,3.069,0.0,0.0,0.0,3.0595,3.0586,0.0,3.074,0.0,0.0,0.0,0.0,0.0,0.0,3.0956,3.2107,3.3039,3.3096,3.2911,3.3164,3.4103,3.4775,3.5395,3.5995,3.608,3.6421,3.7084,3.7174,3.723,3.723,3.8019,3.845,3.845,3.9201,3.9602,3.9602,3.9602,3.9602,3.9602,3.9602,3.9602,3.9602,3.9602,3.9602,3.9602,3.9602,3.9602,3.962,3.9714,4.0159,4.0816,4.1004,4.2018,4.3313,4.3361,4.3867,4.4411,4.414,4.3905,4.3679,4.3646,4.3477,4.3267,4.3267,4.3087,4.2957,4.3196,4.3069,4.2957,4.3196,4.305,4.2882,4.2882,4.2882,4.2882,4.2882,4.2882,4.2882,4.2882,4.2973,4.3027,4.3027,4.3715,4.424,4.424,4.4928,4.5707,4.6432,4.6576,4.6939,4.7645,4.7717,4.7717,4.7717,4.7717,4.7717,4.7717,4.7717,4.7753,4.7844,4.7844,4.788,4.7971,4.7971,4.8351,4.9039,4.8949,4.8532,0.0,0.0,0.0,0.0,0.0,0.0,3.0653,0.0,3.0653,0.0,0.0,0.0,0.0,0.0,0.0,0.0,3.0696,0.0,0.0,0.0,3.1761,0.0,0.0,0.0,3.2947,3.3222,3.3694,3.4395,3.4519,3.4858,3.5619,3.6122,3.6404,3.6404,3.7174,3.7831,3.83,3.8657,3.9089,3.9602,3.9602,3.9602,3.9602,3.9602,3.9602,3.9602,3.9602,3.9602,3.9602,3.9602,3.9602,3.9602,3.9602,3.9802,4.0159,4.0628,4.1248,4.1924,4.2393,4.2787,4.3117,4.3503,4.3748,4.3936,4.3936,4.3744,4.3511,4.3338,4.3232,4.3124,4.3069,4.3105,4.3124,4.3069,4.3105,4.3105,4.292,4.2882,4.2882,4.2882,4.2882,4.2882,4.2882,4.2882,4.2882,4.2882,4.3172,4.3389,4.3389,4.4095,4.4729,4.5073,4.5943,4.6649,4.6975,4.7446,4.7717,4.7717,4.7717,4.7717,4.7717,4.7717,4.7717,4.7717,4.7717,4.7717,4.7717,4.7717,4.788,4.8206,4.8206,4.8025,3.1874,0.0,0.0,0.0,0.0,0.0,0.0,0.0,0.0,0.0,0.0,0.0,0.0,0.0,0.0,0.0,0.0,3.0568,0.0,3.0419,0.0,0.0,0.0,0.0,0.0,3.2357,3.2672,3.3088,3.3223,3.3544,3.4247,3.4864,3.5315,3.554,3.6329,3.7042,3.7643,3.7868,3.8394,3.9239,3.9239,3.9352,3.9602,3.9602,3.9602,3.9602,3.9602,3.9602,3.9602,3.9602,3.9602,3.9602,3.9602,3.9602,3.9677,4.0253,4.0609,4.0891,4.1473,4.183,4.2149,4.3013,4.3559,4.3919,4.4143,4.3999,4.3777,4.356,4.3389,4.3267,4.316,4.3196,4.3267,4.3124,4.3196,4.3232,4.3069,4.2957,4.2882,4.2882,4.2882,4.2882,4.2882,4.2882,4.2882,4.2882,4.2882,4.2882,4.2882,4.3407,4.386,4.4077,4.5146,4.6015,4.6468,4.7047,4.7482,4.7699,4.7717,4.7717,4.7717,4.7717,4.7717,4.7717,4.7717,4.7717,4.7717,4.7717,4.7717,4.7717,4.7717,4.7717,0.0,0.0,0.0,3.0771,0.0,0.0,0.0,0.0,3.069,0.0,0.0,0.0,0.0,0.0,0.0,0.0,0.0,0.0,0.0,0.0,0.0,0.0,0.0,0.0,0.0,3.2454,3.2826,3.2458,3.2545,3.2859,3.3421,3.3475,3.3851,3.462,3.5484,3.5953,3.5972,3.6742,3.753,3.8338,3.8338,3.877,3.9602,3.9602,3.9602,3.9602,3.9602,3.9602,3.9602,3.9602,3.9602,3.9602,3.9602,3.9602,3.9602,3.9639,4.0121,4.0797,4.0835,4.136,4.2149,4.3013,4.3313,4.3482,4.4243,4.4306,4.4109,4.4079,4.3693,4.3373,4.3612,4.3477,4.3373,4.3612,4.3477,4.3303,4.3303,4.3087,4.2882,4.2882,4.2882,4.2882,4.2882,4.2882,4.2882,4.2882,4.2882,4.2882,4.2882,4.29,4.3226,4.4023,4.415,4.4802,4.6377,4.6522,4.6866,4.7663,4.7717,4.7717,4.7717,4.7717,4.7717,4.7717,4.7717,4.7717,4.7717,4.7717,4.7717,4.7717,4.7717,4.7717,0.0,0.0,3.1564,3.133,0.0,0.0,0.0,0.0,0.0,0.0,0.0,0.0,0.0,0.0,0.0,0.0,0.0,0.0,0.0,0.0,0.0,0.0,0.0,0.0,0.0,0.0,3.1236,3.1583,3.1553,3.1826,3.2499,3.31,3.3531,3.3794,3.4602,3.5315,3.5897,3.6179,3.6735,3.7662,3.821,3.8688,3.9094,3.9627,3.9785,3.9684,3.9684,3.9637,3.9602,3.9602,3.9679,3.9777,3.965,3.9679,3.9777,3.965,3.9765,4.0009,4.0009,4.0534,4.1342,4.2187,4.2825,4.3444,4.4271,4.444,4.4335,4.417,4.3968,4.3809,4.3712,4.3777,4.3809,4.3712,4.3777,4.3726,4.3373,4.3232,4.3087,4.292,4.2882,4.2882,4.2882,4.3069,4.3087,4.292,4.2882,4.2882,4.2882,4.2882,4.2991,4.3262,4.3769,4.4313,4.4874,4.5888,4.6848,4.7663,4.7717,4.7717,4.7717,4.7717,4.7717,4.7717,4.7717,4.7717,4.7717,4.7717,4.7717,4.7717,4.7717,4.7717,3.4033,3.3236,0.0,3.2102,3.1417,0.0,3.0994,0.0,3.0661,0.0,0.0,0.0,0.0,0.0,0.0,0.0,0.0,0.0,0.0,3.069,0.0,0.0,0.0,0.0,0.0,3.0359,3.0446,3.0792,3.076,3.104,3.1732,3.2297,3.2901,3.3525,3.4054,3.4753,3.5644,3.5623,3.6062,3.6996,3.7547,3.8175,3.8842,3.9376,3.9718,3.9882,3.9882,3.9813,3.9708,3.9708,3.9754,3.98,3.9727,3.9731,3.9777,3.965,3.9602,3.9602,3.9602,3.9934,4.0497,4.1323,4.2149,4.2994,4.382,4.4271,4.4468,4.4306,4.417,4.406,4.3873,4.3968,4.406,4.3873,4.3968,4.3999,4.366,4.3424,4.3232,4.3069,4.2957,4.2882,4.2882,4.3124,4.3232,4.3069,4.3032,4.3032,4.3032,4.2957,4.2882,4.2882,4.3353,4.3788,4.4077,4.5562,4.6721,4.7246,4.7554,4.7717,4.7717,4.7717,4.7572,4.7283,4.7554,4.7572,4.7283,4.7679,4.7847,4.7847,4.7951,4.801]},{"header":{"parameterUnit":"m.s-1","parameterCategory":1,"la1":30.6,"la2":29.2853,"lo1":-89.7004,"lo2":-87.6739,"dy":0.0162,"dx":0.0183,"nx":112,"ny":82,"refTime":"2023-09-09T12:00:00:Z","depth":0,"parameterNumber":3,"parameterNumberName":"V-component_of_WINDS"},"data":[0.0,0.0,0.0,0.0,0.0,0.0,0.0,0.0,0.0,0.0,0.0,0.0,0.0,0.0,0.0,0.0,0.0,0.0,0.0,0.0,0.0,0.0,0.0,0.0,0.0,0.0,0.0,0.0,0.0,0.0,0.0,0.0,0.0,0.0,0.0,0.0,0.0,0.0,0.0,0.0,0.0,0.0,0.0,0.0,0.0,0.0,0.0,0.0,0.0,0.0,0.0,0.0,0.0,0.0,0.0,0.0,0.0,0.0,0.0,0.0,0.0,0.0,0.0,0.0,0.0,0.0,0.0,0.0,0.0,0.0,0.0,0.0,0.0,0.0,0.0,0.0,0.0,0.0,0.0,0.0,0.0,0.0,0.0,0.0,0.0,0.0,0.0,0.0,0.0,0.0,1.2633,1.3244,1.4123,1.4729,1.5059,1.4582,1.4047,1.355,0.0,0.0,0.0,0.0,0.0,0.0,0.0,0.0,0.0,0.0,0.0,0.0,0.0,0.0,0.0,0.0,0.0,0.0,0.0,0.0,0.0,0.0,0.0,0.0,0.0,0.0,0.0,0.0,0.0,0.0,0.0,0.0,0.0,0.0,0.0,0.0,0.0,0.0,0.0,0.0,0.0,0.0,0.0,0.0,0.0,0.0,0.0,0.0,0.0,0.0,0.0,0.0,0.0,0.0,0.0,0.0,0.0,0.0,0.0,0.0,0.0,0.0,0.0,0.0,0.0,0.0,0.0,0.0,0.0,0.0,0.0,0.0,0.0,0.0,0.0,0.0,0.0,0.0,0.0,0.0,0.0,0.0,0.0,0.0,0.0,0.0,0.0,0.0,0.0,0.0,0.0,0.0,0.0,0.0,0.0,0.0,0.0,0.0,0.0,0.0,0.0,0.0,0.0,0.0,1.2568,1.3854,1.3769,1.4466,1.6405,1.5571,1.4959,1.4959,0.0,0.0,0.0,0.0,0.0,0.0,0.0,0.0,0.0,0.0,0.0,0.0,0.0,0.0,0.0,0.0,0.0,0.0,0.0,0.0,0.0,0.0,0.0,0.0,0.0,0.0,0.0,0.0,0.0,0.0,0.0,0.0,0.0,0.0,0.0,0.0,0.0,0.0,0.0,0.0,0.0,0.0,0.0,0.0,0.0,0.0,0.0,0.0,0.0,0.0,0.0,0.0,0.0,0.0,0.0,0.0,0.0,0.0,0.0,0.0,0.0,0.0,0.0,0.0,0.0,0.0,0.0,0.0,0.0,0.0,0.0,0.0,0.0,0.0,0.0,0.0,0.0,0.0,0.0,0.0,0.0,0.0,0.0,0.0,0.0,0.0,0.0,0.0,0.0,0.0,0.0,0.0,0.0,0.0,0.0,0.0,0.0,0.0,0.0,0.0,0.0,0.0,0.0,1.2825,1.3525,1.4533,1.4692,1.5108,1.6167,1.5883,1.5384,1.4703,1.3974,0.0,0.0,0.0,0.0,0.0,0.0,0.0,0.0,0.0,0.0,0.0,0.0,0.0,0.0,0.0,0.0,0.0,0.0,0.0,0.0,0.0,0.0,0.0,0.0,0.0,0.0,0.0,0.0,0.0,0.0,0.0,0.0,0.0,0.0,0.0,0.0,0.0,0.0,0.0,0.0,0.0,0.0,0.0,0.0,0.0,0.0,0.0,0.0,0.0,0.0,0.0,0.0,0.0,0.0,0.0,0.0,0.0,0.0,0.0,0.0,0.0,0.0,0.0,0.0,0.0,0.0,0.0,0.0,0.0,0.0,0.0,0.0,0.0,0.0,0.0,0.0,0.0,0.0,0.0,0.0,0.0,0.0,0.0,0.0,0.0,0.0,0.0,0.0,0.0,0.0,0.0,0.0,0.0,0.0,0.0,0.0,0.0,0.0,0.0,0.0,0.0,0.0,1.3481,1.4117,1.4897,1.5093,1.5392,1.5956,1.6032,1.5641,1.4543,1.4689,0.0,0.0,0.0,0.0,0.0,0.0,0.0,0.0,0.0,0.0,0.0,0.0,0.0,0.0,0.0,0.0,0.0,0.0,0.0,0.0,0.0,0.0,0.0,0.0,0.0,0.0,0.0,0.0,0.0,0.0,0.0,0.0,0.0,0.0,0.0,0.0,0.0,0.0,0.0,0.0,0.0,0.0,0.0,0.0,0.0,0.0,0.0,0.0,0.0,0.0,0.0,0.0,0.0,0.0,0.0,0.0,0.0,0.0,0.0,0.0,0.0,0.0,0.0,0.0,0.0,0.0,0.0,0.0,0.0,0.0,0.0,0.0,0.0,0.0,0.0,0.0,0.0,0.0,0.0,0.0,0.0,0.0,0.0,0.0,0.0,0.0,0.0,0.0,0.0,0.0,0.0,0.0,0.0,0.0,0.0,0.0,0.0,0.0,0.0,0.0,0.0,0.0,1.305,1.3464,1.4538,1.4042,1.4482,1.6655,1.614,1.5703,1.5562,1.536,0.0,0.0,0.0,0.0,0.0,0.0,0.0,0.0,0.0,0.0,0.0,0.0,0.0,0.0,0.0,0.0,0.0,0.0,0.0,0.0,0.0,0.0,0.0,0.0,0.0,0.0,0.0,0.0,0.0,0.0,0.0,0.0,0.0,0.0,0.0,0.0,0.0,0.0,0.0,0.0,0.0,0.0,0.0,0.0,0.0,0.0,0.0,0.0,0.0,0.0,0.0,0.0,0.0,0.0,0.0,0.0,0.0,0.0,0.0,0.0,0.0,0.0,0.0,0.0,0.0,0.0,0.0,0.0,0.0,0.0,0.0,0.0,0.0,0.0,0.0,0.0,0.0,0.0,0.0,0.0,0.0,0.0,0.0,0.0,0.0,0.0,0.0,0.0,0.0,0.0,0.0,0.0,0.0,0.0,0.0,0.0,0.0,0.0,0.0,0.0,0.0,0.0,1.3454,1.3633,0.0,1.433,1.4537,1.5376,1.6088,1.6018,1.51,0.0,0.0,0.0,0.0,0.0,0.0,0.0,0.0,0.0,0.0,0.0,0.0,0.0,0.0,0.0,0.0,0.0,0.0,0.0,0.0,0.0,0.0,0.0,0.0,0.0,0.0,0.0,0.0,0.0,0.0,0.0,0.0,0.0,0.0,0.0,0.0,0.0,0.0,0.0,0.0,0.0,0.0,0.0,0.0,0.0,0.0,0.0,0.0,0.0,0.0,0.0,0.0,0.0,0.0,0.0,0.0,0.0,0.0,0.0,0.0,0.0,0.0,0.0,0.0,0.0,0.0,0.0,0.0,0.0,0.0,0.0,0.0,0.0,0.0,0.0,0.0,0.0,0.0,0.0,0.0,0.0,0.0,0.0,0.0,0.0,0.0,0.0,0.0,0.0,0.0,0.0,0.0,0.0,0.0,0.0,0.0,0.0,0.0,0.0,0.0,0.0,0.0,1.3894,1.3833,1.4049,0.0,1.4394,1.4474,1.4887,1.5877,1.5948,1.4673,0.0,0.0,0.0,0.0,0.0,0.0,0.0,0.0,0.0,0.0,0.0,0.0,0.0,0.0,0.0,0.0,0.0,0.0,0.0,0.0,0.0,0.0,0.0,0.0,0.0,0.0,0.0,0.0,0.0,0.0,0.0,0.0,0.0,0.0,0.0,0.0,0.0,0.0,0.0,0.0,0.0,0.0,0.0,0.0,0.0,0.0,0.0,0.0,0.0,0.0,0.0,0.0,0.0,0.0,0.0,0.0,0.0,0.0,0.0,0.0,0.0,0.0,0.0,0.0,0.0,0.0,0.0,0.0,0.0,0.0,0.0,0.0,0.0,0.0,0.0,0.0,0.0,0.0,0.0,0.0,0.0,0.0,0.0,0.0,0.0,0.0,0.0,0.0,0.0,0.0,0.0,0.0,0.0,0.0,0.0,0.0,0.0,0.0,0.0,0.0,0.0,0.0,1.3593,1.4122,1.4609,1.4609,1.3992,1.4137,1.5542,1.5683,1.5392,0.0,0.0,0.0,0.0,0.0,0.0,0.0,0.0,0.0,0.0,0.0,0.0,0.0,0.0,0.0,0.0,0.0,0.0,0.0,0.0,0.0,0.0,0.0,0.0,0.0,0.0,0.0,0.0,0.0,0.0,0.0,0.0,0.0,0.0,0.0,0.0,0.0,0.0,0.0,0.0,0.0,0.0,0.0,0.0,0.0,0.0,0.0,0.0,0.0,0.0,0.0,0.0,0.0,0.0,0.0,0.0,0.0,0.0,0.0,0.0,0.0,0.0,0.0,0.0,0.0,0.0,0.0,0.0,0.0,0.0,0.0,0.0,0.0,0.0,0.0,0.0,0.0,0.0,0.0,0.0,0.0,0.0,0.0,0.0,0.0,0.0,0.0,0.0,0.0,0.0,0.0,0.0,0.0,0.0,0.0,0.0,0.0,0.0,0.0,0.0,0.0,0.0,0.0,1.4243,1.419,1.4408,1.4909,1.4981,1.5028,1.5292,1.5777,1.5668,1.4689,0.0,0.0,0.0,0.0,0.0,0.0,0.0,0.0,0.0,0.0,0.0,0.0,0.0,0.0,0.0,0.0,0.0,0.0,0.0,0.0,0.0,0.0,0.0,0.0,0.0,0.0,0.0,0.0,0.0,0.0,0.0,0.0,0.0,0.0,0.0,0.0,0.0,0.0,0.0,0.0,0.0,0.0,0.0,0.0,0.0,0.0,0.0,0.0,0.0,0.0,0.0,0.0,0.0,0.0,0.0,0.0,0.0,0.0,0.0,0.0,0.0,0.0,0.0,0.0,0.0,0.0,0.0,0.0,0.0,0.0,0.0,0.0,0.0,0.0,0.0,0.0,0.0,0.0,0.0,0.0,0.0,0.0,0.0,0.0,0.0,0.0,0.0,0.0,0.0,0.0,0.0,0.0,0.0,0.0,0.0,0.0,0.0,0.0,0.0,0.0,0.0,0.0,1.4306,1.4431,1.4539,1.482,1.5019,1.5203,1.5356,1.5881,1.5926,1.533,0.0,0.0,0.0,0.0,0.0,0.0,0.0,0.0,0.0,0.0,0.0,0.0,0.0,0.0,0.0,0.0,0.0,0.0,0.0,0.0,0.0,0.0,0.0,0.0,0.0,0.0,0.0,0.0,0.0,0.0,0.0,0.0,0.0,0.0,0.0,0.0,0.0,0.0,0.0,0.0,0.0,0.0,0.0,0.0,0.0,0.0,0.0,0.0,0.0,0.0,0.0,0.0,0.0,0.0,0.0,0.0,0.0,0.0,0.0,0.0,0.0,0.0,0.0,0.0,0.0,0.0,0.0,0.0,0.0,0.0,0.0,0.0,0.0,0.0,0.0,0.0,0.0,0.0,0.0,0.0,0.0,0.0,0.0,0.0,0.0,0.0,0.0,0.0,0.0,0.0,0.0,0.0,0.0,0.0,0.0,0.0,0.0,0.0,0.0,0.0,0.0,0.0,1.4013,1.4607,1.4911,1.4558,1.4538,1.4844,1.5543,1.593,1.6167,1.6237,0.0,0.0,0.0,0.0,0.0,0.0,0.0,0.0,0.0,0.0,0.0,0.0,0.0,0.0,0.0,0.0,0.0,0.0,0.0,0.0,0.0,0.0,0.0,0.0,0.0,0.0,0.0,0.0,0.0,0.0,0.0,0.0,0.0,0.0,0.0,0.0,0.0,0.0,0.0,0.0,0.0,0.0,0.0,0.0,0.0,0.0,0.0,0.0,0.0,0.0,0.0,0.0,0.0,0.0,0.0,0.0,0.0,0.0,0.0,0.0,1.6693,0.0,0.0,0.0,0.0,0.0,0.0,0.0,0.0,0.0,0.0,0.0,0.0,0.0,0.0,0.0,0.0,0.0,0.0,0.0,0.0,0.0,0.0,0.0,0.0,0.0,0.0,0.0,0.0,0.0,0.0,0.0,0.0,0.0,0.0,0.0,0.0,0.0,0.0,0.0,0.0,0.0,1.3975,1.4576,1.4917,1.4831,1.5072,1.5198,1.5093,1.5162,1.5196,1.5388,1.5275,0.0,0.0,0.0,0.0,0.0,0.0,0.0,0.0,0.0,0.0,0.0,0.0,0.0,0.0,0.0,0.0,0.0,0.0,0.0,0.0,0.0,0.0,0.0,0.0,0.0,0.0,0.0,0.0,0.0,0.0,0.0,0.0,0.0,0.0,0.0,0.0,0.0,0.0,0.0,0.0,0.0,0.0,0.0,0.0,0.0,0.0,0.0,0.0,0.0,0.0,0.0,0.0,0.0,0.0,0.0,0.0,0.0,0.0,0.0,0.0,1.6787,0.0,0.0,0.0,0.0,0.0,0.0,0.0,0.0,0.0,0.0,0.0,0.0,0.0,0.0,0.0,0.0,0.0,0.0,0.0,0.0,0.0,0.0,0.0,0.0,0.0,0.0,0.0,0.0,0.0,0.0,0.0,0.0,0.0,0.0,0.0,0.0,0.0,0.0,0.0,0.0,1.4421,1.4735,1.4925,1.516,1.5328,1.5516,1.5731,1.5579,1.5724,1.6193,1.6079,0.0,0.0,0.0,0.0,0.0,0.0,0.0,0.0,0.0,0.0,0.0,0.0,0.0,0.0,0.0,0.0,0.0,0.0,0.0,0.0,0.0,0.0,0.0,0.0,0.0,0.0,0.0,0.0,0.0,0.0,0.0,0.0,0.0,0.0,0.0,0.0,0.0,0.0,0.0,0.0,0.0,0.0,0.0,0.0,0.0,0.0,0.0,0.0,0.0,0.0,0.0,0.0,0.0,1.9193,1.967,2.0335,1.9754,1.9744,2.0291,1.8685,1.7943,1.7781,1.7708,0.0,0.0,0.0,0.0,0.0,0.0,0.0,0.0,0.0,0.0,0.0,0.0,0.0,0.0,0.0,0.0,0.0,0.0,0.0,0.0,0.0,0.0,0.0,0.0,1.7401,1.7595,1.5968,0.0,0.0,0.0,0.0,0.0,0.0,0.0,0.0,0.0,0.0,0.0,1.4904,1.5043,1.5211,1.5489,1.5511,1.5755,1.6472,1.6241,1.6333,1.7136,1.6919,1.6279,0.0,0.0,0.0,0.0,0.0,0.0,0.0,0.0,0.0,0.0,0.0,0.0,0.0,0.0,0.0,0.0,0.0,0.0,0.0,0.0,0.0,0.0,0.0,0.0,0.0,0.0,0.0,0.0,0.0,0.0,0.0,0.0,1.8594,1.8594,0.0,0.0,0.0,0.0,0.0,0.0,0.0,0.0,0.0,0.0,0.0,0.0,0.0,2.1495,2.1495,2.1273,2.1185,2.1196,2.0565,2.0523,2.098,2.0918,2.0918,2.098,2.0721,0.0,1.8299,1.8299,0.0,0.0,0.0,0.0,0.0,0.0,0.0,0.0,0.0,0.0,0.0,0.0,0.0,0.0,0.0,0.0,0.0,0.0,0.0,0.0,0.0,0.0,1.934,1.9605,1.9377,1.9078,0.0,1.7925,1.6924,1.6636,1.6679,0.0,0.0,0.0,0.0,0.0,0.0,0.0,1.494,1.5438,1.5804,1.5848,1.5848,1.5848,1.6011,1.5715,1.5718,1.6206,1.6221,1.6038,1.5526,1.5663,0.0,0.0,0.0,0.0,0.0,0.0,0.0,0.0,0.0,0.0,0.0,0.0,0.0,0.0,0.0,0.0,0.0,0.0,0.0,0.0,0.0,0.0,0.0,0.0,0.0,0.0,0.0,0.0,0.0,1.8721,1.8903,1.8903,1.8903,1.8786,0.0,0.0,0.0,0.0,0.0,0.0,0.0,0.0,0.0,2.2252,2.268,2.3119,2.3409,2.3507,2.3761,2.4033,2.3944,2.4254,2.4835,2.3853,2.3557,2.36,2.265,2.1673,2.0627,1.9851,1.9417,1.9173,0.0,0.0,0.0,0.0,1.8243,1.7891,1.776,1.776,0.0,1.7422,0.0,0.0,0.0,0.0,0.0,0.0,0.0,0.0,0.0,0.0,2.0059,2.0771,2.1021,2.1123,2.1055,2.0713,1.9868,0.0,1.7393,1.6783,1.5863,0.0,0.0,0.0,0.0,1.5708,1.6461,1.6831,1.6764,1.6257,1.6677,1.6764,1.6257,1.5884,1.5804,1.5982,1.6269,1.6085,1.5276,1.5646,1.5475,0.0,0.0,0.0,0.0,0.0,0.0,0.0,0.0,0.0,0.0,0.0,0.0,0.0,0.0,0.0,0.0,0.0,0.0,0.0,0.0,0.0,0.0,0.0,0.0,0.0,0.0,0.0,0.0,1.933,1.9372,1.9488,1.9698,1.9807,0.0,0.0,0.0,0.0,0.0,0.0,2.322,2.3546,2.3943,2.453,2.4672,2.4921,2.5313,2.5483,2.5784,2.6171,2.6337,2.6671,2.7101,2.5835,2.5245,2.5139,2.3907,2.3101,2.2584,2.1424,2.0886,2.0762,2.0648,2.0257,1.9828,1.9766,1.9441,1.9018,1.9233,1.9301,1.9301,1.9301,1.931,1.9213,1.8547,0.0,0.0,0.0,0.0,1.9033,1.9918,2.0401,2.0808,2.178,2.2281,2.2533,2.2369,2.2359,2.1718,0.0,1.8859,1.8139,1.712,0.0,0.0,0.0,0.0,1.7126,1.8046,1.7985,1.7699,1.6921,1.7531,1.7531,1.658,1.6468,1.6245,1.5921,1.6247,1.6041,1.5079,1.5683,1.5568,1.4721,0.0,0.0,0.0,0.0,0.0,0.0,0.0,0.0,0.0,0.0,0.0,0.0,0.0,0.0,0.0,0.0,0.0,0.0,0.0,0.0,0.0,0.0,0.0,0.0,0.0,0.0,0.0,0.0,0.0,2.0673,2.1351,0.0,0.0,0.0,0.0,2.2717,2.3259,2.3827,2.447,2.5515,2.6455,2.7122,2.7635,2.7911,2.7936,2.7175,2.6815,2.6839,2.613,2.5621,2.5363,2.5201,2.4723,2.4002,2.393,2.3588,2.3111,2.2604,2.2128,2.1694,2.1248,2.1009,2.08,2.0494,2.0247,2.0175,2.0287,2.0287,2.0287,2.0287,1.9777,1.9035,1.8962,1.9132,0.0,0.0,2.0623,2.2005,2.2036,2.2381,2.2808,2.3072,2.2849,2.2625,2.2788,2.1846,2.1218,0.0,2.1984,2.1646,2.0541,0.0,2.0159,1.9314,1.9161,1.9178,1.9196,1.8641,1.824,1.824,1.8232,1.7881,1.6919,1.7393,1.7156,1.6021,1.5899,1.5738,1.5416,1.5401,1.5394,1.5379,1.5079,0.0,0.0,0.0,0.0,0.0,0.0,0.0,0.0,0.0,0.0,0.0,0.0,0.0,0.0,0.0,0.0,0.0,0.0,0.0,0.0,0.0,0.0,0.0,0.0,0.0,0.0,0.0,0.0,2.1232,2.1827,0.0,2.2808,2.4214,2.504,2.504,2.596,2.6623,2.685,2.7234,2.7752,2.8335,2.8536,2.8812,2.9189,2.8936,2.8957,2.9303,2.8978,2.884,2.8703,2.8115,2.7115,2.592,2.5352,2.4682,2.4043,2.3877,2.337,2.2677,2.2511,2.2449,2.236,2.2273,2.2211,2.2133,2.2211,2.2201,2.2201,2.2201,2.1957,2.1713,2.1713,2.1756,2.1878,2.1878,2.2359,2.2928,2.3227,2.3258,2.337,2.3739,2.3632,2.3378,2.3463,2.3103,2.2837,2.3037,2.2142,2.1172,2.0671,2.0745,2.0745,2.0576,1.9999,1.9922,2.0703,2.0669,2.0223,1.9586,1.9495,1.9134,1.8247,1.7575,1.7071,1.6528,1.6323,1.6067,1.5752,1.5738,1.5643,1.5431,1.5313,1.5255,0.0,0.0,0.0,0.0,0.0,0.0,0.0,0.0,0.0,0.0,0.0,0.0,0.0,0.0,0.0,0.0,0.0,0.0,0.0,0.0,0.0,0.0,0.0,0.0,0.0,0.0,2.1344,2.2046,2.3021,2.3959,2.4612,2.6022,2.6907,2.6907,2.7852,2.8386,2.8386,2.8561,2.885,2.9202,2.9214,2.9402,2.9792,2.9792,2.998,3.0331,3.0331,3.0173,2.9831,2.8979,2.7871,2.6565,2.5757,2.502,2.454,2.454,2.4188,2.3629,2.3484,2.3422,2.3401,2.3246,2.3184,2.3184,2.3184,2.3184,2.3184,2.3184,2.3184,2.3184,2.3184,2.3298,2.3422,2.3422,2.3525,2.3712,2.4022,2.4011,2.3914,2.4221,2.4196,2.4024,2.4024,2.3927,2.3754,2.359,2.258,2.1674,2.1514,2.1589,2.1589,2.1429,2.1116,2.1119,2.1658,2.1695,2.1418,2.0782,2.0692,2.015,1.888,1.8308,1.7682,1.6956,1.6652,1.6389,1.6082,1.6067,1.5921,1.5599,1.5489,1.5431,1.5431,0.0,0.0,0.0,0.0,0.0,0.0,0.0,0.0,0.0,0.0,0.0,0.0,0.0,0.0,0.0,0.0,0.0,0.0,0.0,0.0,0.0,0.0,0.0,1.9952,2.204,2.3473,2.3191,2.5016,2.6505,2.689,2.7668,2.816,2.816,2.8649,2.895,2.895,2.949,2.9792,2.9792,2.9792,2.9792,2.9792,2.9792,2.9792,2.9792,2.9792,2.9378,2.8542,2.7637,2.673,2.583,2.4946,2.454,2.454,2.454,2.454,2.4498,2.4064,2.3898,2.3846,2.3391,2.3225,2.3225,2.3225,2.3225,2.3225,2.3225,2.3225,2.3225,2.3225,2.3546,2.3898,2.3898,2.4209,2.454,2.454,2.454,2.454,2.454,2.454,2.4454,2.4454,2.411,2.3754,2.3754,2.3667,2.3406,2.3144,2.3135,2.2775,2.1872,2.2511,0.0,2.1872,2.1695,2.1695,2.1695,2.1695,2.0881,1.8972,1.9604,1.9183,1.7069,1.6872,1.6726,1.6396,1.6382,1.6243,1.5935,1.5621,1.546,1.546,0.0,0.0,0.0,0.0,0.0,0.0,0.0,0.0,0.0,0.0,0.0,0.0,0.0,0.0,0.0,0.0,0.0,0.0,0.0,0.0,0.0,0.0,2.204,2.1333,2.268,2.4052,2.4785,2.637,2.7675,2.8287,2.8925,2.9327,2.9327,2.9465,2.9553,2.9553,2.9704,2.9792,2.9792,2.9792,2.9792,2.9792,2.9792,2.9792,2.9792,2.9792,2.9702,2.9456,2.9209,2.8542,2.7718,2.6823,2.5997,2.5421,2.4786,2.454,2.4529,2.4405,2.4364,2.4343,2.4219,2.4167,2.4167,2.4167,2.4167,2.4167,2.4167,2.4167,2.4167,2.4167,2.426,2.4364,2.4364,2.4447,2.454,2.454,2.454,2.454,2.454,2.4368,2.4292,2.4292,2.3937,2.359,2.359,2.3406,2.3232,2.3135,2.3135,2.3047,2.2775,2.296,0.0,2.2784,2.2687,2.2413,2.1784,2.1051,2.015,1.888,1.8326,1.7832,1.7201,1.7201,1.7055,1.6733,1.6718,1.6572,1.625,1.6155,1.6111,0.0,0.0,0.0,0.0,0.0,0.0,0.0,0.0,0.0,0.0,0.0,0.0,0.0,0.0,0.0,0.0,0.0,0.0,0.0,0.0,0.0,0.0,2.2461,2.3139,2.3243,2.4481,2.5689,2.6452,2.7758,2.8805,2.9213,2.9591,2.9792,2.9792,2.9792,2.9792,2.9792,2.9792,2.9792,2.9792,2.9792,2.9905,3.0131,3.0143,3.0244,3.047,3.047,3.047,3.047,3.0059,2.9633,2.9124,2.8197,2.7268,2.642,2.5733,2.5154,0.0,0.0,0.0,0.0,0.0,2.454,2.454,2.454,2.454,2.454,2.454,2.454,2.454,2.454,2.454,2.454,2.454,2.454,2.454,2.454,2.454,2.454,2.454,2.4368,2.4292,2.4292,2.3937,2.359,2.359,2.3319,0.0,2.3135,2.3135,2.296,2.2599,2.2872,2.296,2.2599,2.2872,2.2775,2.1784,2.115,2.024,1.888,1.8241,0.0,0.0,0.0,1.7245,1.7062,1.6923,0.0,0.0,0.0,1.6367,1.6367,1.6367,0.0,0.0,1.5738,1.5546,0.0,0.0,0.0,0.0,0.0,0.0,0.0,0.0,0.0,0.0,0.0,0.0,0.0,0.0,0.0,0.0,2.3067,2.39,2.53,2.6713,2.7747,2.7915,2.9139,2.9967,2.9967,2.9967,2.9967,2.9967,2.9967,2.9967,2.9967,0.0,0.0,0.0,0.0,3.0206,3.0708,3.0708,3.0934,3.1386,3.1386,3.1386,3.1386,3.0633,3.0205,3.0205,2.9242,2.8298,2.7404,2.6813,2.6053,2.5254,2.4736,2.454,2.454,2.454,2.454,2.454,2.454,0.0,0.0,2.454,2.454,2.454,2.454,2.454,2.454,2.454,2.454,2.454,2.454,2.454,2.454,2.454,2.454,2.454,2.454,2.4196,2.3841,2.3841,2.3493,2.3144,2.3144,2.3135,2.2784,2.1971,2.2599,2.2775,2.1971,2.2501,2.2599,2.1606,0.0,0.0,1.8788,1.8611,1.8241,1.7326,1.7326,1.7326,1.7326,1.7055,1.6908,1.6908,1.6623,1.6477,1.6477,1.6477,1.6477,1.6477,1.6404,1.6367,0.0,0.0,0.0,0.0,0.0,0.0,0.0,0.0,0.0,0.0,0.0,0.0,0.0,0.0,0.0,2.3679,2.4307,2.5458,2.7175,2.7716,2.821,2.8943,3.0239,3.1085,3.1085,3.1085,3.1085,3.1085,3.1085,3.1085,3.1085,3.1085,3.1085,3.1085,3.1085,3.1135,3.1235,3.1248,3.1286,3.1386,0.0,0.0,3.1386,3.1223,3.1141,3.1046,2.9423,2.8654,2.8298,2.6743,2.593,2.5668,2.4861,2.454,2.454,2.454,2.454,2.454,2.454,2.454,2.454,2.454,2.454,2.454,2.454,2.454,0.0,2.454,2.454,2.454,2.454,2.454,2.454,2.454,2.454,2.454,2.454,2.4282,2.411,2.411,2.3764,2.3416,2.3416,2.3232,2.3047,2.2872,2.296,2.3047,2.2862,2.2325,2.1596,2.0593,1.9786,1.888,1.7692,1.7598,1.7512,1.7326,1.7326,1.7326,1.7326,1.7267,1.7238,1.7238,1.7179,1.7143,1.7143,1.7143,1.7143,1.7128,1.6608,1.6367,0.0,0.0,0.0,0.0,0.0,0.0,0.0,0.0,0.0,0.0,0.0,2.2915,0.0,0.0,2.4299,2.4522,2.4956,2.5934,2.8014,2.8591,2.9171,3.0253,3.0966,3.1386,3.1386,3.1386,3.1386,3.1386,3.1386,3.1386,3.1386,3.1386,3.1386,3.1386,3.1386,3.1524,3.18,3.18,3.1951,3.2227,3.2227,3.2227,3.2227,3.1697,3.1527,3.1442,3.0027,2.9147,2.8601,2.6939,2.6082,2.5834,2.5388,2.5213,2.5181,2.4964,2.4892,2.4861,2.4623,2.454,2.454,2.454,2.454,2.454,2.454,2.454,2.454,2.454,2.454,2.454,2.454,2.454,2.454,2.454,2.454,2.454,2.454,2.4196,2.4084,2.4317,2.4007,2.3713,2.3929,2.3869,2.3633,2.3203,2.3135,2.3135,2.3135,2.2236,2.1329,2.0322,1.933,1.8427,1.7419,1.7326,1.7326,1.7326,1.7326,1.7326,1.7326,1.7326,1.7326,1.7326,1.7326,1.7326,1.7326,1.7326,1.7326,1.7318,1.6996,1.685,0.0,0.0,0.0,0.0,0.0,0.0,0.0,0.0,2.2283,2.3029,2.3256,2.3463,2.3919,2.4242,2.465,2.5223,2.5612,2.6617,2.8551,2.941,3.0257,3.1585,3.1712,3.1712,3.1712,3.1712,3.1712,3.1712,3.1712,3.1712,3.1712,3.1712,3.1712,3.1712,3.1712,3.1938,3.2378,3.2378,3.2616,3.3081,3.3081,3.2995,3.2797,3.1989,3.1536,3.1258,3.0351,2.9349,2.833,2.7222,2.6486,2.6144,2.6144,2.6144,2.6082,2.5554,2.5357,2.5306,2.4923,2.4799,2.4788,2.4705,2.4674,2.4664,2.4571,2.454,2.456,2.4654,2.4674,2.4695,2.4778,2.4799,2.4799,2.4799,2.4799,2.4799,2.4799,2.4451,2.4291,2.4743,2.4366,2.4205,2.4457,2.4516,2.418,2.3496,2.3389,2.3359,2.3271,2.226,2.123,2.0331,1.9147,1.8149,1.7326,1.7326,1.7326,1.7326,1.7326,1.7326,1.7326,1.7326,1.7326,1.7326,1.7326,1.7326,1.7326,1.7326,1.7326,1.7326,1.7326,1.7326,1.9075,1.9375,1.9893,2.0752,2.128,2.1725,0.0,0.0,2.306,2.3163,2.3515,2.3939,2.4385,2.537,2.6152,2.5899,2.7195,2.8573,2.9339,3.0166,3.1246,3.2744,3.2893,3.2893,3.2893,3.2893,3.2893,3.2893,3.2893,3.2893,3.2893,3.2893,3.2893,3.2893,3.2893,3.2918,3.298,3.298,3.3018,3.3081,3.3081,3.2624,3.1713,3.1625,3.1169,3.026,2.9268,2.8351,2.7441,2.7295,2.7148,2.7107,2.7107,2.7107,2.7003,2.6123,2.5802,2.5802,2.574,2.573,2.5668,2.5285,2.5161,2.5078,2.4664,2.454,2.4633,2.5037,2.5161,2.5244,2.5627,2.573,2.573,2.573,2.573,2.573,2.573,2.573,2.565,2.5702,2.5361,2.5037,2.5077,2.47,2.4385,2.4287,2.4268,2.4141,2.3769,2.2135,2.0793,2.0266,1.8603,1.7419,1.7333,1.7326,1.7326,1.7326,1.7326,1.7326,1.7326,1.7326,1.7326,1.7326,1.7326,1.7326,1.7326,1.7326,1.7326,1.7326,1.7326,1.7326,2.012,2.04,2.0834,2.2025,2.2263,2.247,2.3463,2.3639,2.366,2.3919,2.4343,2.4726,2.4912,2.5549,2.6178,0.0,2.6987,2.8041,2.969,3.0206,3.1097,3.2871,3.3081,3.3081,3.3081,3.3081,3.3081,3.3081,3.3081,3.3081,3.3081,3.3081,3.3081,3.3081,3.3081,3.281,3.2264,3.2797,3.2525,3.1436,3.1989,3.1713,3.0812,3.017,2.936,2.8445,2.8081,2.762,2.7262,2.7262,2.7262,2.7262,2.7262,2.7262,2.7179,2.6527,2.6279,2.6248,2.5968,2.5875,2.5844,2.5668,2.5606,2.5575,2.5378,2.5316,2.5357,2.5554,2.5606,2.5647,2.5834,2.5875,2.5875,2.5875,2.5875,2.5875,2.5875,2.5805,2.5797,2.6064,2.5828,2.5548,2.5704,2.5555,2.5366,2.5185,2.4746,2.4355,2.418,2.2927,2.1541,2.0157,1.8563,1.7611,1.7611,1.7435,1.7326,1.7326,1.7326,1.7326,1.7326,1.7326,1.7326,1.7326,1.7326,1.7326,1.7326,1.7326,1.7326,1.7326,1.7326,1.7326,2.1093,2.1393,0.0,2.306,2.3122,2.3205,2.4447,2.4488,2.4374,2.4819,2.5171,2.5451,2.5575,2.5854,2.6216,2.6682,2.7034,2.7779,2.9579,3.026,3.108,3.2525,3.2896,3.3081,3.3081,3.3081,3.3081,3.3081,3.281,3.2711,3.2711,3.2711,3.2537,3.2339,3.2797,3.2525,3.1258,3.2164,3.1889,3.017,3.0902,3.0722,2.9715,2.8724,2.7904,2.7262,2.7262,2.7262,2.7262,2.7262,2.7262,2.7262,2.7262,2.7262,2.722,2.6879,2.6755,2.6713,2.6372,2.6258,2.6237,2.6113,2.6061,2.6051,2.5916,2.5875,2.5906,2.6041,2.6061,2.6092,2.6227,2.6258,2.6258,2.6258,2.6258,2.6258,2.6258,2.6187,2.6115,2.6433,2.6202,2.6019,2.6147,2.61,2.5917,2.5732,2.5195,2.4736,2.4609,2.3439,2.1838,2.0119,1.8753,1.7947,1.7947,1.7735,1.7596,1.7596,1.7596,1.7552,1.7465,1.7465,1.7421,1.7326,1.7326,1.7326,1.7326,1.7326,1.7326,1.7326,1.7326,1.7326,2.1652,2.2118,2.2677,2.3619,2.3846,2.4084,2.5006,2.5202,2.5316,2.5751,2.5844,2.5999,2.6444,2.6537,2.6703,2.7169,2.806,2.8702,2.8724,3.0351,3.1625,3.1625,3.2537,3.3081,0.0,3.3081,3.3081,3.3081,3.2176,3.1625,3.1625,3.1625,3.1258,3.0351,3.2164,3.2164,3.026,3.1169,3.1169,3.017,3.026,2.9715,2.8724,2.7809,2.7357,2.7262,2.7262,2.7262,2.7262,2.7262,2.7262,2.7262,2.7262,2.7262,2.7262,2.7241,2.7241,2.7241,2.722,2.722,2.7148,2.6693,2.6548,2.6465,2.602,2.5875,2.5968,2.6423,2.6548,2.6651,2.7107,2.722,2.722,2.722,2.722,2.722,2.722,2.722,2.722,2.7231,2.686,2.6486,2.6496,2.6024,2.5732,2.5742,2.5713,2.5537,2.5107,2.2944,2.1075,2.0022,1.8965,1.8284,1.8284,1.8277,1.8277,1.8277,1.8277,1.813,1.7816,1.7801,1.7655,1.7333,1.7326,1.7326,1.7326,1.7326,1.7326,1.7326,1.7326,1.7326,2.2977,2.3505,2.4002,2.4623,2.4778,2.4933,2.5523,2.544,2.5275,2.542,2.5451,2.5413,2.5478,2.6073,2.662,2.6578,2.7233,2.7998,2.8631,2.9268,3.0296,3.189,3.2095,0.0,0.0,0.0,0.0,3.3081,3.2164,3.1625,3.1625,3.0991,3.0531,3.017,3.08,3.0531,2.9176,3.017,2.9897,2.8258,2.8258,2.8081,2.7715,2.7441,2.7262,2.7262,2.7262,2.7262,2.7262,2.7262,2.7262,2.7262,2.7262,2.7262,2.7262,2.7262,2.7262,2.7262,2.7262,2.7262,2.7231,2.7076,2.7024,2.6993,2.6837,2.6796,2.6827,2.6982,2.7024,2.7065,2.722,2.7262,2.7262,2.7262,2.7262,2.7262,2.7262,2.7262,2.7262,2.7262,2.7167,2.688,2.6592,2.6304,2.612,2.5732,2.5742,2.5684,2.5527,2.3492,2.2016,2.1611,1.983,1.8628,1.8628,1.843,1.8299,1.8299,1.8299,1.8255,1.8145,1.8138,1.8086,1.7977,1.7969,1.7969,1.7969,1.7969,1.7969,1.7969,1.7969,1.7969,2.3908,2.4322,2.4567,2.5119,2.5109,2.514,2.574,2.5544,2.5197,2.5362,2.5303,2.5303,2.5035,2.5675,2.6198,2.6249,2.6629,2.716,2.806,2.8596,2.9449,3.1148,3.1433,3.1663,0.0,0.0,0.0,3.2269,3.153,3.1089,3.1089,3.0536,2.9889,2.9431,3.0067,2.9712,2.8175,2.9176,2.8899,2.7262,2.7262,2.7262,2.7262,2.7262,2.7262,2.7262,2.7262,2.7262,2.7262,2.7262,2.7262,2.7262,2.7262,2.7262,2.7262,2.7262,2.7262,2.7262,2.7262,2.7262,2.7262,2.7262,2.7262,2.7262,2.7262,2.7262,2.7262,2.7262,2.7262,2.7262,2.7262,2.7262,2.7262,2.7262,2.7262,2.7262,2.7262,2.7262,2.7262,2.7262,2.7262,2.6986,2.6592,2.6304,2.612,2.5732,2.5742,2.5742,2.5742,2.4205,2.3085,2.3085,2.0982,1.9555,1.9555,1.8962,1.865,1.865,1.865,1.8599,1.8482,1.8474,1.8423,1.8306,1.8299,1.8299,1.8299,1.8299,1.8299,1.8299,1.8299,1.8299,2.4457,2.4581,2.4674,2.5099,2.4892,2.4799,2.5647,2.5533,2.5269,2.5532,2.5513,2.5401,0.0,0.0,2.5655,2.6043,2.6176,2.6453,2.7169,2.8275,2.9052,0.0,0.0,0.0,0.0,0.0,0.0,3.0739,0.0,3.0079,3.0079,3.0079,2.9385,2.7976,2.973,2.9604,2.743,2.825,2.825,2.7324,2.7324,2.7324,2.7324,2.7324,2.7324,2.7324,2.7303,2.7293,2.7293,2.7272,2.7262,2.7262,2.7262,2.7262,2.7262,2.7262,2.7262,2.7262,2.7262,2.7262,2.7262,2.7262,2.7262,2.7262,2.7262,2.7262,2.7262,2.7262,2.7262,2.7262,2.7262,2.7262,2.7262,2.7262,2.7262,2.7262,2.7262,2.7262,2.7262,2.7262,2.7081,2.6805,2.6496,2.6024,2.5742,2.5742,2.5742,2.5742,2.5742,2.4805,2.4088,2.4088,2.219,2.0885,2.0885,1.9879,1.9279,1.9279,1.9279,1.914,1.8825,1.8811,1.8664,1.8357,1.835,1.835,1.835,1.835,1.835,1.835,1.835,1.835,2.4933,2.5057,2.5006,2.4778,2.4892,2.5109,2.5347,2.5316,2.5176,2.5122,2.4788,2.4456,2.4017,0.0,0.0,2.4916,2.5849,0.0,2.6724,2.7608,0.0,2.9807,0.0,3.059,3.102,3.0965,0.0,0.0,2.9914,3.0079,3.0079,2.9391,2.8854,2.8442,2.8915,2.8852,2.8266,2.8561,2.8561,2.8266,2.8266,2.8266,2.8266,2.8266,2.8266,2.8245,2.7903,2.7759,2.7728,2.7396,2.7262,2.7262,2.7262,2.7262,2.7262,2.7262,2.7262,2.7262,2.7262,2.7262,2.7262,2.7262,2.7262,2.7262,2.7262,2.7262,2.7262,2.7262,2.7262,2.7262,2.7262,2.7262,2.7262,2.7262,2.7262,2.7262,2.7262,2.7262,2.7262,2.7081,2.6592,2.6294,2.6197,2.5917,2.5742,2.5742,2.5742,2.5742,2.5742,2.4805,2.4088,2.4088,2.219,2.0885,2.0885,1.9879,1.9279,1.9279,1.9279,1.9242,1.9155,1.9147,1.9111,1.903,1.903,1.903,1.903,1.903,1.903,1.903,1.903,1.903,2.5161,2.5078,2.4923,2.4861,2.4892,2.4985,2.5181,2.499,2.4671,2.4486,2.4119,2.3764,2.3406,2.3877,2.4293,0.0,0.0,0.0,2.6362,2.7242,2.8208,0.0,2.9642,0.0,3.0461,3.0493,3.0197,0.0,2.9874,3.0019,3.0019,2.9523,2.9125,2.8918,2.8918,2.8825,2.8618,2.8618,2.8618,2.8618,2.8618,2.8618,2.8618,2.8618,2.8618,2.8597,0.0,2.811,2.7903,2.7655,2.7438,2.7262,2.7262,2.7262,2.7262,2.7262,2.7262,2.7262,2.7262,2.7262,2.7262,2.7262,2.7262,2.7262,2.7262,2.7262,2.7262,2.7262,2.7262,2.7262,2.7262,2.7262,2.7262,2.7262,2.7262,2.7262,2.7262,2.7262,2.7262,2.6996,2.6592,2.6197,2.61,2.5917,2.5742,2.5742,2.5742,2.5742,2.5742,2.5118,2.4805,2.4805,2.2894,2.1582,2.1582,2.0181,1.9279,1.9279,1.9279,1.9279,1.9279,1.9279,1.9279,1.9279,1.9279,1.9279,1.9279,1.9279,1.9279,1.9279,1.9279,1.9279,2.5233,2.4892,2.4633,2.5037,2.484,2.4557,2.4959,2.4666,2.41,2.377,2.3501,2.3327,2.3057,2.3231,2.365,2.4265,0.0,2.534,2.5971,2.6946,2.7784,2.8086,2.8941,2.9597,2.9879,2.9994,2.9994,2.9994,2.9994,2.9994,2.9994,2.9994,2.9808,2.9415,2.9394,2.9208,2.8804,2.8794,2.8794,2.8794,2.8794,2.8794,2.8794,2.8794,2.8794,2.8794,2.8731,2.8473,2.81,2.7976,2.7696,2.7345,2.7282,2.7262,2.7262,2.7262,2.7262,2.7262,2.7262,2.7262,2.7262,2.7262,2.7262,2.7262,2.7262,2.7262,2.7262,2.7262,2.7262,2.7262,2.7262,2.7262,2.7262,2.7262,2.7262,2.7262,2.7262,2.7262,2.7177,2.69,2.6602,2.64,2.61,2.582,2.5742,2.5742,2.5742,2.5742,2.5742,2.5742,2.5742,2.5742,2.3908,2.2685,2.2484,2.0688,1.948,1.9279,1.9279,1.9279,1.9279,1.9279,1.9279,1.9279,1.9279,1.9279,1.9279,1.9279,1.9279,1.9279,1.9279,1.9279,2.5233,2.4892,2.456,2.4643,2.4602,2.4475,2.4385,2.4257,0.0,2.3218,2.3063,2.2883,2.2627,2.2798,2.3117,2.363,2.4245,2.4786,2.533,2.6124,2.6999,0.0,2.8574,2.9135,2.9628,2.9669,0.0,0.0,2.9669,2.9774,2.9994,2.9994,2.9953,2.988,2.988,2.9839,2.9756,2.9756,2.9756,2.9756,2.9756,2.9756,2.9756,2.9756,2.9756,2.9735,2.9352,0.0,2.9001,2.8235,2.7872,2.7769,2.7407,2.7262,2.7262,2.7262,2.7262,2.7262,2.7262,2.7262,2.7262,2.7262,2.7262,2.7262,2.7262,2.7262,2.7262,2.7262,2.7262,2.7262,2.7262,2.7262,2.7262,2.7262,2.7262,2.7262,2.7262,2.7177,2.689,2.6602,2.639,2.61,2.583,2.5732,2.5742,2.5742,2.5742,2.5742,2.5742,2.5742,2.5742,2.5742,2.4609,2.3484,2.2584,2.1387,2.0285,1.9376,1.9279,1.9279,1.9279,1.9279,1.9279,1.9279,1.9279,1.9279,1.9279,1.9279,1.9279,1.9279,1.9279,1.9279,2.5295,2.5233,2.5181,2.4954,2.4902,2.4815,2.4641,0.0,0.0,2.2993,2.2597,2.2355,2.2187,2.2457,2.2758,2.3137,2.3809,2.4486,2.4925,2.5744,2.6543,2.7192,2.7953,2.8652,2.8988,2.9211,2.9343,2.9343,2.9343,2.9448,2.9774,3.0116,3.0356,3.0356,3.0584,3.0708,3.0708,3.0708,3.0708,3.0708,3.0708,3.0708,3.0708,3.0708,3.0584,3.0336,3.0118,2.9611,2.8907,2.8462,2.8007,2.7552,2.7345,2.7262,2.7262,2.7262,2.7262,2.7262,2.7262,2.7262,2.7262,2.7262,2.7262,2.7262,2.7262,2.7262,2.7262,2.7262,2.7262,2.7262,2.7262,2.7262,2.7324,2.7552,2.779,2.7966,2.7966,2.778,2.7425,2.6996,2.6643,2.6349,2.6074,2.6074,2.6152,2.6367,2.6396,2.6396,2.6396,2.6396,2.623,2.5781,2.4205,2.3085,2.2584,2.0987,1.9887,1.9376,1.9279,1.9279,1.9279,1.9279,1.9279,1.9279,1.9279,1.9279,1.9279,1.9279,1.9279,1.9279,1.9279,1.9279,2.502,2.5132,2.5355,2.5197,2.5088,2.4759,2.4398,2.3523,0.0,2.234,2.1797,2.1482,2.1482,2.1923,2.2412,0.0,2.3329,2.4078,2.4503,2.5233,2.5915,0.0,2.7379,0.0,2.8364,2.8775,0.0,2.9026,2.9026,2.9182,2.9591,3.0257,3.0611,3.0714,3.1184,3.1381,3.1381,3.1381,3.1381,3.1381,3.1381,3.1381,3.1381,3.1381,3.1174,3.0833,3.0729,3.0067,2.9042,2.8845,2.8286,2.7541,2.7438,2.7345,2.7262,2.7262,2.7262,2.7262,2.7262,2.7262,2.7262,2.7262,2.7262,2.7262,2.7262,2.7262,2.7262,2.7262,2.7262,2.7262,2.7262,2.7334,2.751,2.7966,2.8349,2.8618,2.8618,2.8418,2.8125,2.7471,2.7202,2.6903,2.6624,2.6523,2.6631,2.6963,2.7012,2.7012,2.7012,2.7012,2.6758,2.6084,2.4263,2.3036,2.2723,2.0941,1.9688,1.9381,1.9316,1.9279,1.9279,1.9279,1.9279,1.9279,1.9279,1.9279,1.9279,1.9279,1.9279,1.9279,1.9279,1.9279,2.4029,2.4047,2.3974,2.4964,2.4612,2.3729,2.2502,0.0,2.118,2.0318,2.0135,2.0116,2.0116,2.1129,2.181,0.0,0.0,2.335,2.3789,2.4248,2.4853,2.5693,0.0,0.0,2.8117,2.846,2.8727,2.8727,2.8727,2.9003,2.9715,3.0089,3.0401,3.0819,3.123,3.1381,3.1381,3.1381,3.1381,3.1381,3.1381,3.1381,3.1381,3.1381,3.135,3.1288,3.0874,3.0615,0.0,2.9591,2.8938,2.8452,2.8028,2.7614,2.7262,2.7262,2.7262,2.7262,2.7262,2.7262,2.7262,2.7262,2.7262,2.7262,2.7262,2.7262,2.7262,2.7262,2.7262,2.7262,2.7262,2.7562,2.7976,2.8442,2.8587,2.8618,2.8618,2.8618,2.8407,2.7864,2.7754,2.7552,2.7055,2.6953,2.6973,2.7012,2.7012,2.7012,2.7012,2.7012,2.6982,2.6904,2.5722,2.4548,2.3608,2.2055,2.0747,1.9824,1.944,1.9279,1.9279,1.9279,1.9279,1.9279,1.9279,1.9279,1.9279,1.9279,1.9279,1.9279,1.9279,1.9279,2.2615,2.289,2.2989,2.277,2.2544,2.2121,2.1148,0.0,1.9453,1.8985,1.8683,1.8602,1.9164,1.9615,2.0089,0.0,0.0,0.0,2.1925,2.2917,2.3777,2.4362,2.5788,0.0,0.0,0.0,2.8239,2.8388,2.8514,2.881,2.9609,3.0298,3.0939,3.1521,3.1932,3.2188,3.2188,3.2188,3.2188,3.2188,3.2188,3.2188,3.2178,3.1899,3.1629,3.135,3.0884,3.0367,0.0,2.9456,2.9032,2.8597,2.8411,2.8059,2.7655,2.7655,2.7489,2.7262,2.7262,2.7262,2.7262,2.7262,2.7262,2.7262,2.7262,2.7262,2.7262,2.7262,2.7262,2.7262,2.7262,2.78,2.839,2.8566,2.9042,2.9446,2.9446,2.9343,2.9044,2.8369,2.8114,2.7898,2.7506,2.7402,2.749,2.7744,2.7783,2.7783,2.7783,2.7783,2.7783,2.7783,2.5697,2.4027,2.3605,2.1798,2.0465,2.0047,1.9747,1.9572,1.9572,1.9381,1.9279,1.9279,1.9279,1.9279,1.9279,1.9279,1.9279,1.9279,1.9279,1.9381,2.0824,2.124,2.1452,2.1094,2.0739,2.0352,0.0,0.0,1.7734,1.7497,1.7206,1.7218,1.7881,1.8275,1.8711,0.0,0.0,1.9995,2.0632,2.1706,2.2671,2.3358,0.0,2.5786,0.0,2.7519,2.7969,2.8271,2.796,2.816,2.8983,2.9351,3.0234,3.1881,3.2323,3.2612,3.2727,3.2727,3.2664,3.252,3.252,3.2457,3.2313,3.1992,3.1671,3.135,3.0884,3.0315,0.0,2.957,2.9239,2.8825,2.8825,2.8535,2.8131,2.8131,2.7841,2.7458,2.7458,2.7365,2.7262,2.7262,2.7262,2.7262,2.7262,2.7262,2.7262,2.7262,2.7262,2.7293,2.7427,2.8038,2.8649,2.8783,2.9425,2.9994,2.9994,2.9774,2.9462,2.8844,2.8471,2.8157,2.7957,2.7851,2.7949,2.8252,2.8291,2.8291,2.8291,2.8291,2.8291,2.8291,2.6004,2.426,2.3939,2.1713,2.0377,2.0377,2.0077,1.9901,1.9901,1.9594,1.9418,1.9418,1.9323,1.9279,1.9279,1.9279,1.9323,1.9418,1.9418,1.9594,1.8676,1.9042,1.9213,2.0452,1.974,1.8532,0.0,1.664,1.6057,1.5803,1.5726,1.583,1.6181,1.7342,1.8082,1.7879,0.0,0.0,2.0189,2.0658,2.1418,0.0,0.0,2.3815,2.672,2.7783,2.8291,2.8291,2.7187,0.0,2.753,2.6793,2.8067,3.1632,3.2133,3.2487,3.2727,3.2727,3.2499,3.2043,3.2043,3.1816,3.1391,3.1381,3.1381,3.135,3.0884,3.0677,0.0,3.018,2.9715,2.9301,2.9301,2.9021,2.8607,2.8607,2.8317,2.7914,2.7914,2.7624,2.7262,2.7262,2.7262,2.7262,2.7262,2.7262,2.7262,2.7262,2.7262,2.7365,2.78,2.8266,2.8731,2.9187,2.9653,2.9994,2.9994,2.9774,2.9448,2.9122,2.893,2.8621,2.8291,2.8281,2.8291,2.8291,2.8291,2.8291,2.8291,2.8291,2.8291,2.8291,2.7178,2.5954,2.482,2.2204,2.072,2.072,2.0413,2.023,2.023,1.9923,1.9755,1.9755,1.944,1.9279,1.9279,1.9279,1.944,1.9755,1.9755,1.993,1.6419,1.6766,1.6742,1.6762,1.6493,1.607,1.5456,1.4964,1.4653,1.457,1.457,1.4752,1.5459,1.5811,1.6184,1.6953,1.7267,0.0,0.0,0.0,0.0,2.0833,2.3094,2.493,0.0,0.0,2.8291,2.8291,2.796,2.7592,2.7327,2.6865,2.7267,2.8793,2.8937,2.9179,2.9661,2.9498,2.9534,2.9756,2.9756,2.98,2.9662,2.9248,2.9111,2.9082,2.8652,2.8457,2.8447,2.831,2.8502,2.891,2.891,2.896,2.9083,2.9083,2.8597,2.7924,2.7924,2.7634,2.7262,2.7262,2.7262,2.7262,2.7262,2.7262,2.7262,2.7262,2.7262,2.7293,2.7438,2.78,2.8255,2.8721,2.9187,2.9611,2.9702,2.9659,2.9448,2.894,2.8727,2.8621,2.8408,2.8291,2.8291,2.8291,2.8291,2.8291,2.8291,2.8291,2.8291,2.8291,2.7187,2.5963,2.4829,2.3199,2.1933,2.105,2.075,2.0567,2.0567,2.0259,2.0084,2.0084,1.9981,1.993,1.993,1.993,1.9981,2.0091,2.0311,2.0472,0.0,1.4473,1.4719,1.4511,1.4509,0.0,0.0,1.4033,1.3799,1.3799,1.3799,1.4059,1.4703,1.4794,1.5057,1.607,1.6286,1.6484,0.0,0.0,0.0,1.9295,0.0,0.0,0.0,2.5691,2.6784,2.6943,2.6479,2.5955,2.5436,2.4777,2.4521,2.4844,2.6169,2.7133,2.76,2.7623,2.7741,2.8173,2.8173,2.821,2.8271,2.8005,2.7891,2.7763,2.7498,2.7384,0.0,2.7384,2.7716,2.8252,2.8252,2.8414,2.8595,2.8595,2.8044,2.7282,2.758,2.7272,2.687,2.7167,2.7262,2.7262,2.7262,2.7262,2.7262,2.7262,2.7262,2.7262,2.7262,2.7593,2.7997,2.8286,2.8711,2.9064,2.9321,2.9309,2.9046,2.8804,2.8621,2.8514,2.8291,2.8291,2.8291,2.8291,2.8291,2.8291,2.8291,2.8291,2.8291,2.8291,2.7628,2.6735,2.5507,2.3975,2.2539,2.1325,2.102,2.0903,2.0903,2.0596,2.042,2.042,2.0296,2.0237,2.0237,2.0362,2.042,2.0428,2.0757,2.0903,0.0,1.2269,1.3086,1.3388,1.3655,1.3916,0.0,0.0,0.0,1.3492,1.3492,1.3594,1.3923,1.4253,1.4684,1.5328,1.5957,1.6484,0.0,1.7165,0.0,0.0,2.1156,0.0,2.206,2.3377,2.4382,2.4624,2.3357,2.252,2.252,2.1418,2.0759,2.0655,2.3888,2.5716,2.6207,2.6424,2.6659,2.6902,2.6902,2.7059,2.7178,2.7178,2.7178,0.0,2.7178,2.7178,2.7178,2.7178,2.7276,2.7276,2.7276,2.7384,2.7384,2.7463,2.695,2.6368,2.7137,2.6784,2.6294,2.7061,2.7262,2.7262,2.7262,2.7262,2.7262,2.7262,2.7262,2.7262,2.7262,2.7572,2.7883,2.7914,2.8245,2.859,2.8768,2.8654,2.8465,2.8599,2.8465,2.8262,2.8291,2.8291,2.8291,2.8291,2.8291,2.8291,2.8291,2.8291,2.8291,2.8291,2.8291,2.7843,2.6636,2.442,2.2644,2.1432,2.1211,2.1211,2.1211,2.0918,2.0757,2.0757,2.0457,2.0303,2.0303,2.0611,2.0757,2.0764,2.1064,2.1211,0.9559,0.0,1.1603,1.2114,1.2393,1.2734,0.0,0.0,0.0,0.0,0.0,1.3594,1.3923,1.4253,1.4684,1.5328,1.5957,1.6484,1.6813,0.0,0.0,1.9341,2.0859,2.1844,2.161,2.3009,2.3909,2.4003,2.3713,2.3128,2.2153,2.1577,2.0918,1.9989,2.0871,2.1736,2.2696,2.2632,2.3072,2.4259,2.4259,2.4708,2.5357,2.5357,2.5357,2.5357,2.5357,2.5357,2.5357,2.5357,2.578,2.6409,2.6409,2.6844,2.7454,2.7775,2.7525,2.7127,2.76,2.7426,2.7071,2.7262,2.7262,2.7262,2.7262,2.7262,2.7262,2.7262,2.7262,2.7262,2.7262,2.7334,2.75,2.7841,2.8007,2.8017,2.8077,2.7975,2.8004,2.7944,2.7917,2.792,2.8232,2.8291,2.8291,2.8291,2.8291,2.8291,2.8291,2.8291,2.8291,2.8291,2.8291,2.7843,2.6636,2.5177,2.3855,2.2644,2.1759,2.1211,2.1211,2.1137,2.1094,2.1094,2.102,2.0984,2.0984,2.1057,2.1094,2.1094,2.1174,2.1211,0.8667,0.9539,1.0572,1.091,1.1335,1.1837,0.0,0.0,0.0,0.0,0.0,1.3594,1.3923,1.4253,1.4684,1.5328,1.5957,0.0,0.0,0.0,1.8496,1.9079,1.9928,2.0511,0.0,2.1486,2.198,2.214,2.2004,2.1703,2.1063,2.0634,2.0248,1.9542,1.9542,1.999,2.082,2.0681,2.1185,2.2352,2.2678,2.3219,2.3972,2.436,2.4547,2.4564,2.4744,2.4821,2.4821,2.4821,2.5026,2.5542,2.5248,2.5495,2.5982,2.6005,2.5702,2.5414,2.5996,2.6438,2.6774,2.7167,2.7262,2.7262,2.7262,2.7262,2.7262,2.7262,2.7262,2.7262,2.7262,2.7262,2.7324,2.7562,2.7624,2.7651,2.7621,2.7612,2.7543,2.7574,2.7633,2.7744,2.7969,2.8164,2.8291,2.8291,2.8291,2.8291,2.8291,2.8291,2.8291,2.8291,2.8291,2.8067,2.7403,2.5726,2.4181,2.3087,2.1873,2.1211,2.1211,2.1211,2.1211,2.1211,2.1211,2.1211,2.1211,2.1211,2.1211,2.1211,2.1211,2.1211,0.8317,0.9046,0.9716,0.9935,1.0386,1.1069,1.1814,0.0,0.0,0.0,0.0,0.0,0.0,1.4318,0.0,0.0,0.0,0.0,1.7252,1.7889,1.8299,1.8299,1.8877,0.0,1.9659,1.9689,1.9798,2.0069,1.9842,1.9689,1.9689,1.9425,1.9279,1.9279,1.9279,1.9411,1.9689,1.9952,2.0438,2.1025,2.1564,2.2231,2.2938,2.3676,2.4037,2.417,0.0,0.0,2.4641,2.4641,2.4641,2.4616,2.4273,2.4145,2.4102,2.3814,2.3583,2.341,2.414,2.5098,2.6187,2.687,2.7167,2.7262,2.7262,2.7262,2.7262,2.7262,2.7262,2.7262,2.7262,2.7262,2.7262,2.7262,2.7262,2.727,2.737,2.7148,2.7082,2.7211,2.7412,2.751,2.7646,2.7959,2.8223,2.8281,2.8291,2.8291,2.8291,2.8291,2.8291,2.8291,2.8291,2.8291,2.8291,2.6054,2.4292,2.3303,2.1987,2.1211,2.1211,2.1211,2.1211,2.1211,2.1211,2.1211,2.1211,2.1211,2.1211,2.1211,2.1211,2.1211,0.8317,0.8652,0.8933,0.9309,0.9849,1.039,1.1,0.0,0.0,0.0,0.0,0.0,0.0,1.4655,1.5167,0.0,0.0,1.7216,0.0,0.0,1.8299,1.8299,0.0,1.9294,1.9345,1.9352,1.9374,1.9418,1.9374,1.9352,1.9352,1.9301,1.9279,1.9279,1.9279,1.9301,1.9352,1.9403,1.9873,2.0787,2.0894,2.1573,2.293,2.3095,2.3342,2.3794,0.0,2.3862,2.3845,2.3845,2.3845,2.3836,2.3776,2.3751,2.3814,2.4145,2.4155,2.4158,2.4616,2.5352,2.61,2.6197,2.6774,2.7262,2.7262,2.7262,2.7262,2.7262,2.7262,2.7262,2.7262,2.7262,2.7262,2.7262,2.7262,2.7187,2.678,2.6597,2.6533,2.6596,2.6533,2.6816,2.7539,2.7715,2.7881,2.8242,2.8291,2.8291,2.8291,2.8291,2.8291,2.8291,2.8291,2.8291,2.8291,2.6054,2.4616,2.4505,2.2418,2.1211,2.1211,2.1211,2.1211,2.1211,2.1211,2.1211,2.1211,2.1211,2.1211,2.1211,2.1211,2.1211,0.7787,0.7977,0.8257,0.904,0.9777,1.0473,1.1191,0.0,0.0,0.0,0.0,0.0,0.0,0.0,1.5518,1.6477,0.0,1.7326,1.7326,1.7889,1.8299,0.0,0.0,1.9279,1.9279,1.9279,1.9279,1.9279,1.9279,1.9279,1.9279,1.9279,1.9279,1.9279,1.9279,1.9279,1.9279,1.9279,1.9561,1.9919,2.0218,2.0922,2.182,2.2338,2.2858,2.34,0.0,2.3691,2.3665,2.3665,2.3665,2.3648,2.3443,2.3365,2.3427,2.3338,2.3402,2.3467,2.408,2.451,2.4913,2.5294,2.5984,2.6678,2.6678,2.6678,2.6774,2.7167,2.7262,2.7262,2.7262,2.7262,2.7262,2.7262,2.7262,2.7167,2.6794,2.6602,2.646,2.627,2.632,2.6514,2.6904,2.7363,2.7734,2.792,2.8144,2.8291,2.8291,2.8291,2.8291,2.8291,2.7736,2.7305,2.7305,2.5186,2.3519,2.2862,2.1759,2.1211,2.1211,2.1211,2.1211,2.1211,2.1211,2.1211,2.1211,2.1211,2.1211,2.1211,2.1211,2.1211,0.7326,0.7587,0.7897,0.8775,0.0,1.0478,1.147,0.0,0.0,0.0,0.0,0.0,0.0,1.5187,0.0,1.6454,1.7028,1.7326,1.7326,1.7823,1.8218,1.8291,1.8811,1.9191,1.9264,1.9279,1.9279,1.9279,1.9279,1.9279,1.9279,1.9279,1.9279,1.9279,1.9279,1.9279,1.9279,1.9279,1.9279,1.9279,1.968,2.0189,2.0719,2.1514,2.2051,2.2585,2.3088,2.3207,2.319,2.34,2.34,2.3374,2.3091,2.298,2.2946,2.2655,2.2644,2.2644,2.3238,2.3538,2.3827,2.4402,2.5197,2.579,2.579,2.5994,2.6187,2.6572,2.687,2.7061,2.7262,2.7262,2.7262,2.7262,2.7262,2.7272,2.6996,2.6699,2.64,2.6197,2.6192,2.6269,2.6367,2.6934,2.7402,2.75,2.7871,2.8144,2.8144,2.8232,2.8291,2.8291,2.7187,2.6309,2.5753,2.3975,2.2539,2.1325,2.1211,2.1211,2.1211,2.1211,2.1211,2.1211,2.1211,2.1211,2.1211,2.1211,2.1211,2.1211,2.1211,2.1211,0.7326,0.7847,0.8223,0.8508,0.0,0.0,1.1133,1.1835,0.0,0.0,0.0,0.0,0.0,1.5068,1.5657,1.5725,1.665,1.7326,1.7326,0.0,1.7962,1.8262,1.8613,1.8942,1.925,1.9279,1.9279,1.9279,1.9279,1.9279,1.9279,1.9279,1.9279,1.9279,1.9279,1.9279,1.9279,1.9279,1.9279,1.9279,1.9376,1.968,2.0189,2.0212,2.0537,2.1059,2.1595,2.1799,2.191,2.2418,2.273,2.2722,2.2696,2.2687,2.2586,2.2653,2.2644,2.2653,2.2644,2.3138,2.3728,2.3728,2.4313,2.4992,2.4992,2.5499,2.5994,2.5285,2.5596,2.639,2.7061,2.7262,2.7262,2.7262,2.7262,2.7272,2.6996,2.6699,2.64,2.6197,2.5946,2.5918,2.6318,2.6435,2.6611,2.7002,2.7432,2.7715,2.7715,2.8057,2.8291,2.8291,2.7187,2.5643,2.3424,2.3087,2.2539,2.1325,2.1211,2.1211,2.1211,2.1211,2.1211,2.1211,2.1211,2.1211,2.1211,2.1211,2.1211,2.1211,2.1211,2.1211,0.6745,0.7357,0.8038,0.8378,0.0,0.0,0.0,0.0,0.0,0.0,0.0,0.0,0.0,0.0,1.5246,1.5892,1.6303,1.6763,1.7232,1.7611,1.786,1.7984,1.8284,1.8613,1.8942,1.8972,1.906,1.9257,1.9279,1.9279,1.9279,1.9279,1.9279,1.9279,1.9279,1.9279,1.9279,1.9279,1.9279,1.9279,1.9279,1.9576,2.0078,2.0078,2.0395,2.0917,2.1121,2.1224,2.1224,2.1827,2.203,2.203,2.2443,2.2644,2.2644,2.2644,2.2644,2.2644,2.2644,2.2745,2.3038,2.3038,2.3529,2.4115,2.4115,2.4421,2.4618,2.4796,2.4805,2.4913,2.6187,2.6582,2.6678,2.7167,2.7262,2.7272,2.6996,2.6699,2.64,2.6197,2.5917,2.5791,2.5957,2.6211,2.6435,2.6602,2.6982,2.7363,2.7627,2.7803,2.7998,2.8262,2.6509,2.431,2.1803,2.1752,2.1653,2.1211,2.1211,2.1211,2.1211,2.1211,2.1211,2.1211,2.1211,2.1211,2.1211,2.1211,2.1211,2.1211,2.1211,2.1211,0.6552,0.7216,0.8025,0.0,0.0,0.0,0.0,0.0,0.0,0.0,1.4064,0.0,0.0,0.0,0.0,0.0,1.5717,1.6001,1.6567,1.7042,1.7309,1.7416,1.7819,1.8277,1.8606,1.8635,1.873,1.895,1.8964,1.8964,1.8964,1.8964,1.8964,1.8964,1.8964,1.8964,1.8964,1.8964,1.8964,1.8964,1.8964,1.9273,1.9887,1.9887,2.0094,2.0411,2.0609,2.0609,2.0712,2.1224,2.1428,2.1522,2.2139,2.2342,2.2342,2.2544,2.2644,2.2644,2.2644,2.2644,2.2644,2.2644,2.2937,2.3338,2.3338,2.3538,2.3728,2.4115,2.3917,2.3926,2.5011,2.5499,2.579,2.6167,2.6572,2.6678,2.6294,2.6294,2.6294,2.61,2.5917,2.5742,2.5742,2.5986,2.6073,2.5756,2.6021,2.6404,2.6691,2.6949,2.7027,2.7304,2.5577,2.345,2.1382,2.1144,2.1101,2.1203,2.1211,2.1211,2.1211,2.1211,2.1211,2.1211,2.1211,2.1211,2.1211,2.1211,2.1211,2.1211,2.1211,2.1211,0.6881,0.7617,0.0,0.0,0.0,0.0,0.0,0.0,0.0,0.0,0.0,1.3145,1.2509,0.0,0.0,1.3902,1.4573,1.5051,1.5051,1.5717,1.63,1.6607,1.7327,1.794,1.8269,1.8299,1.8299,1.8299,1.8299,1.8299,1.8299,1.8299,1.8299,1.8299,1.8299,1.8299,1.8299,1.8299,1.8299,1.8299,1.8299,1.8642,1.9264,1.9264,1.9264,1.9368,1.9872,2.0071,2.0071,2.0696,2.0909,2.0909,2.1514,2.1717,2.1717,2.2333,2.2535,2.2636,2.2636,2.2636,2.2544,2.2544,2.2644,2.2644,2.2644,2.3138,2.3538,2.2846,2.3138,2.3728,2.3728,2.4313,2.4796,2.4187,2.4894,2.5499,2.4992,2.5499,2.6091,2.6091,2.5917,2.5645,2.5742,2.5742,2.5323,2.4295,2.4455,2.484,2.484,2.519,2.5317,2.5176,2.4237,2.3227,2.241,2.1256,2.0859,2.1181,2.1203,2.1203,2.1211,2.1211,2.1211,2.1211,2.1211,2.1211,2.1211,2.1211,2.1211,2.1211,2.1211,2.1211,0.6552,0.7382,0.0,0.7863,0.0,0.0,0.0,0.0,0.0,0.0,0.0,1.2647,1.2726,0.0,0.0,1.3811,1.4094,1.4478,1.5051,1.5337,1.5465,1.5549,1.5754,1.6059,1.6255,1.6876,1.726,1.7484,1.8002,1.8299,1.8299,1.8299,1.8299,1.8299,1.8299,1.8299,1.8299,1.8299,1.8299,1.8299,1.8299,1.8401,1.8591,1.8591,1.8591,1.8591,1.8784,1.8784,1.8885,1.9376,1.9873,2.0178,2.0367,2.0671,2.0982,2.1178,2.1463,2.1747,2.1747,2.1927,2.2158,2.2158,2.2338,2.2644,2.2644,2.2745,2.2846,2.2644,2.2745,2.2946,2.2946,2.3138,2.3429,2.3998,2.4393,2.4393,2.389,2.3791,2.4088,2.4796,2.4796,2.4815,2.5538,2.5742,2.5323,2.4295,2.482,2.5532,2.5839,2.6231,2.6161,2.5034,2.4087,2.3123,2.1735,2.0884,2.0523,2.0852,2.0867,2.0969,2.1203,2.1211,2.1211,2.1211,2.1211,2.1211,2.1211,2.1211,2.1211,2.1211,2.1211,2.1211,0.7162,0.0,0.0,0.8485,1.0068,1.1796,1.2161,0.0,0.0,0.0,0.0,1.2597,1.2737,1.2764,0.0,1.3431,1.3431,1.3619,1.41,1.4484,1.4573,1.4573,1.4956,1.5115,1.5286,1.5789,1.6152,1.6333,1.6737,1.703,1.703,1.703,1.7134,1.7426,1.7426,1.762,1.7918,1.7918,1.7918,1.7918,1.7918,1.7918,1.7925,1.8182,1.8299,1.8299,1.8299,1.8299,1.8306,1.8686,1.8981,1.9282,1.947,1.9868,2.0362,2.0362,2.0837,2.1413,2.1222,2.1374,2.1764,2.1764,2.191,2.2124,2.2278,2.2329,2.2355,2.261,2.2644,2.2644,2.2644,2.2443,2.2434,2.3011,2.3302,2.3302,2.2793,2.2685,2.2885,2.3592,2.389,2.4295,2.4913,2.543,2.5226,2.3692,2.3601,2.4008,2.4755,2.5409,2.5465,2.461,2.3759,2.2719,2.1522,2.0567,2.0186,2.0508,2.053,2.0618,2.0815,2.1072,2.1211,2.1211,2.1211,2.1211,2.1211,2.1211,2.1211,2.1211,2.1211,2.1211,0.8178,0.0,0.0,0.959,1.0636,0.0,1.233,1.3179,1.364,1.2403,0.0,1.2764,1.2764,1.2764,1.2764,1.2764,1.2764,1.2764,1.2764,1.3335,1.3811,1.3811,1.4478,1.486,1.486,1.4956,1.4956,1.4956,1.5051,1.5051,1.5051,1.5051,1.5432,1.6096,1.6096,1.6379,1.7044,1.7138,1.7138,1.7138,1.7138,1.7138,1.7254,1.794,1.8211,1.8211,1.8211,1.8211,1.8211,1.8211,1.8211,1.8211,1.8784,1.9272,1.9773,1.9773,2.0344,2.112,2.0649,2.0866,2.1266,2.1266,2.1379,2.1482,2.1833,2.1944,2.2021,2.2389,2.2601,2.2501,2.2636,2.2131,2.1725,2.1725,2.203,2.2114,2.1692,2.1887,2.2291,2.2391,2.3185,2.389,2.4088,2.4913,2.4922,2.2894,2.1684,2.1387,2.2383,2.3384,2.3989,2.3989,2.2985,2.2122,2.1442,2.0332,1.985,2.0172,2.0194,2.0201,2.0237,2.0808,2.1137,2.1167,2.1167,2.1181,2.1211,2.1211,2.1211,2.1211,2.1211,2.1211,0.731,0.8201,0.0,0.0,1.0401,1.1804,1.233,1.2685,1.2791,1.2188,1.2431,1.2764,1.2764,1.2764,1.2764,1.2764,1.2764,1.2764,1.2764,1.2953,1.305,1.305,1.3147,1.3335,1.3335,1.3811,1.419,1.419,1.4765,1.5051,1.5051,1.5051,1.5146,1.5337,1.5337,1.5432,1.5527,1.5527,1.5527,1.5527,1.5527,1.5906,1.648,1.7188,1.7538,1.7538,1.7538,1.7538,1.7538,1.7538,1.7538,1.7538,1.7625,1.801,1.8488,1.8488,1.8863,1.9329,1.9236,1.9703,2.0404,2.0404,2.0881,2.1422,2.1508,2.1533,2.1619,2.2004,2.2115,2.2184,2.2475,2.2131,2.1725,2.1725,2.1105,2.0593,2.0483,2.0181,2.0285,2.1081,2.1387,2.2089,2.3791,2.4295,2.4295,2.3791,2.2885,2.2291,2.2484,2.2685,2.2885,2.2885,2.1887,2.1216,2.0988,1.9985,1.952,1.9842,1.9864,1.9974,2.0223,2.0369,2.0567,2.0823,2.083,2.0955,2.1211,2.1211,2.1211,2.1211,2.1211,2.1211,0.0,0.0,0.0,0.963,0.0,1.0991,1.139,1.1505,1.1531,1.1578,1.217,1.263,1.2743,1.2764,1.2764,1.2764,1.2764,1.2764,1.2764,1.2764,1.2764,1.2764,1.2764,1.2764,1.2764,1.3141,1.3335,1.3335,1.3715,1.4004,1.4004,1.4004,1.4196,1.4478,1.4573,1.4669,1.5051,1.5051,1.5051,1.5051,1.5051,1.5527,1.619,1.6951,1.7326,1.7326,1.7326,1.7326,1.7326,1.7326,1.7326,1.7326,1.7326,1.7613,1.8087,1.78,1.8179,1.8735,1.855,1.8939,1.9471,1.9471,1.9967,2.0525,2.071,2.0959,2.1234,2.161,2.1713,2.1807,2.2184,2.187,2.1502,2.1684,2.0901,2.0078,2.0078,1.968,1.948,1.9983,2.0585,2.1285,2.2391,2.2593,2.2593,2.2593,2.1684,2.1183,2.1692,2.1684,2.1684,2.1684,2.1183,2.068,2.0181,1.9576,1.9345,1.952,1.9528,1.9601,1.9769,1.9777,2.0003,2.0479,2.064,2.0808,2.0976,2.113,2.1211,2.1211,2.1211,2.1211,0.0,0.0,0.9619,1.0358,1.0201,0.0,1.0489,1.0402,1.0389,1.0796,1.1584,1.2331,1.2662,1.27,1.2716,1.2759,1.2764,1.2764,1.2764,1.2764,1.2764,1.2764,1.2764,1.2764,1.2764,1.2764,1.2764,1.2764,1.2764,1.2764,1.2764,1.2764,1.305,1.3715,1.3715,1.3998,1.4669,1.4669,1.4669,1.4669,1.486,1.5242,1.5812,1.6662,1.7138,1.7326,1.7326,1.7326,1.7326,1.7326,1.7326,1.7326,1.7326,1.7613,1.7893,1.7426,1.78,1.8458,1.8079,1.8272,1.8643,1.8643,1.9004,1.9512,1.9816,2.0297,2.0755,2.1113,2.1224,2.1405,2.1701,2.1394,2.1057,2.126,2.0515,1.9838,2.0055,1.968,1.9279,1.9279,2.0181,2.0885,2.0885,2.1081,2.1081,2.0885,2.0181,1.9783,2.0483,2.0585,2.0585,2.0585,2.0585,2.0285,1.9376,1.9279,1.9279,1.9279,1.9279,1.9279,1.9279,1.9279,1.9528,2.0062,2.0391,2.0581,2.064,2.0969,2.1123,2.113,2.1181,2.1211,0.0,0.0,0.928,0.0,1.0093,0.9973,0.0,0.0,1.0129,0.0,1.0995,1.1708,1.232,1.2463,1.2527,1.2732,1.2764,1.2764,1.2764,1.2764,1.2764,1.2764,1.2764,1.2764,1.2764,1.2764,1.2764,1.2764,1.2764,1.2764,1.2764,1.2764,1.2861,1.2953,1.2953,1.2953,1.3147,1.3147,1.3147,1.3147,1.3715,1.4094,1.4286,1.571,1.6669,1.7326,1.7326,1.7326,1.7326,1.7326,1.7326,1.7326,1.7326,1.7326,1.7419,1.7326,1.7419,1.7512,1.7419,1.7707,1.8179,1.8179,1.855,1.8928,1.8976,1.9353,1.9795,2.016,2.0653,2.0942,2.0933,2.0435,1.994,1.9587,1.9011,1.8784,1.9854,1.968,1.9279,1.9279,2.0181,2.0885,2.0885,2.1684,2.1988,2.1089,2.0783,2.038,1.9576,1.9472,1.9472,1.9472,1.9472,1.948,1.9272,1.9279,1.9279,1.9279,1.9279,1.9279,1.9279,1.9279,1.9316,1.9403,1.9725,2.0025,2.0303,2.0625,2.0786,2.0794,2.1079,2.1211,0.7103,0.8204,0.9052,0.0,0.987,0.9727,0.9903,0.0,0.9484,0.9693,0.9986,1.0505,1.1677,1.1838,1.2005,1.2527,1.2571,1.2614,1.2748,1.2764,1.2764,1.2764,1.2764,1.2764,1.2764,1.2764,1.2764,1.2764,1.2764,1.2764,1.2764,1.2764,1.2764,1.2764,1.2764,1.2764,1.2764,1.2764,1.2764,1.2764,1.3147,1.3528,1.3902,1.4573,1.552,1.6669,1.7138,1.7326,1.7326,1.7326,1.7326,1.7326,1.7326,1.7326,1.7326,1.7326,1.7326,1.7326,1.7326,1.7419,1.7613,1.7613,1.7986,1.8365,1.8365,1.8735,1.922,1.9652,1.9979,2.0163,2.0351,2.0148,1.9902,1.9221,1.8875,1.876,1.9059,1.9073,1.906,1.9242,1.968,1.9983,1.9983,2.038,2.0585,2.0078,1.9983,1.9879,1.9376,1.9279,1.9279,1.9279,1.9279,1.9279,1.9279,1.9279,1.9279,1.9279,1.9279,1.9279,1.9279,1.9279,1.936,1.9542,1.9864,2.0098,2.0237,2.075,2.0998,2.0998,2.1145,2.1211,0.0,0.0,0.8533,0.9416,0.9474,0.9271,0.0,0.0,0.8772,0.0,0.9013,0.9376,1.0624,1.101,1.139,1.1999,1.2135,1.2288,1.256,1.2635,1.2678,1.2678,1.2727,1.2764,1.2764,1.2764,1.2764,1.2764,1.2764,1.2764,1.2764,1.2764,1.2764,1.2764,1.2764,1.2764,1.2764,1.2764,1.2764,1.2764,1.2764,1.305,1.3619,1.3811,1.4573,1.571,1.6567,1.7044,1.7044,1.7232,1.7326,1.7326,1.7326,1.7326,1.7326,1.7326,1.7326,1.7326,1.7326,1.7326,1.7326,1.7326,1.7613,1.79,1.79,1.8272,1.8735,1.9096,1.9271,1.9428,1.9512,1.9584,1.9461,1.8758,1.8618,1.8574,1.8361,1.8496,1.876,1.9089,1.9155,1.9177,1.9257,1.9279,1.9279,1.9279,1.9279,1.9279,1.9279,1.9279,1.9279,1.9279,1.9279,1.9279,1.9279,1.9279,1.9279,1.9279,1.9279,1.9279,1.9279,1.936,1.9513,1.9762,2.0157,2.0318,2.0237,2.0808,2.1086,2.1086,2.1167,2.1211,0.0,0.6954,0.0,0.8742,0.0,0.0,0.0,0.0,0.8077,0.8353,0.8389,0.8533,0.9253,0.9962,1.061,1.1293,1.1426,1.161,1.2081,1.2285,1.2431,1.2431,1.263,1.2764,1.2764,1.2764,1.2764,1.2764,1.2764,1.2764,1.2764,1.2764,1.2764,1.2764,1.2764,1.2764,1.2764,1.2764,1.2764,1.2764,1.2764,1.2861,1.2856,1.3619,1.3902,1.4094,1.5622,1.6285,1.6285,1.7044,1.7326,1.7326,1.7326,1.7326,1.7326,1.7326,1.7326,1.7326,1.7326,1.7326,1.7326,1.7326,1.7326,1.7326,1.7326,1.7707,1.8179,1.8179,1.8458,1.8735,1.8295,1.8202,1.8109,1.7557,1.7377,1.7545,1.8167,1.8313,1.8423,1.8752,1.8811,1.8913,1.922,1.9279,1.9279,1.9279,1.9279,1.9279,1.9279,1.9279,1.9279,1.9279,1.9279,1.9279,1.9279,1.9279,1.9279,1.9279,1.9279,1.9279,1.9279,1.9572,1.9747,1.9762,2.0377,2.0545,2.0237,2.0581,2.075,2.0757,2.1064,2.1211,0.0,0.0,0.0,0.7674,0.8033,0.8341,0.8394,0.8348,0.8218,0.816,0.8207,0.8394,0.8631,0.9231,0.9864,1.0605,1.0729,1.096,1.1569,1.1754,1.1899,1.2178,1.2253,1.2366,1.2527,1.2538,1.2603,1.2754,1.2764,1.2764,1.2764,1.2764,1.2764,1.2764,1.2764,1.2764,1.2764,1.2764,1.2764,1.2764,1.2764,1.2764,1.2764,1.305,1.3147,1.3238,1.4286,1.5337,1.619,1.648,1.6857,1.7326,1.7326,1.7326,1.7326,1.7326,1.7326,1.7326,1.7326,1.7326,1.7326,1.7326,1.7326,1.7326,1.7326,1.7419,1.7613,1.7994,1.8179,1.8272,1.8179,1.8087,1.7986,1.7419,1.7326,1.7391,1.7625,1.7845,1.8086,1.8408,1.865,1.8825,1.8942,1.914,1.9279,1.9279,1.9279,1.9279,1.9279,1.9279,1.9279,1.9279,1.9279,1.9279,1.9279,1.9279,1.9279,1.9279,1.9279,1.9279,1.9279,1.9586,1.9857,2.0062,2.0501,2.0669,2.0545,2.0874,2.1035,2.1035,2.1159,2.1211,0.4885,0.0,0.0,0.0,0.0,0.7834,0.7944,0.0,0.7952,0.7959,0.8028,0.813,0.8187,0.8547,0.9143,0.9841,0.9972,1.0201,1.1066,1.1242,1.1475,1.193,1.2091,1.2113,1.2274,1.2291,1.2355,1.2511,1.2522,0.0,1.2522,1.2522,1.256,1.2646,1.2721,1.2764,1.2764,1.2764,1.2764,1.2764,1.2764,1.2764,1.2764,1.2764,1.2764,1.2861,1.3335,1.4286,1.5425,1.5717,1.6096,1.6567,1.6857,1.6951,1.6951,1.7232,1.7326,1.7326,1.7326,1.7326,1.7326,1.7326,1.7326,1.7326,1.7326,1.7326,1.7326,1.7707,1.78,1.78,1.78,1.78,1.7707,1.7419,1.7326,1.7326,1.7326,1.7501,1.775,1.8072,1.8313,1.8533,1.8752,1.8964,1.9147,1.9257,1.9279,1.9279,1.9279,1.9279,1.9279,1.9279,1.9279,1.9279,1.9279,1.9279,1.9279,1.9279,1.9279,1.9279,1.9279,1.9689,2.0018,2.023,2.0669,2.0889,2.0889,2.1101,2.1211,2.1211,2.1211,2.1211,0.0,0.0,0.0,0.0,0.0,0.0,0.7556,0.0,0.7322,0.7671,0.7752,0.7809,0.7975,0.8008,0.8296,0.9178,0.9248,0.9598,1.0463,1.0833,1.1153,1.1599,1.1887,1.2124,1.2129,1.2129,1.2129,1.214,1.214,1.214,1.214,1.214,1.2156,1.2393,1.2624,1.2743,1.2743,1.2748,1.2754,1.2754,1.2759,1.2764,1.2764,1.2764,1.2764,1.2764,1.2754,1.3232,1.3896,1.4758,1.5051,1.5146,1.5906,1.619,1.6285,1.6951,1.7232,1.7232,1.7232,1.7232,1.7326,1.7326,1.7326,1.7326,1.7326,1.7326,1.7326,1.7326,1.7326,1.7326,1.7326,1.7326,1.7326,1.7326,1.7326,1.7326,1.7326,1.7326,1.7421,1.7735,1.7808,1.8021,1.8664,1.8782,1.8899,1.9228,1.9279,1.9279,1.9279,1.9279,1.9279,1.9279,1.9279,1.9279,1.9279,1.9279,1.9279,1.9279,1.9279,1.9279,1.9279,1.9886,2.023,2.0237,2.0867,2.1203,2.1211,2.1211,2.1211,2.1211,2.1211,2.1211,0.3493,0.0,0.0,0.0,0.0,0.0,0.0,0.0,0.6798,0.7279,0.7581,0.7776,0.7821,0.7931,0.8214,0.8739,0.8954,0.9348,1.0101,1.0522,1.0912,1.1358,1.1505,1.1607,1.1779,1.1795,1.1865,0.0,1.214,1.214,1.214,1.214,1.2173,1.2145,1.2215,1.2248,1.2248,1.2425,1.2511,1.2511,1.2684,1.2764,1.2764,1.2764,1.2764,1.2754,1.2581,1.2606,1.2897,1.3831,1.4573,1.5146,1.5337,1.5432,1.5432,1.5622,1.6001,1.6473,1.6473,1.685,1.7326,1.7326,1.7326,1.7326,1.7326,1.7326,1.7326,1.7326,1.7326,1.7326,1.7326,1.7326,1.7326,1.7326,1.7326,1.7326,1.7326,1.7326,1.7355,1.7443,1.7655,1.7947,1.8364,1.8628,1.8899,1.9228,1.9279,1.9279,1.9279,1.9279,1.9279,1.9279,1.9279,1.9279,1.9279,1.9279,1.9279,1.9279,1.9279,1.9279,1.9279,1.9674,2.0003,2.023,2.0647,2.0976,2.1211,2.1211,2.1211,2.1211,2.1211,2.1211,0.0,0.0,0.0,0.0,0.0,0.0,0.5772,0.6072,0.6364,0.0,0.7338,0.7537,0.7537,0.7675,0.7897,0.8222,0.8733,0.9289,0.9832,1.0199,1.0488,1.1102,1.1198,1.1289,1.1532,1.1553,1.1607,1.1747,1.1758,1.1758,1.1758,1.1849,1.1903,1.1903,1.1995,1.214,1.214,1.2188,1.2264,1.2264,1.2398,1.2468,1.2468,1.2468,1.2468,1.2457,1.2318,1.2264,1.2362,1.2869,1.3396,1.3878,1.427,1.4508,1.452,1.4918,1.5337,1.5812,1.6096,1.6473,1.6857,1.7232,1.7326,1.7326,1.7326,1.7326,1.7326,1.7326,1.7326,1.7326,1.7326,1.7326,1.7326,1.7326,1.7326,1.7326,1.7326,1.7326,1.7326,1.7326,1.7479,1.7713,1.8043,1.8372,1.8694,1.9023,1.9191,1.9279,1.9279,1.9279,1.9279,1.9279,1.9279,1.9279,1.9279,1.9279,1.9279,1.9279,1.9279,1.9279,1.9279,1.9586,1.985,2.0033,2.0486,2.0881,2.1211,2.1211,2.1211,2.1203,2.1072,2.1006,0.0,0.0,0.0,0.0,0.0,0.0,0.5593,0.5776,0.6037,0.0,0.6997,0.7048,0.7048,0.7167,0.7322,0.7564,0.8313,0.9123,0.9705,0.9907,1.0223,1.084,1.0945,1.1031,1.1166,1.1187,1.1187,1.1187,1.1209,1.1322,1.1262,1.1548,1.1661,1.1661,1.186,1.1968,1.1968,1.1995,1.2102,1.2102,1.2129,1.214,1.214,1.214,1.214,1.214,1.2113,1.2102,1.2005,1.1978,1.2091,1.2162,1.3118,1.3415,1.3561,1.4444,1.4835,1.5051,1.5717,1.6001,1.619,1.6951,1.7138,1.7232,1.7232,1.7326,1.7326,1.7326,1.7326,1.7326,1.7326,1.7326,1.7326,1.7326,1.7326,1.7326,1.7326,1.7326,1.7326,1.7326,1.7326,1.7435,1.7757,1.8057,1.8357,1.8686,1.9016,1.922,1.922,1.925,1.9279,1.9279,1.9279,1.9279,1.9279,1.9279,1.9279,1.9279,1.9279,1.9279,1.9279,1.9557,1.9725,1.9762,2.0362,2.0808,2.1101,2.1174,2.1189,2.1152,2.0859,2.0706,0.0,0.0,0.0,0.0,0.0,0.0,0.4785,0.5148,0.5448,0.0,0.6239,0.6277,0.585,0.5798,0.5898,0.6288,0.6916,0.7855,0.9247,0.9984,1.0492,1.0697,1.0702,1.0724,1.0767,1.0778,1.0778,1.0778,1.095,1.1144,1.1251,1.131,1.1418,1.1418,1.1462,1.1488,1.1488,1.1671,1.1768,1.1768,1.1957,1.214,1.214,1.214,1.214,1.2129,1.1849,1.1768,1.1752,1.1564,1.1709,1.2145,1.2281,1.2516,1.2698,1.2836,1.3446,1.419,1.4286,1.4765,1.5432,1.619,1.6379,1.6567,1.7138,1.7326,1.7326,1.7326,1.7326,1.7326,1.7326,1.7326,1.7326,1.7326,1.7326,1.7326,1.7326,1.7326,1.7326,1.7326,1.7326,1.7435,1.7757,1.7867,1.8021,1.835,1.8672,1.8884,1.8884,1.9111,1.9279,1.9279,1.9279,1.9279,1.9279,1.9279,1.9279,1.9279,1.9279,1.9279,1.9279,1.9338,1.9491,1.9755,2.0135,2.0362,2.0428,2.0955,2.1079,2.0815,2.075,2.0581,0.0,0.0,0.0,0.3226,0.0,0.0,0.0,0.4473,0.4719,0.5261,0.5513,0.5547,0.5268,0.5328,0.5447,0.5656,0.6364,0.709,0.7588,0.8956,0.9932,0.9892,1.0221,1.0429,1.0293,1.0471,1.0638,1.0638,1.074,1.0864,1.0988,1.1106,1.1165,1.1165,1.1284,1.1262,1.1262,1.1467,1.1526,1.1526,1.1645,1.1698,1.1698,1.1698,1.1698,1.1693,1.158,1.1526,1.1515,1.1402,1.1488,1.1709,1.1828,1.1951,1.2086,1.2328,1.2674,1.3267,1.3765,1.419,1.4669,1.5432,1.5622,1.5812,1.6567,1.7044,1.7326,1.7326,1.7326,1.7326,1.7326,1.7326,1.7326,1.7326,1.7326,1.7326,1.7326,1.7326,1.7326,1.7326,1.7326,1.7377,1.7545,1.7706,1.7874,1.8035,1.8343,1.8547,1.8547,1.8833,1.903,1.903,1.9177,1.9279,1.9279,1.9279,1.9279,1.9279,1.9279,1.9279,1.9279,1.9279,1.9433,1.9755,1.9923,2.0077,2.0237,2.0567,2.064,2.0479,2.0318,2.0157,0.0,0.0,0.0,0.0,0.0,0.336,0.0,0.0,0.0,0.4553,0.4772,0.4846,0.0,0.0,0.0,0.0,0.0,0.0,0.0,0.7363,0.0,0.859,0.9386,0.9782,0.9597,0.9982,1.0354,1.0568,1.0487,1.0503,1.0552,1.0816,1.0918,1.0918,1.1155,1.1278,1.1278,1.1241,1.1262,1.1262,1.1262,1.1262,1.1262,1.1262,1.1262,1.1262,1.1262,1.1262,1.1262,1.1262,1.1262,1.1283,1.1558,1.1661,1.1747,1.2134,1.2334,1.2536,1.329,1.3674,1.3811,1.4573,1.4956,1.5242,1.5812,1.6473,1.7044,1.7044,1.7232,1.7232,1.7138,1.7232,1.7232,1.7138,1.7232,1.7326,1.7326,1.7326,1.7326,1.7326,1.7326,1.7326,1.7326,1.7545,1.7721,1.7721,1.7999,1.8211,1.8211,1.8496,1.8723,1.8782,1.9023,1.9206,1.9272,1.9279,1.9279,1.9279,1.9279,1.9279,1.9279,1.9279,1.9403,1.9667,1.9667,1.9798,2.0055,2.0055,2.0084,2.0135,1.9879,1.9733,0.0,0.0,0.0,0.0,0.3226,0.0,0.0,0.0,0.4028,0.4095,0.0,0.3979,0.0,0.0,0.0,0.0,0.0,0.0,0.4419,0.5517,0.6497,0.6809,0.7825,0.8269,0.7873,0.8509,0.9319,1.0236,1.0006,1.0015,1.0546,1.0659,1.0676,1.0676,1.0902,1.1025,1.1025,1.1241,1.1262,1.1262,1.1262,1.1262,1.1262,1.1262,1.1262,1.1262,1.1262,1.1262,1.1262,1.1262,1.1262,1.1267,1.1294,1.1515,1.1704,1.1758,1.2048,1.242,1.2536,1.2682,1.305,1.3811,1.4478,1.5146,1.5242,1.5717,1.6285,1.6285,1.6756,1.7138,1.6473,1.6857,1.7138,1.6473,1.685,1.7326,1.7326,1.7326,1.7326,1.7326,1.7326,1.7326,1.7326,1.7362,1.7384,1.7384,1.7662,1.7874,1.7874,1.8152,1.8467,1.876,1.8818,1.8964,1.925,1.9279,1.9279,1.9279,1.9279,1.9279,1.9279,1.9279,1.9294,1.933,1.933,1.9345,1.9381,1.9381,1.9535,1.9813,1.9777,1.9608,0.0,0.0,0.0,0.0,0.0,0.0,0.356,0.0,0.356,0.0,0.0,0.0,0.0,0.0,0.0,0.0,0.3701,0.0,0.0,0.0,0.5458,0.0,0.0,0.0,0.7758,0.836,0.9028,0.9863,0.9492,0.9585,1.0129,1.0358,1.0439,1.0439,1.0659,1.0848,1.0982,1.1085,1.1209,1.1262,1.1262,1.1262,1.1262,1.1262,1.1262,1.1262,1.1262,1.1262,1.1262,1.1262,1.1262,1.1262,1.1262,1.1413,1.1515,1.165,1.1828,1.2021,1.2156,1.2269,1.2465,1.2886,1.3689,1.4382,1.4382,1.4956,1.5622,1.6096,1.6379,1.6662,1.6857,1.6763,1.6662,1.6857,1.6763,1.6763,1.7232,1.7326,1.7326,1.7326,1.7326,1.7326,1.7326,1.7326,1.7326,1.7326,1.7443,1.753,1.753,1.7816,1.8072,1.8211,1.8562,1.8847,1.8979,1.9169,1.9279,1.9279,1.9279,1.9279,1.9279,1.9279,1.9279,1.9279,1.9279,1.9279,1.9279,1.9279,1.9345,1.9477,1.9477,1.9403,0.4621,0.0,0.0,0.0,0.0,0.0,0.0,0.0,0.0,0.0,0.0,0.0,0.0,0.0,0.0,0.0,0.0,0.3618,0.0,0.387,0.0,0.0,0.0,0.0,0.0,0.7619,0.8146,0.9098,0.8747,0.891,0.9739,0.9997,1.0126,1.0191,1.0417,1.0622,1.0794,1.0859,1.1009,1.1252,1.1252,1.1284,1.1262,1.1262,1.1262,1.1262,1.1262,1.1262,1.1262,1.1262,1.1262,1.1262,1.1262,1.1262,1.1283,1.1542,1.1645,1.1725,1.1892,1.1995,1.2086,1.2334,1.2903,1.3532,1.3601,1.419,1.486,1.5425,1.59,1.6285,1.6567,1.6473,1.6285,1.6662,1.6473,1.6379,1.6857,1.7138,1.7326,1.7326,1.7326,1.7326,1.7326,1.7326,1.7326,1.7326,1.7326,1.7326,1.7326,1.7538,1.7721,1.7808,1.824,1.8591,1.8774,1.9008,1.9184,1.9272,1.9279,1.9279,1.9279,1.9279,1.9279,1.9279,1.9279,1.9279,1.9279,1.9279,1.9279,1.9279,1.9279,1.9279,0.0,0.0,0.0,0.4188,0.0,0.0,0.0,0.0,0.3226,0.0,0.0,0.0,0.0,0.0,0.0,0.0,0.0,0.0,0.0,0.0,0.0,0.0,0.0,0.0,0.0,0.5577,0.6158,0.7868,0.7588,0.804,0.9504,0.9599,0.9707,0.9927,1.0175,1.0309,1.0315,1.0536,1.0762,1.0993,1.0993,1.1117,1.1262,1.1262,1.1262,1.1262,1.1262,1.1262,1.1262,1.1262,1.1262,1.1262,1.1262,1.1262,1.1262,1.1273,1.1505,1.1698,1.1709,1.186,1.2086,1.2334,1.242,1.2468,1.2791,1.3335,1.3908,1.4004,1.5045,1.6001,1.5337,1.5717,1.6001,1.5337,1.5717,1.619,1.619,1.6756,1.7326,1.7326,1.7326,1.7326,1.7326,1.7326,1.7326,1.7326,1.7326,1.7326,1.7326,1.7333,1.7465,1.7786,1.7838,1.8101,1.8738,1.8796,1.8935,1.9257,1.9279,1.9279,1.9279,1.9279,1.9279,1.9279,1.9279,1.9279,1.9279,1.9279,1.9279,1.9279,1.9279,1.9279,0.0,0.0,0.5566,0.5313,0.0,0.0,0.0,0.0,0.0,0.0,0.0,0.0,0.0,0.0,0.0,0.0,0.0,0.0,0.0,0.0,0.0,0.0,0.0,0.0,0.0,0.0,0.6639,0.7582,0.7867,0.8379,0.9319,0.9491,0.9615,0.969,0.9922,1.0126,1.0293,1.0374,1.0274,0.9916,1.006,1.0005,0.9838,0.988,1.0289,1.0819,1.0819,1.0992,1.1262,1.1262,1.0911,1.0472,1.1089,1.0911,1.0472,1.1089,1.1402,1.1472,1.1472,1.1623,1.1855,1.2097,1.228,1.2457,1.2694,1.2953,1.3238,1.3715,1.4286,1.4765,1.5051,1.486,1.4765,1.5051,1.486,1.4949,1.6001,1.6379,1.6756,1.7232,1.7326,1.7326,1.7326,1.6857,1.6756,1.7232,1.7326,1.7326,1.7326,1.7326,1.7369,1.7479,1.7684,1.7904,1.813,1.854,1.8928,1.9257,1.9279,1.9279,1.9279,1.9279,1.9279,1.9279,1.9279,1.9279,1.9279,1.9279,1.9279,1.9279,1.9279,1.9279,0.7002,0.6611,0.0,0.6095,0.561,0.0,0.4287,0.0,0.3493,0.0,0.0,0.0,0.0,0.0,0.0,0.0,0.0,0.0,0.0,0.3226,0.0,0.0,0.0,0.0,0.0,0.508,0.5918,0.7109,0.7243,0.7667,0.8651,0.8881,0.8893,0.8827,0.9045,0.915,0.9218,0.9296,0.9159,0.8797,0.8928,0.8901,0.87,0.8729,0.9078,0.9575,0.9575,1.0019,1.0733,1.0733,1.0559,1.0386,1.0738,1.0646,1.0472,1.1089,1.1262,1.1262,1.1262,1.1451,1.1612,1.1849,1.2086,1.2328,1.2565,1.2694,1.2856,1.3335,1.3715,1.3998,1.4573,1.4286,1.3998,1.4573,1.4286,1.419,1.514,1.5805,1.6379,1.6857,1.7138,1.7326,1.7326,1.6662,1.6379,1.6857,1.6951,1.6951,1.6951,1.7138,1.7326,1.7326,1.7516,1.7691,1.7808,1.8408,1.8877,1.9089,1.9213,1.9279,1.9279,1.9279,1.922,1.9103,1.9213,1.922,1.9103,1.8902,1.8848,1.8848,1.8527,1.8429]}]]